[[{"header":{"parameterUnit":"m.s-1","parameterCategory":1,"la1":30.6,"la2":28.766,"lo1":-90.7593,"lo2":-88.6598,"dx":0.0162,"dy":0.0183,"nx":116,"ny":114,"refTime":"2023-01-10T06:00:00:Z","depth":0,"parameterNumber":2,"parameterNumberName":"U-component_of_WINDS"},"data":[0.0,0.0,0.0,0.0,0.0,0.0,0.0,0.0,0.0,0.0,0.0,0.0,0.0,0.0,0.0,0.0,0.0,0.0,0.0,0.0,0.0,0.0,0.0,0.0,0.0,0.0,0.0,0.0,0.0,0.0,0.0,0.0,0.0,0.0,0.0,0.0,0.0,0.0,0.0,0.0,0.0,0.0,0.0,0.0,0.0,0.0,0.0,0.0,0.0,0.0,0.0,0.0,0.0,0.0,0.0,0.0,0.0,0.0,0.0,0.0,0.0,0.0,0.0,0.0,0.0,0.0,0.0,0.0,0.0,0.0,0.0,0.0,0.0,0.0,0.0,0.0,0.0,0.0,0.0,0.0,0.0,0.0,0.0,0.0,0.0,0.0,0.0,0.0,0.0,0.0,0.0,0.0,0.0,0.0,0.0,0.0,0.0,0.0,0.0,0.0,0.0,0.0,0.0,0.0,0.0,0.0,0.0,0.0,0.0,0.0,0.0,0.0,0.0,0.0,0.0,0.0,0.0,0.0,0.0,0.0,0.0,0.0,0.0,0.0,0.0,0.0,0.0,0.0,0.0,0.0,0.0,0.0,0.0,0.0,0.0,0.0,0.0,0.0,0.0,0.0,0.0,0.0,0.0,0.0,0.0,0.0,0.0,0.0,0.0,0.0,0.0,0.0,0.0,0.0,0.0,0.0,0.0,0.0,0.0,0.0,0.0,0.0,0.0,0.0,0.0,0.0,0.0,0.0,0.0,0.0,0.0,0.0,0.0,0.0,0.0,0.0,0.0,0.0,0.0,0.0,0.0,0.0,0.0,0.0,0.0,0.0,0.0,0.0,0.0,0.0,0.0,0.0,0.0,0.0,0.0,0.0,0.0,0.0,0.0,0.0,0.0,0.0,0.0,0.0,0.0,0.0,0.0,0.0,0.0,0.0,0.0,0.0,0.0,0.0,0.0,0.0,0.0,0.0,0.0,0.0,0.0,0.0,0.0,0.0,0.0,0.0,0.0,0.0,0.0,0.0,0.0,0.0,0.0,0.0,0.0,0.0,0.0,0.0,0.0,0.0,0.0,0.0,0.0,0.0,0.0,0.0,0.0,0.0,0.0,0.0,0.0,0.0,0.0,0.0,0.0,0.0,0.0,0.0,0.0,0.0,0.0,0.0,0.0,0.0,0.0,0.0,0.0,0.0,0.0,0.0,0.0,0.0,0.0,0.0,0.0,0.0,0.0,0.0,0.0,0.0,0.0,0.0,0.0,0.0,0.0,0.0,0.0,0.0,0.0,0.0,0.0,0.0,0.0,0.0,0.0,0.0,0.0,0.0,0.0,0.0,0.0,0.0,0.0,0.0,0.0,0.0,0.0,0.0,0.0,0.0,0.0,0.0,0.0,0.0,0.0,0.0,0.0,0.0,0.0,0.0,0.0,0.0,0.0,0.0,0.0,0.0,0.0,0.0,0.0,0.0,0.0,0.0,0.0,0.0,0.0,0.0,0.0,0.0,0.0,0.0,0.0,0.0,0.0,0.0,0.0,0.0,0.0,0.0,0.0,0.0,0.0,0.0,0.0,0.0,0.0,0.0,0.0,0.0,0.0,0.0,0.0,0.0,0.0,0.0,0.0,0.0,0.0,0.0,0.0,0.0,0.0,0.0,0.0,0.0,0.0,0.0,0.0,0.0,0.0,0.0,0.0,0.0,0.0,0.0,0.0,0.0,0.0,0.0,0.0,0.0,0.0,0.0,0.0,0.0,0.0,0.0,0.0,0.0,0.0,0.0,0.0,0.0,0.0,0.0,0.0,0.0,0.0,0.0,0.0,0.0,0.0,0.0,0.0,0.0,0.0,0.0,0.0,0.0,0.0,0.0,0.0,0.0,0.0,0.0,0.0,0.0,0.0,0.0,0.0,0.0,0.0,0.0,0.0,0.0,0.0,0.0,0.0,0.0,0.0,0.0,0.0,0.0,0.0,0.0,0.0,0.0,0.0,0.0,0.0,0.0,0.0,0.0,0.0,0.0,0.0,0.0,0.0,0.0,0.0,0.0,0.0,0.0,0.0,0.0,0.0,0.0,0.0,0.0,0.0,0.0,0.0,0.0,0.0,0.0,0.0,0.0,0.0,0.0,0.0,0.0,0.0,0.0,0.0,0.0,0.0,0.0,0.0,0.0,0.0,0.0,0.0,0.0,0.0,0.0,0.0,0.0,0.0,0.0,0.0,0.0,0.0,0.0,0.0,0.0,0.0,0.0,0.0,0.0,0.0,0.0,0.0,0.0,0.0,0.0,0.0,0.0,0.0,0.0,0.0,0.0,0.0,0.0,0.0,0.0,0.0,0.0,0.0,0.0,0.0,0.0,0.0,0.0,0.0,0.0,0.0,0.0,0.0,0.0,0.0,0.0,0.0,0.0,0.0,0.0,0.0,0.0,0.0,0.0,0.0,0.0,0.0,0.0,0.0,0.0,0.0,0.0,0.0,0.0,0.0,0.0,0.0,0.0,0.0,0.0,0.0,0.0,0.0,0.0,0.0,0.0,0.0,0.0,0.0,0.0,0.0,0.0,0.0,0.0,0.0,0.0,0.0,0.0,0.0,0.0,0.0,0.0,0.0,0.0,0.0,0.0,0.0,0.0,0.0,0.0,0.0,0.0,0.0,0.0,0.0,0.0,0.0,0.0,0.0,0.0,0.0,0.0,0.0,0.0,0.0,0.0,0.0,0.0,0.0,0.0,0.0,0.0,0.0,0.0,0.0,0.0,0.0,0.0,0.0,0.0,0.0,0.0,0.0,0.0,0.0,0.0,0.0,0.0,0.0,0.0,0.0,0.0,0.0,0.0,0.0,0.0,0.0,0.0,0.0,0.0,0.0,0.0,0.0,0.0,0.0,0.0,0.0,0.0,0.0,0.0,0.0,0.0,0.0,0.0,0.0,0.0,0.0,0.0,0.0,0.0,0.0,0.0,0.0,0.0,0.0,0.0,0.0,0.0,0.0,0.0,0.0,0.0,0.0,0.0,0.0,0.0,0.0,0.0,0.0,0.0,0.0,0.0,0.0,0.0,0.0,0.0,0.0,0.0,0.0,0.0,0.0,0.0,0.0,0.0,0.0,0.0,0.0,0.0,0.0,0.0,0.0,0.0,0.0,0.0,0.0,0.0,0.0,0.0,0.0,0.0,0.0,0.0,0.0,0.0,0.0,0.0,0.0,0.0,0.0,0.0,0.0,0.0,0.0,0.0,0.0,0.0,0.0,0.0,0.0,0.0,0.0,0.0,0.0,0.0,0.0,0.0,0.0,0.0,0.0,0.0,0.0,0.0,0.0,0.0,0.0,0.0,0.0,0.0,0.0,0.0,0.0,0.0,0.0,0.0,0.0,0.0,0.0,0.0,0.0,0.0,0.0,0.0,0.0,0.0,0.0,0.0,0.0,0.0,0.0,0.0,0.0,0.0,0.0,0.0,0.0,0.0,0.0,0.0,0.0,0.0,0.0,0.0,0.0,0.0,0.0,0.0,0.0,0.0,0.0,0.0,0.0,0.0,0.0,0.0,0.0,0.0,0.0,0.0,0.0,0.0,0.0,0.0,0.0,0.0,0.0,0.0,0.0,0.0,0.0,0.0,0.0,0.0,0.0,0.0,0.0,0.0,0.0,0.0,0.0,0.0,0.0,0.0,0.0,0.0,0.0,0.0,0.0,0.0,0.0,0.0,0.0,0.0,0.0,0.0,0.0,0.0,0.0,0.0,0.0,0.0,0.0,0.0,0.0,0.0,0.0,0.0,0.0,0.0,0.0,0.0,0.0,0.0,0.0,0.0,0.0,0.0,0.0,0.0,0.0,0.0,0.0,0.0,0.0,0.0,0.0,0.0,0.0,0.0,0.0,0.0,0.0,0.0,0.0,0.0,0.0,0.0,0.0,0.0,0.0,0.0,0.0,0.0,0.0,0.0,0.0,0.0,0.0,0.0,0.0,0.0,0.0,0.0,0.0,0.0,0.0,0.0,0.0,0.0,0.0,0.0,0.0,0.0,0.0,0.0,0.0,0.0,0.0,0.0,0.0,0.0,0.0,0.0,0.0,0.0,0.0,0.0,0.0,0.0,0.0,0.0,0.0,0.0,0.0,0.0,0.0,0.0,0.0,0.0,0.0,0.0,0.0,0.0,0.0,0.0,0.0,0.0,0.0,0.0,0.0,0.0,0.0,0.0,0.0,0.0,0.0,0.0,0.0,0.0,0.0,0.0,0.0,0.0,0.0,0.0,0.0,0.0,0.0,0.0,0.0,0.0,0.0,0.0,0.0,0.0,0.0,0.0,0.0,0.0,0.0,0.0,0.0,0.0,0.0,0.0,0.0,0.0,0.0,0.0,0.0,0.0,0.0,0.0,0.0,0.0,0.0,0.0,0.0,0.0,0.0,0.0,0.0,0.0,0.0,0.0,0.0,0.0,0.0,0.0,0.0,0.0,0.0,0.0,0.0,0.0,0.0,0.0,0.0,0.0,0.0,0.0,0.0,0.0,0.0,0.0,0.0,0.0,0.0,0.0,0.0,0.0,0.0,0.0,0.0,0.0,0.0,0.0,0.0,0.0,0.0,0.0,0.0,0.0,0.0,0.0,0.0,0.0,0.0,0.0,0.0,0.0,0.0,0.0,0.0,0.0,0.0,0.0,0.0,0.0,0.0,0.0,0.0,0.0,0.0,0.0,0.0,0.0,0.0,0.0,0.0,0.0,0.0,0.0,0.0,0.0,0.0,0.0,0.0,0.0,0.0,0.0,0.0,0.0,0.0,0.0,0.0,0.0,0.0,0.0,0.0,0.0,0.0,0.0,0.0,0.0,0.0,0.0,0.0,0.0,0.0,0.0,0.0,0.0,0.0,0.0,0.0,0.0,0.0,0.0,0.0,0.0,0.0,0.0,0.0,0.0,0.0,0.0,0.0,0.0,0.0,0.0,0.0,0.0,0.0,0.0,0.0,0.0,0.0,0.0,0.0,0.0,0.0,0.0,0.0,0.0,0.0,0.0,0.0,0.0,0.0,0.0,0.0,0.0,0.0,0.0,0.0,0.0,0.0,0.0,0.0,0.0,0.0,0.0,0.0,0.0,0.0,0.0,0.0,0.0,0.0,0.0,0.0,0.0,0.0,0.0,0.0,0.0,0.0,0.0,0.0,0.0,0.0,0.0,0.0,0.0,0.0,0.0,0.0,0.0,0.0,0.0,0.0,0.0,0.0,0.0,0.0,0.0,0.0,0.0,0.0,0.0,0.0,0.0,0.0,0.0,0.0,0.0,0.0,0.0,0.0,0.0,0.0,0.0,0.0,0.0,0.0,0.0,0.0,0.0,0.0,0.0,0.0,0.0,0.0,0.0,0.0,0.0,0.0,0.0,0.0,0.0,0.0,0.0,0.0,0.0,0.0,0.0,0.0,0.0,0.0,0.0,0.0,0.0,0.0,0.0,0.0,0.0,0.0,0.0,0.0,0.0,0.0,0.0,0.0,0.0,0.0,0.0,0.0,0.0,0.0,0.0,0.0,0.0,0.0,0.0,0.0,0.0,0.0,0.0,0.0,0.0,0.0,0.0,0.0,0.0,0.0,0.0,0.0,0.0,0.0,0.0,0.0,0.0,0.0,0.0,0.0,0.0,0.0,0.0,0.0,0.0,0.0,0.0,0.0,0.0,0.0,0.0,0.0,0.0,0.0,0.0,0.0,0.0,0.0,0.0,0.0,0.0,0.0,0.0,0.0,0.0,0.0,0.0,0.0,0.0,0.0,0.0,0.0,0.0,0.0,0.0,0.0,0.0,0.0,0.0,0.0,0.0,0.0,0.0,0.0,0.0,0.0,0.0,0.0,0.0,0.0,0.0,0.0,0.0,0.0,0.0,0.0,0.0,0.0,0.0,0.0,0.0,0.0,0.0,0.0,0.0,0.0,0.0,0.0,0.0,0.0,0.0,0.0,0.0,0.0,0.0,0.0,0.0,0.0,0.0,0.0,0.0,0.0,0.0,0.0,0.0,0.0,0.0,0.0,0.0,0.0,0.0,0.0,0.0,0.0,0.0,0.0,0.0,0.0,0.0,0.0,0.0,0.0,0.0,0.0,0.0,0.0,0.0,0.0,0.0,0.0,0.0,2.3945,0.0,0.0,0.0,0.0,0.0,0.0,0.0,0.0,0.0,0.0,0.0,0.0,0.0,0.0,0.0,0.0,0.0,0.0,0.0,0.0,0.0,0.0,0.0,0.0,-0.9989,-0.9911,-0.9822,-0.975,0.0,0.0,0.0,0.0,0.0,0.0,0.0,0.0,0.0,-1.378,-1.494,-1.5863,-1.7926,-2.0988,-1.999,-1.8564,-1.6804,0.0,0.0,0.0,0.0,0.0,0.0,0.0,0.0,0.0,0.0,0.0,0.0,0.0,0.0,0.0,0.0,0.0,0.0,0.0,0.0,0.0,0.0,0.0,0.0,0.0,0.0,0.0,0.0,0.0,0.0,0.0,0.0,0.0,0.0,0.0,0.0,0.0,0.0,0.0,0.0,0.0,0.0,0.0,0.0,0.0,0.0,0.0,0.0,0.0,0.0,0.0,0.0,0.0,0.0,0.0,0.0,0.0,0.0,0.0,0.0,0.0,0.0,0.0,0.0,0.0,0.0,0.0,0.0,0.0,0.0,0.0,2.4146,0.0,0.0,0.0,0.0,0.0,0.0,0.0,0.0,0.0,0.0,0.0,0.0,0.0,0.0,0.0,0.0,0.0,0.0,0.0,0.0,0.0,-1.1868,-1.2584,-1.2559,-1.2444,-1.2373,-1.2263,-1.2512,-1.3254,0.0,0.0,0.0,0.0,0.0,0.0,-1.5478,-1.6439,-1.7435,-1.9843,-2.2067,-2.4138,-2.5088,-2.367,0.0,0.0,0.0,0.0,0.0,0.0,0.0,0.0,0.0,0.0,0.0,0.0,0.0,0.0,0.0,0.0,0.0,0.0,0.0,0.0,0.0,0.0,0.0,0.0,0.0,0.0,0.0,0.0,0.0,0.0,0.0,0.0,0.0,0.0,0.0,0.0,0.0,0.0,0.0,0.0,0.0,0.0,0.0,0.0,0.0,0.0,0.0,0.0,0.0,0.0,0.0,0.0,0.0,0.0,0.0,0.0,0.0,0.0,0.0,0.0,0.0,0.0,0.0,0.0,0.0,2.9392,3.0178,3.1518,3.1518,3.1758,3.1954,2.7913,2.6713,2.7515,0.0,0.0,0.0,0.0,0.0,0.0,0.0,0.0,0.0,0.0,0.0,0.0,0.0,0.0,0.0,0.0,0.0,0.0,0.0,0.0,-1.2407,-1.2503,-1.2411,-1.229,-1.223,-1.2204,-1.2512,-1.3254,-1.3298,0.0,0.0,0.0,-1.4818,-1.5496,-1.6496,-1.8099,-2.0345,0.0,-2.6458,-2.614,-2.7207,-2.7006,-2.5673,-2.3939,0.0,0.0,0.0,0.0,0.0,0.0,0.0,0.0,0.0,0.0,0.0,0.0,0.0,0.0,0.0,0.0,0.0,0.0,0.0,0.0,0.0,0.0,0.0,0.0,0.0,0.0,0.0,0.0,0.0,0.0,0.0,0.0,0.0,0.0,0.0,0.0,0.0,0.0,0.0,0.0,0.0,0.0,0.0,2.0169,2.0239,0.0,0.0,0.0,0.0,0.0,0.0,0.0,0.0,0.0,0.0,0.0,0.0,0.0,2.8779,2.9554,3.0328,3.0781,3.0992,3.1523,3.226,3.3184,3.3184,3.3222,3.3241,3.2616,0.0,2.9273,2.9072,0.0,0.0,0.0,0.0,0.0,0.0,0.0,0.0,0.0,0.0,0.0,0.0,0.0,0.0,0.0,0.0,0.0,0.0,0.0,0.0,0.0,-1.4992,-1.5364,-1.5872,-1.6291,-1.6616,-1.6823,-1.7256,0.0,0.0,-1.8335,-1.8757,-1.9121,-2.0098,-2.1717,-2.398,-2.645,-2.7757,-2.8034,-2.9033,-2.9314,-2.8941,-2.7665,-2.5525,-2.289,-2.2647,0.0,0.0,0.0,0.0,0.0,0.0,0.0,0.0,0.0,0.0,0.0,0.0,0.0,0.0,0.0,0.0,0.0,0.0,0.0,0.0,0.0,0.0,0.0,0.0,0.0,0.0,0.0,0.0,0.0,0.0,0.0,0.0,0.0,0.0,0.0,0.0,0.0,0.0,0.0,2.0598,2.1394,2.2332,2.2061,2.176,0.0,0.0,0.0,0.0,0.0,0.0,0.0,0.0,0.0,3.0427,3.0969,3.1897,3.3244,3.3978,3.4501,3.4846,3.5105,3.5344,3.5587,3.5587,3.5587,3.5587,3.5587,3.5002,3.3952,3.2065,3.1068,3.0673,0.0,0.0,0.0,0.0,2.8752,2.8863,0.0,0.0,0.0,0.0,0.0,0.0,0.0,0.0,0.0,0.0,0.0,0.0,-1.6636,-1.7526,-1.8374,-1.9238,-1.9801,-2.0145,-2.0145,-2.0931,0.0,0.0,-2.1767,-2.2189,-2.2409,-2.3675,-2.5135,-2.6776,-2.7821,-2.8714,-2.9525,-3.0263,-3.0633,-3.0645,-3.0075,-2.7852,-2.4581,-2.4778,-2.4095,0.0,0.0,0.0,0.0,0.0,0.0,0.0,0.0,0.0,0.0,0.0,0.0,0.0,0.0,0.0,0.0,0.0,0.0,0.0,0.0,0.0,0.0,0.0,0.0,0.0,0.0,0.0,0.0,0.0,0.0,0.0,0.0,0.0,0.0,0.0,0.0,0.0,0.0,2.2431,2.3461,2.472,2.5047,2.4943,0.0,0.0,0.0,0.0,0.0,0.0,2.9999,3.0781,3.1887,3.3333,3.3974,3.49,3.6199,3.6815,3.7318,3.7747,3.7747,3.7735,3.7737,3.7737,3.7737,3.7737,3.7737,3.7718,3.7496,3.4943,3.4013,3.4179,3.3957,3.3873,3.3764,3.2966,3.2664,3.2767,0.0,0.0,0.0,0.0,0.0,0.0,0.0,0.0,0.0,0.0,0.0,-1.7434,-1.753,-1.8878,-2.0021,-2.0648,-2.0727,-2.102,-2.1653,-2.2446,-2.2868,-2.2868,-2.2923,-2.3309,-2.4061,-2.6066,-2.7352,-2.7832,-2.9456,-3.0283,-3.0344,-3.0517,-3.0606,-3.0617,-3.0625,-3.0069,-2.8963,-2.7346,-2.6551,-2.6209,0.0,0.0,0.0,0.0,0.0,0.0,0.0,0.0,0.0,0.0,0.0,0.0,0.0,0.0,0.0,0.0,0.0,0.0,0.0,0.0,0.0,0.0,0.0,0.0,0.0,0.0,0.0,0.0,0.0,0.0,0.0,0.0,0.0,0.0,0.0,0.0,0.0,0.0,0.0,2.7498,2.8125,0.0,0.0,0.0,0.0,2.9985,3.0368,3.1649,3.4072,3.4248,3.5402,3.7887,3.7995,3.8064,3.8157,3.8214,3.82,3.817,3.817,3.8516,3.9204,3.9204,3.9204,3.9204,3.9204,3.8742,3.7939,3.7532,3.7506,3.7666,3.6833,3.6504,3.6415,3.5612,3.5317,3.5313,0.0,0.0,0.0,-0.8764,-0.9758,-1.1079,-1.2748,-1.3997,-1.4843,-1.5151,-1.6601,-1.7841,-1.844,-2.0714,-2.2559,-2.3423,-2.3894,-2.397,-2.3574,-2.4782,-2.5005,-2.3823,-2.5254,-2.6354,-2.6948,-2.837,-2.9511,-3.0352,-3.1468,-3.2035,-3.2085,-3.2217,-3.2302,-3.235,-3.2326,-3.2133,-3.1734,-2.9931,-2.8509,-2.7381,-2.6655,-2.5124,0.0,0.0,0.0,0.0,0.0,0.0,0.0,0.0,0.0,0.0,0.0,0.0,0.0,0.0,0.0,0.0,0.0,0.0,0.0,0.0,0.0,0.0,0.0,0.0,0.0,0.0,0.0,0.0,0.0,0.0,0.0,0.0,0.0,0.0,0.0,0.0,0.0,2.8585,2.9823,0.0,3.119,3.2241,3.3144,3.3765,3.4919,3.5982,3.6899,3.6957,3.7365,3.8267,3.883,3.9141,3.9131,3.9655,3.9897,3.9878,3.9855,4.0023,4.0273,4.0273,4.0235,4.0196,4.0196,3.9985,3.9604,3.9522,3.8888,3.797,3.7668,3.7533,3.7511,3.722,3.7114,3.7102,0.0,0.0,0.0,-1.0056,-1.0864,-1.1964,-1.3651,-1.4632,-1.5407,-1.5965,-1.7473,-1.9033,-2.0429,-2.2875,-2.4855,-2.5952,-2.6202,-2.5997,-2.5263,-2.6208,-2.6242,0.0,-2.7398,-2.8836,-2.903,-3.0304,-3.1325,-3.2102,-3.2641,-3.2956,-3.3035,-3.3153,-3.3234,-3.3292,-3.3223,-3.3193,-3.3129,-3.1844,-3.0501,-2.911,-2.8322,-2.6948,-2.5159,0.0,0.0,0.0,0.0,0.0,0.0,0.0,0.0,0.0,0.0,0.0,0.0,0.0,0.0,0.0,0.0,0.0,0.0,0.0,0.0,0.0,0.0,0.0,0.0,0.0,0.0,0.0,0.0,0.0,0.0,0.0,0.0,0.0,0.0,0.0,2.9815,2.9906,3.1722,3.3014,3.3087,3.4631,3.5929,3.6597,3.7682,3.8482,3.8814,3.8833,3.897,3.9262,3.9848,4.0145,4.0145,4.0677,4.0905,4.0866,4.0866,4.0834,4.0804,4.0804,4.0758,4.0698,4.0688,4.062,4.0489,4.0489,3.9854,3.8834,3.8834,3.8834,3.8834,3.8834,3.8834,3.8796,0.0,0.0,-0.9228,-1.0117,-1.0926,-1.2002,-1.369,-1.4651,-1.5811,-1.7484,-1.9234,-2.1194,-2.3457,-2.5235,-2.6752,-2.7959,-2.7381,-2.682,-2.6594,-2.6667,-2.6741,0.0,0.0,0.0,-3.0171,-3.1794,-3.2761,-3.2942,-3.2981,-3.3045,-3.3179,-3.3257,-3.3317,-3.3378,-3.3301,-3.3271,-3.3258,-3.3051,-3.2487,-3.1609,-2.9658,-2.8402,-2.7505,0.0,0.0,0.0,0.0,0.0,0.0,0.0,0.0,0.0,0.0,0.0,0.0,0.0,0.0,0.0,0.0,0.0,0.0,0.0,0.0,0.0,0.0,0.0,0.0,0.0,0.0,0.0,0.0,0.0,0.0,0.0,0.0,0.0,2.7264,2.9726,3.1638,3.1633,3.3964,3.5608,3.5681,3.717,3.8209,3.8337,3.8436,3.8906,3.9883,3.9941,4.0332,4.1172,4.1191,4.1191,4.1191,4.1191,4.1133,4.1016,4.1016,4.0938,4.0809,4.0809,4.0768,4.0703,4.0717,4.0639,4.0508,4.0508,4.0508,4.0508,4.0489,4.0489,4.0489,4.0489,4.0469,4.0335,-1.0096,-0.9874,-1.0305,-1.1754,-1.2199,-1.2906,-1.458,-1.5055,-1.5811,-1.7484,-1.9735,-2.1827,-2.3515,-2.6152,-2.7646,-2.727,-2.7428,-2.7285,-2.6649,-2.8246,-2.983,0.0,0.0,0.0,-3.1894,-3.3173,-3.3862,-3.3914,-3.4552,-3.4894,-3.4994,-3.4996,-3.5065,-3.5188,-3.5164,-3.5095,-3.4957,-3.4236,-3.3751,-3.334,-3.1398,-3.0226,-2.9433,0.0,0.0,0.0,0.0,0.0,0.0,0.0,0.0,0.0,0.0,0.0,0.0,0.0,0.0,0.0,0.0,0.0,0.0,0.0,0.0,0.0,0.0,0.0,0.0,0.0,0.0,0.0,0.0,0.0,0.0,0.0,0.0,3.1431,3.04,3.2694,3.4447,3.4417,3.6126,3.7392,3.7531,3.8541,3.9264,3.9451,4.0053,4.0547,4.082,4.084,4.0957,4.1191,4.1191,4.1191,4.1191,4.1191,4.1172,4.1152,4.1152,4.1131,4.1082,4.1082,4.1041,4.0929,4.0916,4.0831,4.0716,4.0677,4.0658,4.0639,4.0543,4.0489,4.0489,4.0489,4.0123,3.9604,-1.0469,-1.0545,-1.1157,-1.2462,-1.2992,-1.3681,-1.5009,-1.5189,-1.6061,-1.8465,-2.0369,-2.246,-2.5012,-2.715,-2.8325,-2.809,-2.8204,-2.8143,-2.7793,-2.9403,0.0,0.0,0.0,-3.263,-3.3274,-3.4269,-3.4812,-3.4836,-3.5359,-3.5639,-3.5703,-3.5761,-3.5831,-3.5907,-3.5893,-3.5831,-3.5658,-3.5087,-3.4809,-3.4609,-3.3111,-3.1818,-3.0624,-2.9149,-2.8199,-2.7374,-2.5573,-2.5402,-2.5807,-2.4233,0.0,0.0,0.0,0.0,0.0,0.0,0.0,0.0,0.0,0.0,0.0,0.0,0.0,0.0,0.0,0.0,0.0,0.0,0.0,0.0,0.0,0.0,0.0,0.0,3.1616,3.3671,3.3378,3.4988,3.6166,3.6128,3.7565,3.8469,3.833,3.9384,4.0154,4.0354,4.082,4.1139,4.1191,4.1191,4.1191,4.1191,4.1191,4.1191,4.1191,4.1191,4.1191,4.1191,4.1543,4.1699,4.1719,4.207,4.2187,0.0,4.2099,4.2008,4.1892,4.1853,4.1821,0.0,0.0,0.0,0.0,0.0,4.0816,3.9796,-1.0762,-1.117,-1.1902,-1.2722,-1.349,-1.4263,-1.5083,-1.5195,-1.642,-1.985,-2.11,-2.3132,-2.7077,-2.8161,-2.8862,-2.9506,-2.9237,-2.9193,-2.9522,0.0,0.0,-3.0519,-3.2649,-3.3987,-3.4334,-3.5097,-3.5553,-3.5611,-3.5601,-3.5657,-3.5723,-3.5841,-3.5903,-3.5913,-3.5914,-3.5845,-3.5717,-3.5648,-3.5566,-3.5438,-3.4655,-3.3254,-3.1527,-3.0557,-2.978,-2.8829,-2.5878,-2.5788,-2.6728,-2.4427,0.0,0.0,0.0,0.0,0.0,0.0,0.0,0.0,0.0,0.0,0.0,0.0,0.0,0.0,0.0,0.0,0.0,0.0,0.0,0.0,0.0,0.0,0.0,0.0,3.3933,3.5152,3.6085,3.6746,3.7153,3.7147,3.844,3.9143,3.8657,3.9908,4.0804,4.1021,4.1021,4.1063,4.119,0.0,0.0,0.0,0.0,4.1191,4.1191,4.1289,4.1348,4.1348,4.2168,4.2558,4.2578,4.3359,4.3672,4.3613,4.3612,4.3532,4.3435,4.3428,4.3408,4.3211,4.1478,4.1258,4.2047,4.2816,4.2066,4.0623,-1.2559,-1.2519,-1.2889,-1.3692,-1.3919,-1.429,-1.5153,-1.5234,-1.642,-1.985,-2.162,-2.3813,-2.7153,-2.8808,-2.9437,-2.8785,-2.9082,-2.963,0.0,0.0,-3.1727,-3.3026,-3.3748,-3.448,-3.5238,-3.5461,-3.5579,-3.5611,-3.5655,-3.5743,-3.5869,-3.5896,-3.5938,-3.5975,-3.5976,-3.5947,-3.5845,-3.5736,-3.5629,-3.5557,-3.5348,-3.4609,-3.3467,-3.1956,-3.1277,-3.0999,-2.9728,-2.9046,-2.8671,-2.8344,-2.7488,-2.6408,-2.5544,0.0,0.0,0.0,0.0,0.0,0.0,0.0,0.0,0.0,0.0,0.0,0.0,0.0,0.0,0.0,0.0,0.0,0.0,0.0,0.0,3.3184,3.4827,3.6289,3.785,3.8112,3.811,3.8059,3.893,3.9788,4.0419,4.0754,4.1001,4.1156,4.1169,4.116,4.1191,4.1191,4.1191,4.1191,4.1191,4.1191,4.1191,4.1836,4.2168,4.2187,0.0,0.0,4.3457,4.3613,4.3691,4.3672,4.3689,4.3667,4.3642,4.3576,4.3434,4.3194,4.2811,4.2755,4.2874,4.3047,4.245,4.145,-1.4238,-1.3809,-1.3632,-1.403,-1.4416,-1.4792,-1.5229,-1.524,-1.6118,-1.8677,-2.0485,-2.2478,-2.4873,-2.6912,-2.8131,-2.8196,-2.9529,0.0,0.0,-3.1874,-3.2787,-3.3331,-3.4299,-3.5045,-3.5474,-3.5528,-3.5568,-3.5646,-3.5682,-3.5766,-3.5903,-3.5923,-3.5948,-3.5948,-3.5995,-3.5951,-3.59,-3.5761,-3.5663,-3.56,-3.5534,-3.5271,-3.4708,-3.2967,-3.2073,-3.1592,-3.0306,-2.9873,-2.979,-2.9056,-2.8428,-2.7787,-2.6806,-2.59,-2.4722,0.0,0.0,0.0,0.0,0.0,0.0,0.0,0.0,0.0,0.0,0.0,0.0,0.0,0.0,2.4394,0.0,0.0,3.2074,3.4028,3.5632,3.6797,3.7246,3.7246,3.7511,3.8351,3.9497,4.0268,4.0431,4.0771,4.1067,4.119,4.1191,4.1191,4.1191,4.1191,4.1191,4.1191,4.1582,4.1797,4.1797,4.259,4.2994,4.3002,4.3849,4.4258,4.4277,4.4766,4.5,4.5,4.5,4.5,4.4999,4.4967,4.479,4.4549,4.4553,4.4198,4.3739,4.4182,4.3797,4.2989,-1.5391,-1.4824,-1.4355,-1.4347,-1.4894,-1.5313,-1.5303,-1.5246,-1.5829,-1.7491,-1.9081,-2.0812,-2.2831,-2.4823,-2.6567,-2.795,-3.0092,0.0,0.0,-3.2542,-3.3398,-3.2929,-3.4571,-3.5515,-3.5507,-3.5534,-3.5599,-3.5675,-3.5717,-3.5797,-3.5903,-3.5973,-3.5973,-3.5916,-3.5974,-3.5973,-3.5913,-3.5783,-3.5709,-3.565,-3.5574,-3.5566,-3.5447,-3.3823,-3.2734,-3.187,-3.0292,-3.0011,-3.0219,-2.9046,-2.8855,-2.8953,-2.8028,-2.7459,-2.6718,-2.4674,-2.3842,0.0,0.0,0.0,0.0,0.0,0.0,0.0,0.0,0.0,2.2425,2.2389,2.4716,2.7363,2.9325,3.1468,3.3347,3.4637,3.6066,3.6797,3.6113,3.6309,3.7031,3.8437,3.965,4.0316,4.0175,4.0692,4.1081,4.119,4.1191,4.1191,4.1191,4.1348,4.1426,4.1426,4.2226,4.2656,4.2656,4.3443,4.3822,4.384,4.4659,4.5048,4.5078,4.5918,4.6308,4.6308,4.6308,4.6308,4.6308,4.6308,4.6144,4.59,4.5901,4.5353,4.4643,4.5336,4.5163,4.4528,-1.5391,-1.5312,-1.5254,-1.5254,-1.5325,-1.5364,-1.5315,-1.5288,-1.5864,-1.7497,-1.8542,-2.0361,-2.361,-2.4812,-2.6285,-2.851,0.0,0.0,-3.0175,-3.1914,-3.2961,-3.291,-3.4635,-3.5562,-3.5507,-3.5621,-3.5655,-3.5611,-3.58,-3.5896,-3.5903,-3.5973,-3.5996,-3.5996,-3.5996,-3.5996,-3.5976,-3.5913,-3.5873,-3.586,-3.573,-3.5682,-3.5592,-3.4671,-3.3796,-3.2915,-3.201,-3.0801,-2.9715,-3.0366,-3.0115,-2.9508,-2.937,-2.9294,-2.8706,-2.5937,0.0,-2.3487,-2.0625,-1.8619,0.0,-0.4163,-0.0985,0.2607,0.0,0.0,2.2501,2.5815,2.789,2.937,3.0237,3.2184,3.3967,3.483,3.557,3.6055,3.6094,3.7363,3.8379,3.8574,3.8749,3.9433,4.0918,4.113,4.1188,4.1191,4.1191,4.1191,4.1191,4.1875,4.2266,4.2266,4.3105,4.3555,4.3555,4.4289,4.4664,4.4684,4.5533,4.5939,4.5957,4.6191,4.6308,4.6308,4.6308,4.6308,4.6308,4.6308,4.6144,4.59,4.5901,4.5719,4.547,4.5547,4.5528,4.5355,-1.5391,-1.5391,-1.5391,-1.5391,-1.5405,-1.5391,-1.5362,-1.5333,-1.554,-1.6226,-1.7029,-1.81,-1.953,-2.2177,-2.4781,-2.714,-2.911,-2.9995,-2.9391,-3.1225,-3.2531,-3.3044,-3.429,-3.5163,-3.5602,-3.5659,-3.571,-3.5762,-3.586,-3.5916,-3.5951,-3.5995,-3.5996,-3.5996,-3.5996,-3.5996,-3.5996,-3.5938,-3.5903,-3.5896,-3.5761,-3.5755,-3.5714,-3.4876,-3.4014,-3.322,-3.2829,-3.1621,0.0,0.0,-3.015,-2.9432,-2.9432,-2.9351,-2.8981,-2.7623,-2.7093,0.0,-2.3934,0.0,0.0,0.0,-0.9153,-0.4002,0.6426,1.0835,1.5061,2.3155,2.6126,2.7474,2.8294,3.0354,3.2142,0.0,3.4714,3.5851,3.5407,3.6746,3.7969,3.8476,3.9023,3.9844,4.1074,4.0953,4.09,4.1189,4.0957,4.1113,4.1855,4.2182,4.2577,4.3092,4.3915,4.4329,4.4275,4.5046,4.5418,4.5393,4.5796,4.597,4.5997,4.6205,4.6308,4.6308,4.6308,4.6308,4.6289,4.6227,4.6076,4.59,4.5862,4.5738,4.5586,4.5586,4.5586,4.5566,-1.5391,-1.5391,-1.5391,-1.5391,-1.5408,-1.5401,-1.5395,-1.536,-1.5315,-1.5302,-1.582,-1.6432,-1.7106,-2.0966,-2.4072,-2.5562,-2.7624,-2.8791,0.0,-3.0222,-3.167,-3.2779,-3.3692,-3.4555,-3.5353,-3.5416,-3.5587,-3.5903,-3.5913,-3.5948,-3.5996,-3.5996,-3.5996,-3.5996,-3.5996,-3.5996,-3.5996,-3.5938,-3.591,-3.5896,-3.5534,-3.5466,-3.5469,-3.4578,-3.3691,-3.2946,-3.2883,-3.1916,0.0,0.0,-3.038,-2.966,-2.959,-2.9226,-2.8762,-2.8408,-2.8258,-2.7774,-2.5782,0.0,0.0,-2.0588,-1.5815,-0.94,-0.0661,0.2701,0.7115,1.814,2.1244,2.2744,2.5382,2.7981,3.0078,3.1368,3.3614,3.5022,3.4545,3.5875,3.7207,3.802,3.8942,3.9797,4.0578,4.0673,4.0818,4.1125,4.1057,4.1382,4.2271,4.2722,4.3246,4.3878,4.4685,4.5072,4.5043,4.5599,4.5854,4.5796,4.5853,4.5882,4.5907,4.6175,4.6308,4.6308,4.6308,4.6282,4.624,4.6143,4.6012,4.5863,4.5816,4.5719,4.5586,4.5586,4.5586,4.5605,-1.5391,-1.5391,-1.5391,-1.5391,-1.5391,-1.5409,-1.5397,-1.5394,-1.5375,-1.5315,-1.5317,-1.6256,-1.8652,-2.2697,-2.4947,-2.4235,-2.6477,-2.7962,-2.802,-2.8803,-3.0091,-3.1858,-3.2844,-3.3702,-3.451,-3.4669,-3.5112,-3.5903,-3.5972,-3.5996,-3.5996,-3.5996,-3.5996,-3.5996,-3.5996,-3.5996,-3.5996,-3.5938,-3.5942,-3.5918,-3.4998,-3.4673,-3.4629,-3.3699,-3.2809,-3.2043,-3.2046,0.0,0.0,0.0,-3.1281,-3.0529,-3.0322,-2.9428,0.0,-2.7791,-2.7094,-2.6152,0.0,0.0,-2.2406,-2.2387,-2.0317,-1.5506,-0.4857,-0.2478,0.0515,1.1295,1.3135,1.4863,2.1667,2.5557,2.8519,3.1119,3.2348,3.3134,3.358,3.5078,3.64,3.7052,3.7907,3.8669,0.0,4.0422,4.113,4.0998,4.178,4.2223,4.211,4.3703,4.4649,4.4682,4.5447,4.5863,4.586,4.5824,4.5813,4.5796,4.5796,4.5844,4.5907,4.6175,4.6308,4.6308,4.6308,4.6235,4.61,4.6102,4.5986,4.5794,4.5796,4.5719,4.5586,4.5586,4.5586,4.5624,-1.5391,-1.5391,-1.5391,-1.5391,-1.5391,-1.539,-1.5409,-1.5402,-1.5389,-1.537,-1.5322,0.0,0.0,0.0,0.0,0.0,-2.3724,-2.483,-2.5434,-2.74,-2.9067,-3.0251,-3.1764,-3.2941,-3.3754,-3.3807,-3.4257,-3.5093,-3.5136,-3.543,-3.5996,-3.5996,-3.5996,-3.5996,-3.5996,-3.5684,-3.5137,-3.5115,-3.4784,-3.4258,-3.3924,-3.3827,-3.3808,-3.3439,-3.3091,-3.2781,0.0,0.0,0.0,0.0,0.0,0.0,-3.0983,-3.0453,-2.9889,-3.0013,-2.8911,-2.7636,0.0,0.0,-2.5277,-2.4161,-2.2972,-2.0532,-1.4611,-1.2458,-0.9426,-0.1118,0.0389,0.2293,0.9085,1.3317,1.6799,2.0012,2.696,3.2048,3.217,3.4024,3.5628,3.6292,3.7177,0.0,0.0,0.0,0.0,4.0987,4.1303,4.2029,4.3361,4.4143,4.4832,4.5413,4.5699,4.5786,4.5713,4.5767,4.5757,4.568,4.5796,4.5963,4.6173,4.6268,4.6308,4.6308,4.6308,4.6229,4.6084,4.6007,4.5911,4.5796,4.5699,4.5624,4.5586,4.5586,4.597,4.6413,-1.5391,-1.5391,-1.5391,-1.5391,-1.5391,0.0,0.0,0.0,0.0,0.0,0.0,0.0,0.0,0.0,0.0,0.0,0.0,-2.2346,-2.3217,-2.5176,-2.6835,-2.8059,-2.9791,-3.1122,-3.1944,-3.2573,-3.3337,-3.4196,-3.4218,-3.4512,-3.5078,-3.5078,-3.5078,-3.5078,-3.5078,-3.4766,-3.4238,-3.4217,-3.3885,-3.3379,-3.3008,-3.2714,-3.2417,-3.1995,-3.1623,0.0,0.0,0.0,0.0,0.0,0.0,-3.1475,-3.1575,-3.1356,-3.1001,-3.091,-3.0135,-2.9199,0.0,-2.7462,-2.5943,-2.428,-2.3252,-2.1912,-1.9227,-1.7804,-1.5652,-1.0618,-0.992,-0.9177,-0.5458,-0.1543,0.2822,0.7719,1.513,2.1891,2.6525,3.0962,3.4178,3.5379,3.6026,3.6884,0.0,0.0,0.0,4.0927,4.1426,4.2328,4.3905,4.4573,4.5163,4.5719,4.5738,4.5699,4.5586,4.5699,4.5699,4.5603,4.5789,4.5988,4.615,4.6268,4.6308,4.6308,4.6308,4.6201,4.6023,4.594,4.5834,4.5719,4.5624,4.5586,4.5586,4.5586,4.6144,4.6855,-1.5391,-1.5391,-1.5391,0.0,0.0,0.0,0.0,0.0,0.0,0.0,0.0,0.0,0.0,0.0,0.0,0.0,0.0,0.0,-2.1349,0.0,0.0,-2.5321,-2.705,-2.8355,-2.9197,-3.0837,-3.2124,-3.3041,-3.3142,-3.3242,-3.334,-3.334,-3.334,-3.334,-3.3281,-3.3242,-3.3203,-3.3088,-3.3073,-3.3047,-3.2051,-3.1247,-3.0557,-2.9564,0.0,0.0,0.0,0.0,0.0,0.0,0.0,-3.1648,-3.201,-3.197,-3.1594,-3.0575,-3.0623,-3.0522,-2.8305,-2.6433,-2.4702,-2.3084,-2.1586,-2.0207,-1.917,-1.872,-1.8197,-1.6737,-1.7341,-1.8597,0.0,0.0,-1.2022,-0.4563,-0.1347,0.4704,1.7502,2.6361,3.2228,0.0,0.0,0.0,0.0,0.0,0.0,4.0775,0.0,4.3061,4.3795,4.494,4.5586,4.5586,4.5586,4.5586,4.5586,4.5586,4.5586,4.5622,4.5813,4.5899,4.5924,4.6175,4.6308,4.6308,4.6308,4.6147,4.59,4.5896,4.5776,4.5586,4.5586,4.5586,4.5605,4.5643,4.622,4.7009,0.0,0.0,0.0,0.0,0.0,0.0,0.0,0.0,0.0,0.0,0.0,0.0,0.0,0.0,0.0,0.0,0.0,0.0,-1.8635,0.0,0.0,0.0,0.0,0.0,0.0,0.0,0.0,0.0,0.0,-3.123,-3.2519,-3.2519,-3.2519,-3.248,-3.1836,-3.1172,-3.0527,-2.9862,-2.9551,-2.9441,0.0,-2.841,-2.8812,0.0,0.0,0.0,0.0,0.0,0.0,0.0,0.0,-3.0234,-3.0807,-3.1244,-3.1501,-3.1477,-3.0588,-2.9523,-2.9141,-2.7689,-2.6059,-2.5287,-2.4148,-2.2922,-2.1806,-2.072,-1.9773,-1.8919,-1.9419,-1.9603,0.0,0.0,0.0,-0.7446,-0.0321,0.0,1.553,2.5252,0.0,3.3005,0.0,3.4333,3.5552,3.6596,0.0,0.0,4.1356,4.2615,4.4329,4.4919,4.5342,4.5586,4.5586,4.5586,4.5586,4.5586,4.5643,4.5757,4.5854,4.5947,4.6044,4.6229,4.6308,4.6308,4.6308,4.6147,4.59,4.5896,4.5776,4.5586,4.5586,4.5586,4.5682,4.6336,4.7162,4.8028,0.0,0.0,0.0,0.0,0.0,0.0,0.0,0.0,0.0,0.0,0.0,0.0,0.0,0.0,0.0,0.0,0.0,0.0,0.0,0.0,0.0,0.0,0.0,0.0,0.0,0.0,0.0,0.0,0.0,0.0,0.0,-3.0137,-3.0488,-3.0469,-2.998,-2.9492,-2.9004,-2.8474,0.0,0.0,0.0,0.0,0.0,0.0,0.0,0.0,0.0,0.0,0.0,0.0,0.0,-3.0302,-3.1052,-3.1421,-3.1531,-3.1245,0.0,-2.9668,-2.8711,-2.7402,-2.6092,-2.5157,-2.4215,-2.3288,-2.2339,-2.1246,-2.034,-2.0265,-2.0343,0.0,-1.941,0.0,0.0,0.0,0.0,0.0,0.7017,1.9945,2.9875,0.0,3.2296,0.0,3.4855,3.6336,3.798,0.0,4.1139,4.2626,4.4504,4.5074,4.54,4.5586,4.5586,4.5586,4.5586,4.5586,4.568,4.5796,4.5873,4.5974,4.6103,4.6237,4.6308,4.6308,0.0,4.6147,4.59,4.5896,4.5776,4.5586,4.5586,4.5586,4.5701,4.6586,4.7451,4.8355,0.0,0.0,0.0,0.0,0.0,0.0,0.0,0.0,0.0,-1.619,-1.5755,-1.5397,0.0,0.0,0.0,0.0,0.0,0.0,0.0,0.0,0.0,0.0,0.0,0.0,0.0,0.0,0.0,0.0,0.0,0.0,0.0,0.0,0.0,0.0,0.0,0.0,0.0,0.0,0.0,0.0,0.0,0.0,0.0,0.0,0.0,0.0,0.0,0.0,0.0,0.0,-2.8969,-3.0866,-3.16,-3.1723,-3.1366,-3.0336,-3.0272,-3.0022,-2.7817,-2.6521,-2.5521,-2.4214,-2.3451,-2.2847,-2.1941,-2.1302,-2.0857,-2.0923,0.0,-2.0696,-2.0924,-1.9889,-1.9383,-2.0554,0.0,-0.2709,-0.2772,1.2687,2.5737,3.0488,3.0881,3.1782,3.4219,3.6061,3.7789,3.9465,4.1065,4.2718,4.4485,4.5161,4.5513,4.5586,4.5586,4.5586,4.5586,4.5586,4.5643,4.5776,4.5847,4.5957,4.6086,4.6231,4.6308,4.6308,0.0,0.0,4.59,4.5896,4.5776,4.5586,4.5586,4.5663,4.5874,4.674,4.7586,4.8432,0.0,0.0,0.0,0.0,0.0,0.0,0.0,0.0,0.0,0.0,-1.7567,-1.5408,0.0,0.0,0.0,0.0,0.0,0.0,0.0,0.0,0.0,0.0,0.0,0.0,0.0,0.0,0.0,0.0,0.0,0.0,0.0,0.0,0.0,0.0,0.0,0.0,0.0,0.0,0.0,0.0,0.0,0.0,0.0,0.0,0.0,0.0,0.0,0.0,0.0,0.0,-2.8727,-2.9832,-2.9868,-3.016,-3.0318,-2.9457,-2.884,-2.8319,-2.7876,-2.6869,-2.593,-2.5743,-2.5326,-2.4521,-2.2902,-2.3101,0.0,0.0,-2.1391,-2.1518,-2.0016,-1.9688,-1.9391,-1.8645,-1.7698,-1.318,0.0,0.0,1.6858,0.0,0.0,0.0,0.0,0.0,0.0,0.0,0.0,4.2124,4.4459,4.4707,4.5033,4.5586,4.5586,4.5586,4.5586,4.5586,4.5605,4.5642,4.5815,4.591,4.5939,4.6189,4.6308,4.6308,4.6308,0.0,4.59,4.5896,4.5776,4.5586,4.5586,4.6028,4.6778,4.7586,4.8509,4.9471,0.0,0.0,0.0,0.0,0.0,0.0,0.0,-1.9724,-2.089,-2.3444,-2.1997,-2.0187,-1.8783,-1.7095,-1.6044,0.0,0.0,0.0,0.0,0.0,0.0,0.0,0.0,0.0,0.0,0.0,0.0,0.0,0.0,0.0,0.0,0.0,0.0,0.0,0.0,0.0,0.0,0.0,0.0,0.0,0.0,0.0,0.0,0.0,0.0,0.0,0.0,0.0,0.0,0.0,-2.735,-2.9681,-3.0096,-2.9946,-2.9512,-2.9104,-2.8482,-2.7897,-2.7897,-2.7028,-2.6112,-2.619,-2.5546,-2.4634,-2.3402,0.0,0.0,0.0,-2.0853,-2.0623,-1.9365,-1.8884,0.0,-1.75,-1.5787,-1.1177,0.0,0.0,0.0,0.0,0.0,0.0,0.0,0.0,0.0,0.0,0.0,4.1746,4.4459,4.4943,4.5263,4.5586,4.5586,4.5586,4.5586,4.5586,4.5643,4.5757,4.5849,4.5978,4.6113,4.6246,4.6308,4.6308,4.6308,0.0,4.59,4.5896,4.5776,4.5586,4.5586,4.6124,4.7009,4.7798,4.874,4.9721,0.0,0.0,0.0,0.0,0.0,0.0,0.0,-2.2343,-2.3749,-2.6677,-2.67,-2.5566,-2.3231,-1.9701,-1.7235,0.0,0.0,0.0,0.0,0.0,0.0,0.0,0.0,0.0,0.0,0.0,0.0,0.0,0.0,0.0,0.0,0.0,0.0,0.0,0.0,0.0,0.0,0.0,0.0,0.0,0.0,0.0,0.0,0.0,0.0,0.0,0.0,0.0,0.0,0.0,-2.5721,-2.8983,-2.9849,-2.9841,-2.9494,-2.9329,-2.8861,-2.8346,-2.8241,-2.7331,-2.6445,-2.6424,-2.5485,-2.4359,-2.3535,-2.2451,0.0,0.0,-1.985,-1.9356,-1.8533,0.0,-1.7036,0.0,-1.2751,-0.731,0.0999,0.0,0.0,0.0,0.0,0.0,0.0,0.0,0.0,0.0,0.0,0.0,4.4478,4.5243,4.5586,4.5586,4.5586,4.5586,4.5586,4.5586,4.5699,4.5873,4.5896,4.603,4.6257,4.6286,4.6308,4.6308,4.6273,0.0,0.0,4.5877,4.5776,4.5586,4.5586,4.624,4.724,4.7875,4.8836,5.0009,0.0,0.0,0.0,0.0,0.0,0.0,0.0,-2.3802,-2.6735,-3.0885,-3.0091,-2.8711,-2.7609,-2.3057,-1.9118,0.0,0.0,0.0,0.0,0.0,0.0,0.0,0.0,0.0,0.0,0.0,0.0,0.0,0.0,0.0,0.0,0.0,0.0,0.0,0.0,0.0,0.0,0.0,0.0,0.0,0.0,0.0,0.0,0.0,0.0,0.0,0.0,0.0,0.0,0.0,0.0,-2.6443,-2.7081,-2.9079,-3.1035,-3.0301,0.0,0.0,-2.9323,-2.8223,-2.7232,-2.7268,-2.5976,-2.4359,-2.3231,0.0,-2.1154,-1.891,-1.8756,-1.8573,-1.6907,0.0,0.0,0.0,0.0,-0.8662,0.7126,0.8526,1.2896,0.0,0.0,0.0,0.0,0.0,0.0,0.0,0.0,0.0,4.458,4.5243,4.5586,4.5586,4.5586,4.5586,4.5586,4.5586,4.568,4.5815,4.5879,4.598,4.6117,4.6236,4.6308,4.6288,4.6177,0.0,0.0,4.5838,4.5738,4.5586,4.5586,4.6586,4.8009,4.8067,4.924,5.0817,0.0,0.0,0.0,0.0,0.0,0.0,-2.2809,-2.4238,-2.6793,-3.2142,-3.1777,-3.069,-2.9826,-2.6455,-2.2377,-1.7722,0.0,0.0,0.0,0.0,0.0,0.0,0.0,0.0,0.0,0.0,0.0,-1.5824,0.0,0.0,0.0,0.0,0.0,0.0,0.0,0.0,0.0,0.0,0.0,0.0,0.0,0.0,0.0,0.0,0.0,0.0,0.0,0.0,0.0,0.0,0.0,0.0,-2.5671,-2.7346,0.0,0.0,-2.8927,-2.9057,-2.8674,-2.7964,-2.7232,-2.6881,-2.5373,-2.3698,-2.254,0.0,-1.9574,-1.7566,-1.6879,-1.6175,-1.4754,-1.4065,0.0,0.0,0.0,0.0,0.2701,0.6923,1.323,0.0,0.0,0.0,0.0,0.0,0.0,0.0,0.0,0.0,4.4858,4.5342,4.5586,4.5586,4.5586,4.5586,4.5586,4.5586,4.5699,4.5853,4.5883,4.6002,4.6222,4.6278,4.6308,4.6288,4.6157,0.0,0.0,4.5825,4.5719,4.5643,4.6182,4.7086,4.8163,4.8682,4.9779,5.1047,0.0,0.0,0.0,0.0,0.0,-1.9277,-2.3058,-2.451,-2.6875,-3.1641,-3.1692,-3.1077,-3.05,-2.7847,-2.4167,-1.9395,-1.749,0.0,0.0,0.0,0.0,0.0,0.0,0.0,0.0,0.0,-1.5777,-1.601,-1.6005,-1.6009,0.0,0.0,0.0,0.0,0.0,0.0,0.0,0.0,0.0,0.0,0.0,0.0,0.0,0.0,0.0,0.0,0.0,0.0,0.0,0.0,0.0,0.0,0.0,0.0,0.0,0.0,-2.8031,-2.8347,-2.7827,-2.7636,-2.7336,-2.6598,-2.4821,-2.2982,0.0,0.0,-1.7813,-1.615,-1.5231,-1.4429,-1.341,-1.2588,-1.1883,0.0,0.0,-0.9412,-0.1178,0.4059,1.127,0.0,0.0,0.0,0.0,0.0,0.0,0.0,0.0,0.0,4.5036,4.5419,4.5586,4.5586,4.5586,4.5586,4.5586,4.5586,4.5699,4.5892,4.5902,4.6039,4.6308,4.6308,4.6308,4.6289,0.0,0.0,0.0,4.5834,4.5719,4.5682,4.6567,4.7394,4.8221,4.9106,5.0163,5.1106,0.0,0.0,0.0,0.0,0.0,0.0,-2.1437,-2.4763,-2.7617,-2.9414,-2.9629,-2.9629,-2.9609,-2.6504,-2.371,-2.1904,-1.86,0.0,0.0,0.0,0.0,0.0,0.0,0.0,0.0,0.0,-1.6875,-1.7683,-1.7683,-1.7683,-1.7683,-1.7683,-1.726,0.0,0.0,0.0,0.0,0.0,0.0,0.0,0.0,0.0,0.0,0.0,0.0,0.0,0.0,0.0,0.0,0.0,0.0,0.0,0.0,-2.2803,-2.3708,0.0,-2.7875,-2.8265,-2.7131,-2.7443,-2.7818,-2.667,-2.4522,-2.2396,0.0,0.0,-1.6081,-1.4458,-1.4098,-1.3898,-1.3301,-1.2588,-1.2163,-1.2349,0.0,0.0,-0.2066,0.0216,0.0,0.0,0.0,0.0,0.0,0.0,0.0,0.0,0.0,0.0,4.5036,4.5419,4.5586,4.5586,4.5586,4.5586,4.5586,4.5586,4.5699,4.5892,4.5902,4.6039,4.6308,4.6308,4.6308,0.0,0.0,0.0,0.0,4.5834,4.5719,4.5682,4.6567,4.7394,4.8221,4.924,5.024,5.1106,0.0,0.0,0.0,0.0,0.0,0.0,0.0,-2.1496,-2.3652,-2.6498,-2.6386,-2.6953,-2.9336,-2.6484,-2.3965,-2.2851,-2.0069,0.0,0.0,0.0,0.0,0.0,0.0,0.0,0.0,-1.7042,-1.7741,-1.8588,-1.8588,-1.8895,-1.9465,-1.8869,-1.8439,-1.817,-1.758,0.0,0.0,0.0,0.0,0.0,0.0,0.0,0.0,0.0,0.0,0.0,0.0,0.0,0.0,0.0,0.0,0.0,0.0,0.0,0.0,-2.3199,-2.4871,-2.6415,-2.5916,-2.5595,-2.5249,-2.448,-2.2254,-2.0052,-1.9319,0.0,-1.4714,-1.42,-1.3259,-1.245,-1.2271,-1.1882,-1.1567,-1.1582,-1.1752,0.0,0.0,0.0,0.0,0.0,0.0,0.0,0.0,0.0,0.0,0.0,0.0,0.0,4.5381,4.5531,4.5586,4.5586,4.5586,4.5586,4.5586,4.5586,4.5699,4.5892,4.5902,4.6039,4.6308,4.6308,0.0,0.0,0.0,0.0,0.0,4.5738,4.5624,4.574,4.7163,4.7875,4.8298,4.9913,5.0745,5.1114,0.0,0.0,0.0,0.0,0.0,0.0,0.0,-1.9738,-2.1393,-2.3818,-2.3719,-2.4607,-2.7751,-2.5019,-2.2891,-2.2715,-2.0272,0.0,0.0,0.0,0.0,0.0,0.0,0.0,-1.6983,-1.7774,-1.8934,-2.0435,-2.0435,-2.0877,-2.1716,-2.1177,-2.0581,-1.99,-1.9061,-1.8042,0.0,0.0,0.0,0.0,0.0,0.0,-1.5189,0.0,0.0,0.0,0.0,0.0,0.0,0.0,0.0,0.0,0.0,0.0,0.0,0.0,-2.218,-2.3405,-2.3934,-2.4063,-2.3903,-2.3163,-2.1158,-1.9208,-1.8418,0.0,0.0,0.0,-1.2722,-1.205,-1.2047,-1.1737,-1.158,-1.1856,-1.1697,0.0,0.0,0.0,0.0,0.0,0.0,0.0,0.0,0.0,0.0,0.0,0.0,0.0,4.553,4.5586,4.5586,4.5586,4.5586,4.5586,4.5586,4.5643,4.5757,4.5892,4.5949,4.6096,4.6308,4.6308,0.0,0.0,0.0,0.0,0.0,4.5742,4.5643,4.5759,4.7451,4.8125,4.8412,5.0279,5.1037,5.1147,0.0,0.0,0.0,0.0,0.0,0.0,0.0,-1.9172,-2.0499,-2.1309,-2.1483,-2.2442,-2.4887,-2.2301,-2.0742,-2.1543,0.0,0.0,0.0,0.0,0.0,0.0,0.0,0.0,-1.8147,-1.8898,-2.052,-2.3062,-2.3071,-2.3561,-2.4456,-2.4456,-2.3533,-2.1831,-2.1023,-1.96,0.0,0.0,0.0,0.0,0.0,0.0,0.0,0.0,0.0,0.0,0.0,0.0,0.0,0.0,0.0,0.0,0.0,0.0,0.0,0.0,0.0,0.0,0.0,-2.2687,-2.3356,-2.2347,-2.0978,-1.952,-1.8337,0.0,0.0,0.0,0.0,0.0,0.0,-1.2167,-1.2196,-1.2902,-1.2493,0.0,0.0,1.5779,0.0,0.0,0.0,0.0,0.0,0.0,0.0,0.0,0.0,0.0,4.5547,4.5586,4.5586,4.5605,4.5605,4.5605,4.5605,4.5738,4.5834,4.593,4.6046,4.6177,4.6308,4.6308,0.0,0.0,0.0,0.0,0.0,4.5834,4.5719,4.5759,4.7451,4.8182,4.8527,5.0413,5.1145,5.1215,0.0,0.0,0.0,0.0,0.0,0.0,0.0,0.0,0.0,0.0,-1.876,-1.9305,-2.0572,-1.9404,-1.8648,0.0,0.0,0.0,0.0,0.0,0.0,0.0,0.0,0.0,-2.1655,-2.1894,-2.3211,-2.5717,-2.5751,-2.6524,-2.792,-2.792,-2.7024,-2.537,-2.4524,-2.21,0.0,0.0,0.0,0.0,0.0,0.0,0.0,0.0,0.0,0.0,-1.5679,-1.645,0.0,0.0,0.0,0.0,0.0,0.0,0.0,0.0,-1.9527,-1.958,-1.9911,0.0,-2.0316,-1.9649,-1.9256,-1.8632,0.0,0.0,0.0,0.0,0.0,0.0,0.0,0.0,0.0,-1.2887,0.0,-0.7301,0.8199,0.0,0.0,0.0,0.0,0.0,0.0,0.0,0.0,0.0,0.0,4.5051,4.5566,4.5586,4.5643,4.5757,4.5757,4.5757,4.5757,4.5776,4.5892,4.6046,4.6084,4.6177,4.6308,4.6308,0.0,0.0,0.0,0.0,4.5892,4.5834,4.5719,4.5759,4.7451,4.8182,4.8524,5.0422,5.1149,5.1215,0.0,0.0,0.0,0.0,0.0,0.0,0.0,0.0,0.0,0.0,0.0,-1.8033,-1.8501,-1.7825,0.0,0.0,0.0,0.0,0.0,0.0,0.0,0.0,0.0,-2.0752,-2.2944,-2.2924,-2.4326,-2.7238,-2.6852,-2.7701,-2.9698,-2.9294,-2.8409,-2.7063,-2.4255,-2.1504,0.0,0.0,0.0,0.0,0.0,0.0,0.0,0.0,0.0,0.0,-1.5506,-1.6328,0.0,-1.8124,-1.9027,-1.9842,0.0,0.0,0.0,0.0,-1.8836,-1.8635,-1.8491,-1.88,-1.9107,-1.878,-1.8788,-1.8482,-1.6962,0.0,0.0,0.0,0.0,0.0,0.0,0.0,0.0,0.0,-0.6032,0.0,0.0,0.0,0.0,0.0,0.0,0.0,0.0,0.0,0.0,0.0,0.0,4.5419,4.5586,4.5586,4.5643,4.5796,4.5796,4.5815,4.5853,4.5911,4.5988,4.6102,4.6162,4.6222,4.6308,4.6308,4.6308,0.0,0.0,0.0,4.5886,4.5841,4.5719,4.5759,4.7451,4.8221,4.8619,5.0433,5.1181,5.1298,0.0,0.0,0.0,0.0,0.0,0.0,0.0,0.0,0.0,0.0,0.0,0.0,0.0,0.0,0.0,0.0,0.0,0.0,0.0,0.0,0.0,0.0,-1.9991,-2.1835,-2.3849,-2.3776,-2.5234,-2.8377,-2.7845,-2.8702,-3.0775,-3.0294,-2.9352,-2.7871,-2.2908,-2.0139,0.0,0.0,0.0,0.0,-1.5189,0.0,0.0,0.0,0.0,0.0,0.0,0.0,0.0,-1.8104,-1.9166,-2.0165,-2.0184,0.0,0.0,0.0,0.0,0.0,-1.7649,-1.8359,-1.9072,-1.8633,-1.8903,-1.8917,-1.7374,0.0,0.0,0.0,0.0,0.0,0.0,-0.8098,0.0,0.0,0.0,0.0,3.5509,3.6293,0.0,0.0,0.0,0.0,0.0,0.0,0.0,0.0,0.0,4.5605,4.5586,4.5586,4.568,4.5815,4.5825,4.5863,4.595,4.6046,4.6114,4.6139,4.6255,4.6287,4.6273,4.6287,4.6289,0.0,0.0,0.0,4.5881,4.5838,4.5815,4.5951,4.7509,4.8336,4.889,5.0499,5.1224,5.1406,0.0,0.0,0.0,0.0,0.0,0.0,0.0,0.0,0.0,0.0,0.0,0.0,0.0,0.0,0.0,0.0,0.0,0.0,0.0,0.0,0.0,-2.0156,-2.1806,-2.4174,-2.7354,-2.741,-2.8272,-3.0111,-3.1441,-3.2251,-3.2545,-3.3891,-3.2506,-2.8717,-2.4351,-2.1543,-1.9927,-1.7388,-1.5868,-1.5189,-1.5189,0.0,0.0,0.0,0.0,0.0,0.0,0.0,0.0,-1.8194,-1.8678,-1.8655,-1.87,0.0,0.0,0.0,0.0,0.0,-1.8844,-1.9693,-1.9856,-1.7793,-1.8779,-1.9897,0.0,0.0,0.0,0.0,0.0,0.0,0.0,-0.9773,-0.9125,0.0,0.0,0.0,0.0,0.0,0.0,0.0,0.0,0.0,0.0,0.0,0.0,0.0,0.0,0.0,4.5605,4.5586,4.5699,4.5873,4.588,4.599,4.6236,4.6142,4.6145,4.6273,4.6287,4.6245,4.6134,4.624,4.623,0.0,0.0,4.6009,4.5881,4.5838,4.6163,4.6797,4.774,4.872,4.9717,5.0744,5.1224,5.1406,0.0,0.0,0.0,0.0,0.0,0.0,0.0,0.0,0.0,0.0,0.0,0.0,0.0,0.0,0.0,0.0,0.0,0.0,0.0,0.0,-1.9349,-2.1211,-2.3357,-2.5677,-2.8196,-2.8676,-3.0115,-3.261,-3.3369,-3.4167,-3.493,-3.393,-3.166,-2.8313,-2.4976,-2.2312,-2.0158,-1.8042,-1.6388,-1.5189,0.0,0.0,0.0,0.0,0.0,0.0,0.0,0.0,0.0,0.0,-1.8418,-1.892,-1.8768,0.0,0.0,0.0,0.0,0.0,-1.8965,-1.9554,-1.9896,-1.9621,-2.1386,0.0,0.0,0.0,0.0,0.0,0.0,0.0,0.0,0.0,0.1259,2.1564,0.0,0.0,0.0,0.0,0.0,0.0,0.0,0.0,0.0,0.0,0.0,0.0,0.0,0.0,4.5719,4.5624,4.5699,4.5892,4.5891,4.6024,4.6302,4.6244,4.6245,4.6308,4.6308,4.627,4.6197,4.626,4.6222,4.6095,0.0,4.6008,4.5847,4.5822,4.622,4.699,4.7874,4.8873,4.9907,5.0903,5.1313,5.1406,0.0,0.0,0.0,0.0,0.0,0.0,0.0,0.0,0.0,0.0,0.0,0.0,0.0,0.0,0.0,0.0,0.0,0.0,0.0,-1.7339,-1.9423,-2.1484,-2.4414,-2.6914,-2.8867,-2.9898,-3.1741,-3.4452,-3.4781,-3.5336,-3.6045,-3.3083,-3.0333,-2.7813,-2.5649,-2.3158,-2.0465,-1.8734,-1.7042,-1.5484,0.0,0.0,0.0,0.0,0.0,0.0,0.0,0.0,0.0,0.0,0.0,0.0,0.0,0.0,0.0,-1.8818,-1.8503,-1.8662,-1.9399,-1.9956,-2.0789,-2.2852,0.0,0.0,0.0,0.0,0.0,0.0,0.0,0.0,0.0,0.493,0.0,3.4389,0.0,0.0,0.0,0.0,0.0,0.0,0.0,0.0,0.0,0.0,0.0,0.0,0.0,0.0,4.5815,4.5738,4.5757,4.595,4.5951,4.6052,4.6308,4.6308,4.6308,4.6308,4.6308,4.6268,4.6217,4.6229,4.6174,4.6031,4.6042,4.595,4.5796,4.5776,4.6317,4.7259,4.8008,4.9047,5.0231,5.1089,5.1406,5.1406,0.0,0.0,0.0,0.0,0.0,0.0,0.0,0.0,0.0,0.0,0.0,0.0,0.0,0.0,0.0,0.0,0.0,0.0,0.0,-1.8455,-2.0402,-2.0594,-2.4647,-2.8105,-3.0664,-3.2285,-3.3609,-3.4599,-3.6086,-3.5979,-3.4334,-3.2545,-3.0333,-2.7852,-2.6851,-2.4562,-2.1293,-1.9612,-1.7939,-1.633,-1.5541,0.0,0.0,0.0,0.0,0.0,0.0,0.0,0.0,0.0,0.0,0.0,0.0,0.0,-1.9551,-1.8112,-1.8459,-1.9615,-2.1029,-2.22,-2.386,-2.74,0.0,0.0,0.0,0.0,0.0,0.0,0.0,0.0,0.0,1.8566,3.0615,0.0,0.0,0.0,0.0,0.0,0.0,0.0,0.0,0.0,0.0,0.0,0.0,0.0,0.0,0.0,4.5888,4.5873,0.0,4.6084,4.608,4.6147,4.6308,4.6308,4.6308,4.6308,4.6308,4.6173,4.5935,4.6061,4.602,4.5815,4.5835,4.5815,4.5796,4.568,4.6547,4.8029,4.822,4.9451,5.112,5.1318,5.1406,5.1406,0.0,0.0,0.0,0.0,0.0,0.0,0.0,0.0,0.0,0.0,0.0,0.0,0.0,0.0,0.0,0.0,0.0,0.0,0.0,-1.8056,-2.0185,-2.1258,-2.4432,-2.7676,-3.082,-3.2539,-3.4565,-3.695,-3.7527,-3.6869,-3.5032,-3.28,-3.0383,-2.789,-2.7563,-2.5216,-2.1427,-2.0285,-1.8542,-1.6426,-1.5561,-1.5189,0.0,0.0,0.0,0.0,0.0,0.0,0.0,0.0,-1.667,-1.7396,-1.6821,-1.7981,-1.9357,-1.8378,-1.898,-2.0327,-2.1961,-2.3093,0.0,-2.7657,0.0,0.0,0.0,0.0,0.0,0.0,0.0,0.0,0.0,0.0,0.0,0.0,0.0,0.0,0.0,0.0,0.0,0.0,0.0,0.0,0.0,0.0,0.0,0.0,0.0,0.0,0.0,0.0,0.0,4.6102,4.6103,4.6162,4.6308,4.6308,4.6308,4.6308,4.6227,4.6123,4.6018,4.5995,4.5905,4.5808,4.5808,4.5757,4.568,4.5605,4.6642,4.8355,4.9605,5.0593,5.133,5.1381,5.1406,5.1406,0.0,0.0,0.0,0.0,0.0,0.0,0.0,0.0,0.0,0.0,0.0,0.0,0.0,0.0,0.0,0.0,0.0,0.0,-1.5652,-1.8123,-2.024,-2.1696,-2.427,-2.705,-3.0019,-3.1738,-3.4255,-3.763,-3.7308,-3.618,-3.4352,-3.2048,-3.0017,-2.829,-2.7738,0.0,-2.2281,-2.1155,-1.9215,-1.683,-1.6234,-1.5676,0.0,0.0,0.0,0.0,0.0,0.0,0.0,0.0,-1.6235,-1.7115,-1.668,-1.7795,-1.9213,-1.8911,-2.0023,-2.1685,-2.3054,-2.4355,0.0,0.0,0.0,0.0,0.0,0.0,0.0,0.0,0.0,0.0,0.0,0.0,0.0,0.0,0.0,0.0,0.0,0.0,0.0,0.0,0.0,0.0,0.0,0.0,0.0,0.0,0.0,0.0,0.0,0.0,0.0,0.0,4.6162,4.6216,4.6308,4.6308,4.6308,4.6308,4.6124,4.6044,4.6026,4.595,4.5834,4.5738,4.5738,4.568,4.5586,4.5586,4.6689,4.8555,5.0469,5.1272,5.1406,5.1406,5.1406,5.1406,0.0,0.0,0.0,0.0,0.0,0.0,0.0,0.0,-1.5189,-1.5189,-1.5189,0.0,0.0,0.0,0.0,0.0,0.0,0.0,-1.6445,-1.8954,-2.0799,-2.1655,-2.4205,-2.6435,-2.8242,-3.0,-3.2578,-3.5996,-3.5068,-3.3634,-3.1757,-3.0023,-2.9209,0.0,0.0,0.0,-2.4058,-2.2262,-2.0042,-1.7702,-1.7702,-1.6696,-1.5311,0.0,0.0,0.0,0.0,0.0,0.0,0.0,-1.6484,-1.672,-1.7975,-1.865,-1.9081,-1.9557,-2.1582,-2.3827,-2.4424,-2.6266,0.0,0.0,0.0,0.0,0.0,0.0,0.0,0.0,0.0,0.0,0.0,0.0,0.0,0.0,0.0,0.0,0.0,0.0,0.0,0.0,0.0,0.0,0.0,0.0,0.0,0.0,0.0,0.0,0.0,0.0,0.0,0.0,4.6308,4.6308,4.6308,4.6308,4.6308,4.6308,4.6033,4.5891,4.5892,4.5892,4.5796,4.5586,4.5586,4.5586,4.5586,4.5605,4.6762,4.8691,5.0494,5.1284,5.1406,5.1406,5.1406,5.1406,0.0,0.0,0.0,0.0,0.0,0.0,0.0,0.0,-1.5189,-1.5189,-1.5189,0.0,0.0,0.0,0.0,0.0,0.0,0.0,-1.6484,-1.895,-2.0763,-2.159,-2.3647,-2.5537,-2.7202,-2.9591,-3.2223,-3.5098,-3.4804,-3.3734,-3.1919,-3.0789,0.0,-2.8405,0.0,0.0,-2.3286,-2.2119,-2.0522,-1.8692,-1.8033,-1.7103,-1.6131,0.0,0.0,0.0,0.0,0.0,0.0,0.0,0.0,0.0,-1.6218,-1.7454,-1.8915,-1.8486,-2.0626,-2.333,-2.4213,-2.5734,0.0,-2.9128,0.0,0.0,0.0,0.0,0.0,0.0,0.0,0.0,0.0,0.0,0.0,0.0,0.0,0.0,0.0,0.0,0.0,0.0,0.0,0.0,0.0,0.0,0.0,0.0,0.0,0.0,0.0,0.0,0.0,0.0,4.6308,4.6308,4.6308,4.6308,4.6308,4.6308,4.6228,4.6076,4.5894,4.5754,4.5643,4.5586,4.5586,4.5586,4.5719,4.7082,4.8338,4.9534,5.0849,5.1363,5.1406,5.1406,5.1406,5.1406,0.0,0.0,0.0,0.0,0.0,0.0,-1.5189,-1.5189,-1.5189,-1.5189,-1.5189,-1.5189,0.0,0.0,0.0,-1.5715,-1.6195,-1.6772,-1.7446,-1.8966,-2.0366,-2.1551,-2.3022,-2.4592,-2.6295,-2.8583,-3.0558,-3.2168,-3.3203,-3.2771,-3.1008,-3.0813,0.0,-2.8641,0.0,-2.6597,-2.3952,-2.2723,-2.1235,-1.9659,-1.9401,-1.8605,-1.7525,0.0,0.0,0.0,0.0,0.0,0.0,0.0,0.0,0.0,-1.6157,-1.7266,-1.8678,-1.9406,-2.1699,-2.4277,-2.5686,-2.7167,0.0,-2.943,-3.0044,-2.9558,-2.6385,0.0,0.0,0.0,0.0,0.0,0.0,0.0,0.0,0.0,0.0,0.0,0.0,0.0,0.0,0.0,0.0,0.0,0.0,0.0,0.0,0.0,0.0,0.0,0.0,0.0,0.0,0.0,4.6308,4.6308,4.6308,4.624,4.624,4.6308,4.6188,4.6053,4.589,4.5776,4.568,4.5586,4.5586,4.5834,4.6333,4.7871,4.9042,4.9978,5.0995,5.1406,5.1406,5.1406,5.1406,5.1406,0.0,0.0,0.0,0.0,0.0,0.0,-1.5189,-1.5189,-1.5189,-1.5189,-1.5189,-1.5228,0.0,0.0,0.0,-1.6599,-1.6676,-1.735,-1.8785,-1.903,-1.9838,-2.1417,-2.2391,-2.3669,-2.5332,-2.7067,-2.7975,-2.8046,-3.0683,-3.1071,-2.9411,0.0,-3.0235,-2.935,0.0,-2.7066,-2.5375,-2.3641,-2.1948,-2.0471,-2.1216,-2.0496,-1.8979,-1.8924,0.0,0.0,0.0,0.0,0.0,0.0,0.0,0.0,-1.6991,-1.7624,-1.8347,-2.1165,-2.3651,-2.5883,-2.7661,0.0,0.0,-3.0594,-3.0063,0.0,-2.777,-2.4873,-2.0731,-1.4292,0.0,0.0,0.0,0.0,0.0,0.0,0.0,0.0,0.0,0.0,0.0,0.0,0.0,0.0,0.0,0.0,0.0,0.0,0.0,0.0,0.0,0.0,0.0,4.6308,4.6308,4.6289,4.6284,4.615,4.615,0.0,4.6026,4.5896,4.5901,4.5896,4.5776,4.5586,4.5586,4.62,4.7274,4.8139,4.9139,5.0204,5.1069,5.1406,5.1406,5.1406,5.1406,5.1406,0.0,0.0,0.0,0.0,0.0,0.0,-1.5189,-1.5189,-1.5189,-1.5189,-1.5189,-1.5465,-1.6157,-1.6388,0.0,-1.7388,-1.8068,-1.8318,-1.8003,-1.9265,-2.0186,-2.0561,-2.2026,-2.3056,-2.3556,-2.5212,-2.6096,-2.6104,-2.8824,-2.9609,0.0,0.0,0.0,-2.8514,0.0,-2.6287,0.0,-2.2849,-2.154,-2.0562,-2.0694,-1.9709,-1.815,-1.8142,-1.7064,0.0,0.0,0.0,0.0,0.0,0.0,0.0,-1.5636,-1.6657,-1.7868,-1.864,-2.1623,-2.4658,0.0,-2.6132,0.0,0.0,-2.6662,-2.5428,-2.5555,-2.3224,-1.9545,0.0,0.0,0.0,0.0,0.0,0.0,0.0,0.0,0.0,0.0,0.0,0.0,0.0,0.0,0.0,0.0,0.0,0.0,0.0,0.0,0.0,0.0,0.0,0.0,4.6308,4.6308,4.6245,4.6137,4.6108,4.607,0.0,4.5922,4.5866,4.5812,4.5811,4.5738,4.5586,4.5586,4.6527,4.8081,4.838,4.947,5.0985,5.1279,5.1406,5.1406,5.1406,5.1406,5.1406,0.0,0.0,0.0,0.0,0.0,0.0,0.0,0.0,-1.583,-1.583,-1.6157,-1.6426,-1.6484,-1.7221,0.0,0.0,-1.8126,-1.8357,-1.8318,-1.8783,-1.9419,-2.0254,-2.1504,-2.2226,-2.2328,-2.3592,-2.4268,-2.43,-2.6161,-2.7247,0.0,0.0,0.0,-2.7006,0.0,-2.5994,0.0,-2.2617,-2.1875,-2.1777,-2.0866,-1.9959,-1.9101,-1.8653,-1.7412,-1.5917,-1.5913,0.0,0.0,0.0,0.0,0.0,0.0,0.0,-1.798,-1.9175,-2.1364,-2.3669,0.0,0.0,0.0,-2.6675,0.0,-2.4151,-2.4507,-2.2503,-1.8888,0.0,0.0,0.0,0.0,0.0,0.0,0.0,0.0,0.0,0.0,0.0,0.0,0.0,0.0,0.0,0.0,0.0,0.0,0.0,0.0,0.0,0.0,4.6208,4.6176,4.6113,4.6113,4.6111,4.6102,4.6007,4.5969,4.5988,4.5476,4.5225,4.518,4.5545,4.568,4.5586,4.568,4.6718,4.8426,4.8551,4.9664,5.1298,5.1372,5.1406,5.1406,5.1406,5.1406,5.1406,0.0,0.0,0.0,0.0,0.0,0.0,0.0,0.0,0.0,-1.6503,-1.7196,-1.7503,-1.6984,-1.8049,-1.8549,0.0,0.0,0.0,-1.853,-1.7895,-1.8196,-1.9773,-2.0639,-2.1012,-2.0927,-2.2088,-2.2621,-2.2537,-2.3553,-2.4837,0.0,0.0,0.0,-2.54,0.0,0.0,0.0,0.0,-2.2069,-2.2597,-2.1107,-2.0419,-2.0184,-1.9431,-1.817,-1.6826,-1.6836,-1.6366,-1.5735,-1.5599,0.0,0.0,0.0,0.0,-1.8208,-2.0147,-2.1546,0.0,0.0,0.0,-2.5108,-2.5824,-2.4751,0.0,-2.3648,-2.1596,0.0,0.0,0.0,0.0,0.0,0.0,0.0,0.0,0.0,0.0,0.0,0.0,0.0,0.0,0.0,0.0,0.0,0.0,0.0,0.0,0.0,0.0,4.6059,4.5924,4.5804,4.5705,4.5696,4.568,4.5622,4.5738,4.5738,4.5565,4.4814,4.4545,4.4699,4.5334,4.5586,4.5605,4.5911,4.6962,4.8527,4.8808,4.9906,5.1406,5.1406,5.1406,5.1387,5.123,5.1191,5.1191,0.0,0.0,0.0,0.0,0.0,0.0,0.0,0.0,0.0,0.0,-1.7196,-1.7953,-1.8607,-1.8184,-1.8126,-1.8761,-1.8145,-1.7446,-1.6869,0.0,0.0,-1.8003,-1.8876,-1.898,-1.8242,-2.0547,-2.1404,-2.0665,-2.2282,0.0,0.0,0.0,0.0,0.0,0.0,0.0,0.0,0.0,0.0,0.0,-2.0594,-2.0048,-1.9366,-1.9297,-1.8632,-1.7734,-1.7792,-1.771,-1.7444,-1.676,-1.6503,0.0,0.0,0.0,0.0,-1.8251,0.0,0.0,0.0,0.0,-2.5094,0.0,-2.2498,-2.154,0.0,0.0,0.0,0.0,0.0,0.0,0.0,0.0,0.0,0.0,0.0,0.0,0.0,0.0,0.0,0.0,0.0,0.0,0.0,0.0,0.0,0.0,0.0,0.0,4.593,4.5269,4.4906,4.4958,4.4884,4.4501,4.3775,4.5122,4.5045,4.3508,4.4047,4.472,4.5468,4.5547,4.5586,4.5643,4.6544,4.7521,4.8564,4.9459,5.045,5.1406,5.1406,5.1406,5.1328,5.0625,5.0351,5.0351,0.0,0.0,0.0,0.0,0.0,0.0,0.0,0.0,0.0,0.0,0.0,-1.9119,-1.9011,-1.8665,-1.8395,-1.828,-1.751,-1.6869,-1.6522,-1.6503,-1.6849,-1.7664,-1.8068,-1.8087,-1.7722,-1.9303,-1.9959,-1.9561,-2.127,0.0,0.0,-2.3441,-2.3719,0.0,0.0,0.0,0.0,0.0,0.0,0.0,0.0,0.0,0.0,0.0,0.0,0.0,-1.8727,-1.8309,-1.785,-1.7499,-1.7362,-1.7311,-1.6923,0.0,0.0,0.0,0.0,0.0,-2.2217,-2.3127,-2.3746,0.0,-2.1512,-2.0325,-1.9093,0.0,0.0,0.0,0.0,0.0,0.0,0.0,0.0,0.0,0.0,0.0,0.0,0.0,0.0,0.0,0.0,0.0,0.0,0.0,0.0,0.0,0.0,4.5183,4.5125,4.4774,4.4352,4.3874,4.4259,4.4105,4.3297,4.3951,4.3643,4.2393,4.3682,4.4259,4.4201,4.4662,4.5182,4.5776,4.6737,4.77,4.8684,4.9702,5.0367,5.0723,5.0723,5.0683,5.052,4.9751,4.9726,5.0098,0.0,0.0,0.0,0.0,0.0,0.0,0.0,0.0,0.0,0.0,0.0,-2.0042,-1.9396,0.0,0.0,0.0,-1.6965,-1.6407,-1.6176,-1.6176,-1.6445,-1.7042,-1.7273,-1.7285,-1.7015,-1.8105,-1.8636,-1.8578,0.0,0.0,-2.1713,-2.2212,-2.2658,0.0,-2.2631,0.0,0.0,0.0,0.0,0.0,0.0,0.0,0.0,0.0,0.0,0.0,-2.0292,-1.9594,-1.8893,-1.8569,-1.8344,-1.8184,-1.8027,-1.8532,0.0,0.0,0.0,0.0,0.0,0.0,-2.25,-2.1453,-2.0041,-1.8359,0.0,0.0,0.0,0.0,0.0,0.0,0.0,0.0,0.0,0.0,0.0,0.0,0.0,0.0,0.0,0.0,0.0,0.0,0.0,0.0,0.0,0.0,0.0,4.4254,4.4141,4.3929,4.3508,4.2838,4.3374,4.3316,4.2585,4.2489,4.2335,4.2162,4.3393,4.3682,4.3124,4.3932,4.4757,4.5582,4.6719,4.7796,4.8786,4.9971,5.0455,5.0421,5.0198,5.0038,4.983,4.8838,4.8818,4.9307,0.0,0.0,0.0,0.0,0.0,0.0,0.0,0.0,0.0,0.0,0.0,-2.0292,-2.0235,-1.9492,-1.8645,-1.7779,-1.6965,-1.6157,-1.5324,-1.5266,-1.5285,-1.5324,-1.6118,0.0,-1.5155,-1.6874,-1.7646,0.0,0.0,0.0,-2.2256,-2.2293,-2.2728,-2.3402,-2.1947,-2.0842,-2.0098,0.0,0.0,0.0,0.0,0.0,0.0,0.0,0.0,0.0,0.0,0.0,-2.1598,-2.0388,-1.956,-1.8919,-1.8135,-1.8498,-1.9207,0.0,0.0,0.0,0.0,-2.1885,0.0,-2.0043,-1.7174,0.0,0.0,0.0,0.0,0.0,0.0,0.0,0.0,0.0,0.0,0.0,0.0,0.0,0.0,0.0,0.0,0.0,0.0,0.0,0.0,0.0,0.0,0.0,0.0,4.3181,4.3162,4.2393,4.1973,4.2055,4.1973,4.1585,4.085,4.0716,4.1431,4.3028,4.3124,4.3143,4.3124,4.3932,4.4468,4.4845,4.6566,4.783,4.8831,5.0469,5.1143,5.1063,5.0156,4.9818,4.9615,4.7905,4.7307,4.7345,0.0,0.0,0.0,0.0,0.0,0.0,0.0,0.0,0.0,0.0,0.0,0.0,0.0,-1.9523,-1.8839,-1.8442,-1.7077,-1.5918,-1.5113,-1.5038,-1.503,-1.5075,-1.5323,-1.5296,-1.4944,-1.6084,0.0,0.0,0.0,-1.8875,-2.0769,-2.0633,-2.1065,-2.1954,-2.1916,-2.1448,-2.0615,-2.0096,0.0,0.0,0.0,0.0,0.0,0.0,0.0,0.0,0.0,0.0,0.0,-2.1797,-2.0925,-2.0146,-1.9551,-1.9689,-2.0043,0.0,0.0,0.0,0.0,0.0,0.0,-2.0596,-1.7929,-1.4933,0.0,0.0,0.0,0.0,0.0,0.0,0.0,0.0,0.0,0.0,0.0,0.0,0.0,0.0,0.0,0.0,0.0,0.0,0.0,0.0,0.0,0.0,0.0,0.0,4.2223,4.197,4.1585,4.105,4.153,4.1393,4.0581,4.0508,4.0796,4.1431,4.2008,4.2277,4.2277,4.2566,4.3717,4.5571,4.6191,4.7357,4.8919,5.0082,5.0184,4.9505,4.8613,4.8155,4.7874,4.6771,4.667,4.7081,0.0,0.0,0.0,0.0,0.0,0.0,0.0,0.0,0.0,0.0,0.0,0.0,0.0,0.0,-1.9265,-1.8839,-1.7425,-1.6232,-1.5421,-1.5335,-1.5194,-1.4973,-1.4928,-1.4886,-1.4832,-1.5111,0.0,0.0,0.0,0.0,0.0,-1.9173,-1.975,-2.0899,-2.118,-2.1006,0.0,0.0,0.0,-2.0201,0.0,0.0,-2.4374,0.0,0.0,0.0,0.0,0.0,0.0,0.0,0.0,0.0,0.0,0.0,0.0,0.0,0.0,0.0,-1.9931,0.0,0.0,0.0,0.0,-1.5326,0.0,0.0,0.0,0.0,0.0,0.0,0.0,0.0,0.0,0.0,0.0,0.0,0.0,0.0,0.0,0.0,0.0,0.0,0.0,0.0,0.0,0.0,0.0,0.0,4.0934,4.1219,4.1104,4.0508,4.1066,4.1085,4.0508,4.0489,4.0489,4.0508,4.1373,4.1662,4.1373,4.1681,4.3022,4.5144,4.5444,4.6996,4.9375,4.9902,4.9717,4.8948,4.773,4.7142,4.6874,4.6103,4.6105,4.6528,0.0,0.0,0.0,0.0,0.0,0.0,0.0,0.0,0.0,0.0,0.0,0.0,0.0,0.0,0.0,-1.8925,-1.804,-1.7121,-1.6196,-1.6102,-1.5753,-1.4952,-1.4895,-1.4822,-1.4707,0.0,0.0,0.0,0.0,0.0,0.0,0.0,-1.8852,0.0,-1.9586,-1.9357,-1.9532,0.0,-1.997,-2.0657,0.0,-2.3195,-2.342,0.0,0.0,0.0,-2.5429,-2.5343,0.0,-2.4225,0.0,0.0,0.0,0.0,0.0,0.0,0.0,0.0,0.0,0.0,0.0,0.0,0.0,0.0,0.0,0.0,0.0,0.0,0.0,0.0,0.0,0.0,0.0,0.0,0.0,0.0,0.0,0.0,0.0,0.0,0.0,0.0,0.0,0.0,0.0,0.0,0.0,3.9793,3.9335,4.0046,4.0489,4.0489,4.0489,4.0489,4.0489,4.0489,4.0489,4.0508,4.1354,4.1316,4.0527,4.1412,4.2406,4.3485,4.4365,4.6801,5.0156,4.998,4.9859,4.9547,4.7693,4.6932,4.6759,4.5913,4.5586,4.5586,0.0,0.0,0.0,0.0,0.0,-2.0066,-2.0713,-2.099,-2.145,0.0,0.0,0.0,0.0,0.0,0.0,-1.9811,-1.8849,-1.7926,-1.7036,-1.6334,-1.586,-1.5633,-1.4961,-1.46,-1.4556,-1.436,0.0,0.0,0.0,0.0,0.0,0.0,0.0,0.0,-1.795,-1.8129,-1.8153,-1.9429,0.0,0.0,-2.2785,-2.3846,0.0,0.0,0.0,0.0,0.0,-2.6462,-2.5821,0.0,-2.3819,-2.2659,0.0,0.0,0.0,0.0,0.0,0.0,-1.9351,0.0,0.0,0.0,0.0,0.0,0.0,0.0,0.0,0.0,0.0,0.0,0.0,0.0,0.0,0.0,0.0,0.0,0.0,0.0,0.0,0.0,0.0,0.0,0.0,0.0,0.0,0.0,3.7274,3.7919,3.9238,4.0046,4.0489,4.0489,4.0489,4.0489,4.0489,4.0489,4.0489,4.0489,4.0739,4.0719,4.0527,4.1501,4.2822,4.4388,4.5316,4.7053,4.9219,4.8535,4.8182,4.7943,4.6693,4.6161,4.6047,4.572,4.5586,4.5586,0.0,0.0,-1.9442,-1.932,-2.0094,-2.0789,-2.0947,-2.187,-2.2691,0.0,0.0,0.0,0.0,0.0,0.0,0.0,-2.0127,-1.9209,-1.8211,-1.7312,-1.6522,-1.5862,-1.5299,-1.4848,-1.4506,-1.4082,0.0,0.0,0.0,0.0,0.0,0.0,0.0,0.0,0.0,0.0,0.0,0.0,0.0,0.0,-2.3192,0.0,0.0,-2.6536,-2.7063,0.0,0.0,0.0,-2.562,-2.4462,-2.3054,0.0,0.0,0.0,0.0,0.0,0.0,0.0,0.0,0.0,0.0,0.0,0.0,0.0,0.0,0.0,0.0,0.0,0.0,0.0,0.0,0.0,0.0,0.0,0.0,0.0,0.0,0.0,0.0,0.0,0.0,0.0,0.0,0.0,0.0,3.6441,3.6663,3.7536,3.9219,3.9738,4.0142,4.0489,4.0489,4.0489,4.0489,4.0489,4.0489,4.0489,4.0489,4.0489,4.0527,4.1466,4.2714,4.4136,4.5092,4.6318,4.7604,4.7158,4.7111,4.7221,4.6253,4.5796,4.5719,4.5624,4.5586,4.5586,0.0,0.0,-1.9326,-1.9418,-2.0847,-2.1807,-2.1295,-2.3169,-2.4475,0.0,0.0,0.0,0.0,0.0,0.0,0.0,-2.1585,-2.0714,-1.9549,-1.8713,-1.7592,-1.6022,-1.5802,-1.5362,-1.4664,-1.3665,-1.3509,0.0,0.0,0.0,0.0,0.0,0.0,0.0,-1.6217,-1.71,0.0,0.0,0.0,-2.2277,-2.3687,-2.4636,0.0,0.0,-2.626,0.0,-2.5218,-2.5232,-2.4883,-2.3446,-2.1944,0.0,0.0,0.0,0.0,0.0,-1.7867,0.0,0.0,0.0,0.0,0.0,0.0,0.0,0.0,0.0,0.0,0.0,0.0,0.0,0.0,0.0,0.0,0.0,0.0,0.0,0.0,0.0,0.0,0.0,0.0,0.0,0.0,3.7627,3.7211,3.6695,3.7113,3.7879,3.895,3.9181,3.9623,4.0335,4.045,4.0489,4.0489,4.0489,4.0489,4.0489,4.0489,4.0489,4.0527,4.1508,4.2416,4.3269,4.4365,4.5248,4.59,4.6032,4.6462,4.6969,4.6117,4.5738,4.5605,4.5605,4.5586,4.5586,-1.9305,-1.9305,-1.9491,-2.0152,-2.114,-2.229,-2.3584,-2.4077,-2.4817,0.0,0.0,0.0,0.0,0.0,0.0,0.0,0.0,-2.1558,-2.0577,-1.9746,-1.8804,-1.7674,-1.639,-1.5619,-1.5472,-1.4629,-1.4199,-1.4188,0.0,0.0,0.0,0.0,0.0,0.0,0.0,0.0,0.0,0.0,0.0,-2.3138,-2.4181,0.0,-2.544,-2.5511,-2.549,-2.5386,-2.5364,-2.5031,-2.4321,0.0,-2.1121,-1.9549,0.0,0.0,0.0,0.0,0.0,0.0,0.0,0.0,0.0,0.0,0.0,0.0,0.0,0.0,0.0,0.0,0.0,0.0,0.0,0.0,0.0,0.0,0.0,0.0,0.0,0.0,0.0,0.0,0.0,0.0,0.0,3.7179,3.6715,3.6411,3.6661,3.6964,3.7199,3.8546,3.9373,3.9527,4.0162,4.0489,4.0489,4.0489,4.0489,4.0489,4.0489,4.0489,4.0546,4.2178,4.3038,4.33,4.4947,4.5751,4.59,4.5877,4.5982,4.6124,4.5888,4.5776,4.5757,4.5624,4.5586,4.5586,-1.9305,-1.9305,-1.9546,-2.0356,-2.1877,-2.3309,-2.421,-2.5278,-2.6366,0.0,0.0,0.0,0.0,0.0,0.0,0.0,0.0,0.0,-2.2282,-2.0759,-1.9417,-1.8355,-1.7167,-1.6175,-1.5378,-1.4884,-1.4407,-1.3913,0.0,0.0,0.0,0.0,0.0,0.0,0.0,0.0,0.0,0.0,-2.2343,-2.3973,-2.4173,0.0,-2.5682,-2.5118,-2.4778,-2.4543,-2.4292,-2.3454,-2.2283,-2.1008,-1.9948,0.0,0.0,-1.6961,-1.5899,0.0,-1.4377,-1.3319,0.0,0.0,0.0,-1.0093,0.0,0.0,0.0,0.0,0.0,0.0,0.0,0.0,0.0,0.0,0.0,0.0,0.0,0.0,0.0,0.0,0.0,0.0,0.0,0.0,0.0,3.7775,3.7098,3.6546,3.6622,3.6699,3.6699,3.795,3.8854,3.9277,4.0065,4.0489,4.0489,4.0489,4.0489,4.0489,4.0489,4.0719,4.1181,4.2544,4.3371,4.3835,4.524,4.5816,4.5744,4.5783,4.5776,4.5757,4.5719,4.5699,4.5699,4.5605,4.5586,4.5586,-1.9243,-1.9274,-1.9601,-2.0592,-2.2538,-2.4061,-2.4373,-2.6209,-2.7677,0.0,0.0,0.0,0.0,0.0,0.0,0.0,0.0,0.0,0.0,-2.2539,-2.0929,-1.9861,-1.8545,-1.7294,-1.613,-1.5227,-1.4482,-1.3872,0.0,0.0,0.0,0.0,0.0,0.0,0.0,0.0,0.0,0.0,0.0,-2.4246,0.0,-2.4864,-2.6614,-2.5486,-2.4677,-2.3963,-2.3065,-2.1842,-2.0407,-1.938,0.0,-1.8903,-1.7549,-1.6084,0.0,0.0,0.0,0.0,0.0,0.0,0.0,0.0,0.0,-0.1203,0.0,0.0,0.0,0.0,0.0,0.0,0.0,0.0,0.0,0.0,0.0,0.0,0.0,0.0,0.0,0.0,0.0,0.0,0.0,3.8638,3.808,3.7026,3.7137,3.7079,3.6719,3.7373,3.8142,3.9008,3.9835,4.0335,4.0489,4.0489,4.0489,4.0489,4.0489,4.095,4.1835,4.2701,4.3547,4.4355,4.5353,4.5699,4.5605,4.5719,4.5699,4.5586,4.5586,4.5586,4.5586,4.5586,4.5586,4.5586,-1.9069,-1.9182,-1.9801,-2.138,-2.2483,-2.3621,-2.5054,-2.6098,-2.7255,0.0,0.0,0.0,0.0,0.0,0.0,0.0,0.0,0.0,-2.7203,0.0,-2.5428,-2.4559,-2.1188,-1.9577,-2.0043,-1.655,-1.474,-1.4828,0.0,0.0,0.0,0.0,0.0,0.0,-1.736,0.0,0.0,0.0,-2.2888,0.0,-2.3169,-2.5625,0.0,-2.721,-2.6207,-2.5512,-2.2914,-2.1424,-2.044,0.0,-1.9105,-1.8889,0.0,-1.549,-1.4744,0.0,0.0,0.0,0.0,0.0,0.0,0.0,0.0793,0.0,0.0,0.0,0.0,0.0,0.0,0.0,0.0,0.0,0.0,0.0,0.0,0.0,0.0,0.0,0.0,0.0,0.0,0.0,0.0,0.0,3.9682,3.7969,3.8681,3.8464,3.6796,3.6796,3.7257,3.8123,3.8988,3.9777,4.0489,4.0489,4.0489,4.0489,4.0489,4.095,4.1835,4.2701,4.3547,4.4355,4.524,4.5605,4.5586,4.5605,4.5605,4.5586,4.5586,4.5586,4.5586,4.5586,4.5586,4.5586,-1.9198,-1.915,-1.9694,-2.1493,-2.2356,-2.3504,-2.5748,-2.8374,-3.0173,0.0,0.0,0.0,0.0,0.0,0.0,0.0,0.0,-2.8811,0.0,0.0,0.0,-2.4248,-2.1842,-1.9949,-1.8761,-1.6648,-1.5318,-1.4788,-1.39,0.0,0.0,0.0,0.0,0.0,-1.7988,0.0,-2.0929,0.0,-2.422,0.0,0.0,0.0,0.0,-2.5444,-2.3491,-2.2731,-2.1586,-2.0726,-2.0062,0.0,-1.8629,0.0,0.0,0.0,0.0,0.0,0.0,0.0,0.0,0.0,0.0,0.0,0.0,0.0,0.8089,0.0,1.1319,0.0,0.0,0.0,0.0,0.0,0.0,0.0,0.0,0.0,0.0,0.0,0.0,0.0,0.0,0.0,0.0,0.0,0.0,0.0,0.0,3.9721,3.6853,3.718,3.7623,3.7988,3.8854,3.9681,4.0489,4.0489,4.0489,4.0489,4.0489,4.1219,4.2566,4.2931,4.3816,4.5066,4.5432,4.5586,4.5586,4.5586,4.5586,4.5586,4.5586,4.5586,4.5586,4.5586,4.5586,4.5586,-1.9188,0.0,-1.9661,-2.1475,-2.23,-2.3666,-2.6499,-2.9971,0.0,0.0,0.0,0.0,-3.252,-3.1719,0.0,0.0,-3.1245,-3.0473,0.0,0.0,-2.7112,-2.5614,-2.3321,0.0,-1.935,-1.7396,-1.5947,-1.503,-1.4177,0.0,0.0,0.0,0.0,0.0,0.0,-1.9432,-2.1313,0.0,0.0,-2.5605,-2.7142,-2.7892,-2.7708,-2.3989,-2.1702,-2.0371,-2.0014,-1.9621,-1.9221,-1.8317,-1.7958,0.0,-1.6613,0.0,0.0,0.0,0.0,0.0,-0.4946,0.0,0.0,0.0,0.0,0.0,0.0,0.0,0.0,0.0,0.0,0.0,0.0,0.0,0.0,0.0,0.0,0.0,0.0,0.0,0.0,0.0,0.0,0.0,0.0,0.0,0.0,0.0,0.0,0.0,3.7584,3.7565,3.7757,3.7988,3.8604,3.9335,4.0162,4.0392,4.0489,4.0489,4.0489,4.1412,4.3104,4.3104,4.4008,4.5586,4.5586,4.5586,4.5586,4.5586,4.5586,4.5586,4.5586,4.5586,4.5586,4.5586,4.5586,4.5586,-1.8887,-1.8981,-1.9822,-2.1509,-2.2464,-2.406,-2.7273,-2.9843,0.0,0.0,0.0,0.0,0.0,0.0,0.0,0.0,0.0,-3.4024,-3.3305,0.0,-3.1774,-3.1057,-2.6751,-2.4377,0.0,-1.9463,-1.6638,-1.6147,-1.4821,0.0,0.0,0.0,0.0,0.0,0.0,-1.8331,-1.8892,-2.1441,-2.2519,-2.2546,-2.3787,-2.3702,-2.3037,0.0,-2.2553,-1.9723,-1.848,0.0,0.0,-1.7201,-1.6929,0.0,0.0,0.0,0.0,0.0,0.0,0.0,0.0,0.0,0.0,0.42,0.0,0.0,0.0,0.0,1.4866,0.0,0.0,0.0,0.0,0.0,0.0,0.0,0.0,0.0,0.0,0.0,0.0,0.0,0.0,0.0,0.0,0.0,0.0,0.0,0.0,0.0,3.9369,3.7642,3.7142,3.7969,3.8027,3.845,3.9315,4.0104,4.0489,4.0489,4.0489,4.1412,4.3104,4.3104,4.4008,4.5586,4.5586,4.5586,4.5586,4.5586,4.5586,4.5586,4.5586,4.5586,4.5586,4.5586,4.5586,4.5586,-2.0492,-1.9935,-2.0154,-2.2006,-2.3244,-2.5199,-2.8842,-3.1172,0.0,0.0,0.0,0.0,0.0,-3.2655,-3.2835,0.0,0.0,-3.2525,-3.2769,-3.2545,0.0,0.0,0.0,-2.5242,0.0,0.0,0.0,0.0,0.0,0.0,0.0,0.0,0.0,0.0,0.0,-1.8744,0.0,0.0,0.0,0.0,0.0,-2.5163,-2.3653,0.0,0.0,-1.9778,-1.9056,-1.821,0.0,-1.7746,-1.6859,-1.572,-1.5944,-1.3828,-1.131,-1.1712,-0.806,0.0,0.0,0.0,0.0611,0.353,0.0,0.0,0.0,0.0,0.0,0.0,0.0,0.0,0.0,0.0,0.0,0.0,0.0,0.0,0.0,0.0,0.0,0.0,0.0,0.0,0.0,0.0,0.0,0.0,0.0,0.0,0.0,3.7873,3.77,3.7988,3.8007,3.8411,3.9277,4.0085,4.0489,4.0489,4.0489,4.1412,4.3104,4.3104,4.4008,4.5586,4.5586,4.5586,4.5586,4.5586,4.5586,4.5586,4.5586,4.5586,4.5586,4.5586,4.5586,4.5586,-2.137,-2.112,-2.1383,-2.2579,-2.4385,-2.671,0.0,0.0,0.0,0.0,-3.4036,0.0,-3.3775,0.0,-3.2797,0.0,-3.2586,-3.2223,-3.3177,-3.2724,0.0,-3.0752,-2.8823,0.0,0.0,0.0,0.0,0.0,0.0,-1.559,0.0,0.0,0.0,0.0,0.0,-1.8599,-1.8763,0.0,-2.2794,0.0,0.0,-2.4722,0.0,0.0,-2.1356,-1.9759,0.0,-1.7668,-1.6578,-1.7339,-1.6132,-1.4576,-1.5397,-1.3406,-1.0818,-1.1266,-0.7898,-0.4032,-0.43,-0.198,0.0,0.3341,0.6036,0.0,1.1596,0.0,0.0,0.0,0.0,0.0,0.0,0.0,0.0,0.0,0.0,0.0,0.0,0.0,0.0,0.0,0.0,0.0,0.0,0.0,0.0,0.0,0.0,0.0,0.0,0.0,3.8315,3.8007,3.8007,3.8277,3.8834,3.9662,4.0219,4.0489,4.0489,4.1412,4.3104,4.3104,4.4008,4.5586,4.5586,4.5586,4.5586,4.5586,4.5586,4.5586,4.5586,4.5586,4.5586,4.5586,4.5586,4.5624,-2.1773,-2.2609,-2.3545,-2.3473,-2.6021,0.0,0.0,0.0,-3.3439,0.0,-3.5151,-3.6194,-3.3917,-3.4066,-3.3989,-3.3119,-3.2798,-3.3127,-3.4382,-3.3224,0.0,0.0,-3.0736,-2.8858,-2.8122,0.0,0.0,0.0,0.0,0.0,0.0,0.0,0.0,0.0,-1.7191,0.0,-1.8342,-1.9643,-2.0601,-2.133,-2.2358,-2.2437,-2.1985,-2.1534,-2.0767,-1.9626,-1.7907,-1.6412,-1.527,-1.5964,-1.4849,-1.3439,-1.5056,-1.329,-1.055,-1.0406,-0.7808,-0.4818,-0.3707,-0.1051,0.1793,0.3738,0.0,0.0,0.0,0.0,1.5602,0.0,0.0,0.0,0.0,0.0,0.0,0.0,0.0,0.0,0.0,0.0,0.0,0.0,0.0,0.0,0.0,0.0,0.0,0.0,0.0,0.0,0.0,0.0,3.895,3.8027,3.8007,3.8007,3.8007,3.8854,3.97,4.0489,4.0489,4.1412,4.3104,4.3104,4.4008,4.5586,4.5586,4.5586,4.5586,4.5586,4.5586,4.5586,4.5586,4.5586,4.5586,4.5586,4.5586,4.572,-2.5532,-2.5749,-2.6385,0.0,-2.9445,-3.0814,0.0,0.0,0.0,0.0,-3.4624,-3.5009,-3.4393,-3.4016,-3.3697,-3.3453,-3.2942,0.0,0.0,0.0,0.0,-3.2033,-3.0861,-2.9666,-2.8493,-2.5063,0.0,-2.131,0.0,0.0,-1.6458,0.0,0.0,0.0,0.0,0.0,-1.9471,-2.0797,-2.1751,-2.2391,-2.3005,-2.2742,0.0,0.0,-2.0584,-1.9375,-1.8533,-1.6919,-1.5229,-1.561,-1.4494,-1.3003,-1.3618,-1.2228,-1.0238,-1.009,-0.7122,-0.3879,-0.3456,-0.0912,0.2217,0.4329,0.6957,0.9707,0.0,0.0,0.0,0.0,0.0,0.0,0.0,0.0,0.0,0.0,0.0,0.0,0.0,0.0,0.0,0.0,0.0,0.0,0.0,0.0,0.0,0.0,0.0,0.0,0.0,0.0,0.0,3.8046,3.8007,3.8007,3.8007,3.8854,3.97,4.0489,4.0489,4.1412,4.3104,4.3104,4.4008,4.5586,4.5586,4.5586,4.5586,4.5586,4.5586,4.5586,4.5586,4.5586,4.5586,4.5586,4.5586,4.572,-2.697,0.0,0.0,-3.0011,0.0,0.0,-3.3071,-3.3515,0.0,-3.5216,-3.5455,0.0,-3.5119,-3.4216,-3.3351,-3.2672,-3.2052,0.0,-3.2033,0.0,0.0,-3.2048,-3.1372,-3.0646,-2.9894,-2.7186,0.0,-2.34,0.0,0.0,-1.7981,0.0,0.0,0.0,0.0,-2.0133,-2.0372,-2.1247,-2.1966,-2.248,-2.2307,0.0,0.0,-2.1175,-2.0436,-1.9477,-1.8881,-1.7133,-1.5213,-1.5503,-1.4373,-1.2876,-1.3113,-1.1757,-1.0028,-0.9892,-0.6874,-0.3405,-0.2769,-0.0167,0.3011,0.5237,0.7533,1.0023,1.311,1.4558,1.5682,0.0,0.0,0.0,0.0,0.0,0.0,0.0,0.0,0.0,0.0,0.0,0.0,0.0,0.0,0.0,0.0,0.0,0.0,0.0,0.0,0.0,0.0,0.0,0.0,3.8046,3.87,3.8738,3.8007,3.92,4.0046,4.0489,4.0489,4.1412,4.3104,4.3104,4.4008,4.5586,4.5586,4.5586,4.5586,4.5586,4.5586,4.5586,4.5586,4.5586,4.5586,4.5586,4.5586,4.5759,0.0,0.0,0.0,0.0,0.0,0.0,0.0,-3.37,0.0,-3.6409,0.0,-3.6552,-3.5893,-3.4609,-3.3259,-3.183,0.0,-3.1298,-3.247,-3.197,-3.1872,-3.2516,-3.1985,-3.1556,-3.1482,-2.9699,0.0,0.0,0.0,0.0,0.0,0.0,0.0,0.0,0.0,0.0,0.0,-2.1598,-2.1903,-2.2048,-2.1011,-2.0498,-2.04,-2.0459,-2.0176,-1.9645,-1.8884,-1.7139,-1.5353,-1.5495,-1.4298,-1.2869,-1.3066,-1.1597,-0.9807,-0.9692,-0.6699,-0.3095,-0.1913,0.0833,0.3845,0.6233,0.8371,1.0718,1.3987,1.543,1.6571,1.8046,1.8964,1.9523,0.0,0.0,0.0,0.0,0.0,0.0,0.0,0.0,0.0,0.0,0.0,0.0,0.0,0.0,0.0,0.0,0.0,0.0,0.0,0.0,0.0,3.806,3.9411,0.0,3.8334,0.0,4.0392,4.0835,4.0604,4.1412,4.3104,4.3104,4.4008,4.5586,4.5586,4.5586,4.5586,4.5586,4.5586,4.5586,4.5586,4.5586,4.5586,4.5586,4.5663,4.599,0.0,0.0,0.0,0.0,0.0,-3.3031,-3.4921,-3.5281,-3.5462,-3.5843,-3.6441,-3.6772,-3.6616,-3.5295,-3.4121,-3.3304,-3.26,0.0,0.0,0.0,0.0,-3.1712,-3.2107,-3.2093,-3.1482,-3.0133,-2.8966,0.0,0.0,0.0,0.0,0.0,0.0,0.0,0.0,0.0,-2.3666,-2.328,0.0,-2.1962,-2.1011,-2.0146,-1.9551,-1.9893,-1.9541,-1.8763,-1.8063,-1.7102,-1.5945,-1.5397,-1.4151,-1.2835,-1.2889,-1.1325,-0.939,-0.8413,-0.5888,-0.2919,-0.0898,0.1483,0.401,0.7126,0.8937,1.0734,1.4059,1.5515,1.6326,1.682,1.9019,2.0791,2.0653,0.0,0.0,0.0,0.0,0.0,0.0,0.0,0.0,0.0,0.0,0.0,0.0,0.0,0.0,0.0,0.0,0.0,0.0,0.0,0.0,0.0,0.0,0.0,0.0,0.0,3.9854,4.2624,4.1181,4.1412,4.3104,4.3104,4.4008,4.5586,4.5586,4.5586,4.5586,4.5586,4.5586,4.5586,4.5586,4.5586,4.5586,4.5586,4.6067,4.6817,0.0,0.0,0.0,0.0,0.0,0.0,0.0,-3.6019,0.0,-3.6729,-3.6785,-3.6771,-3.682,-3.5805,-3.4723,-3.3665,-3.2936,-3.2273,-3.1554,-3.1824,-3.1869,-3.1482,-3.1839,0.0,-3.2048,-3.0659,-2.9832,-2.9594,0.0,0.0,0.0,0.0,0.0,0.0,0.0,-2.4606,0.0,0.0,0.0,-2.2765,-2.0979,-1.998,-1.9658,-2.0088,-2.0,-1.9522,-1.8603,-1.7607,-1.6537,-1.5253,-1.3653,-1.207,-1.201,-1.0478,-0.847,-0.7246,-0.521,-0.2658,0.0079,0.2097,0.4267,0.8062,0.9441,1.0856,1.4386,1.5718,1.6454,1.7454,1.9785,2.2022,2.3513,2.4761,0.0,0.0,0.0,0.0,0.0,0.0,0.0,0.0,0.0,0.0,0.0,0.0,0.0,0.0,0.0,0.0,0.0,0.0,0.0,0.0,0.0,0.0,0.0,0.0,0.0,4.1739,4.0758,4.1294,4.3085,4.2907,4.3846,4.5586,4.5586,4.5586,4.5586,4.5586,4.5586,4.5586,4.5586,4.5586,4.5643,4.6105,4.6797,4.7586,0.0,-3.3609,0.0,0.0,-3.5889,0.0,-3.5915,-3.6565,-3.715,-3.7494,-3.7035,-3.6767,-3.6974,-3.609,-3.4986,-3.3819,-3.3126,-3.2437,-3.1735,-3.1884,-3.1884,-3.1749,-3.1884,-3.2123,-3.2497,-3.1156,-3.0572,0.0,0.0,0.0,0.0,0.0,0.0,0.0,0.0,0.0,0.0,0.0,-2.266,-2.3114,-2.0812,-1.9912,-1.9951,-2.0303,-2.043,-2.0245,-1.8948,-1.7976,-1.7001,-1.4852,-1.2968,-1.1531,-1.1417,-0.9769,-0.7695,-0.6366,-0.4606,-0.2339,0.1011,0.2764,0.4641,0.8599,0.9874,1.1084,1.4553,1.5822,1.6572,1.799,2.0184,2.284,2.6071,2.6668,0.0,0.0,0.0,0.0,0.0,0.0,0.0,0.0,0.0,0.0,0.0,0.0,0.0,0.0,0.0,0.0,0.0,0.0,0.0,0.0,0.0,3.9965,3.9398,0.0,4.0265,0.0,4.0329,4.1036,4.2961,4.2718,4.3616,4.54,4.555,4.5586,4.5586,4.5586,4.5586,4.5586,4.5586,4.5586,4.5701,4.6586,4.7413,4.8125,0.0,0.0,0.0,0.0,0.0,0.0,-3.6598,-3.7287,-3.7536,-3.6843,-3.6717,-3.6942,-3.7536,-3.5844,-3.457,-3.4395,-3.3819,-3.3125,-3.2467,-3.2976,-3.3036,-3.2452,-3.2991,-3.3066,-3.2527,-3.1579,-3.1229,0.0,0.0,0.0,0.0,0.0,0.0,0.0,0.0,0.0,0.0,-2.308,-2.2579,-2.1996,-2.0522,-1.9912,-1.9922,-1.9961,-1.9971,-1.9726,-1.806,-1.7343,-1.683,-1.3607,-1.2182,-1.1822,-1.1799,-1.0095,-0.7636,-0.561,-0.4112,-0.2183,0.1871,0.374,0.5283,0.8542,1.0187,1.1676,1.4006,1.538,1.643,1.718,1.9499,2.258,2.6362,2.6507,2.7358,0.0,0.0,0.0,0.0,0.0,0.0,0.0,0.0,0.0,0.0,0.0,0.0,0.0,0.0,0.0,0.0,0.0,0.0,4.1634,0.0,4.0838,4.3854,3.9821,0.0,4.2835,4.0686,4.0672,4.2562,4.2581,4.3368,4.4732,4.5342,4.5586,4.5586,4.5586,4.5586,4.5586,4.5586,4.5586,4.5701,4.6586,4.7413,4.8221,0.0,0.0,0.0,0.0,0.0,0.0,0.0,-3.8457,-3.8357,-3.8461,-3.7815,-3.7255,-3.7016,-3.586,-3.5077,-3.5108,-3.4495,-3.3978,-3.3709,-3.32,-3.2961,-3.3095,-3.2602,-3.2557,-3.3095,-3.1017,-3.0549,0.0,0.0,0.0,0.0,0.0,0.0,0.0,0.0,-2.4944,-2.4276,-2.2324,-2.1538,-2.1533,-2.0347,-1.9525,-1.9012,-1.9966,-1.9908,-1.9275,-1.8269,-1.7705,-1.6788,-1.3696,-1.1957,-1.0964,-1.0233,-0.8826,-0.6975,-0.4654,-0.3236,-0.1613,0.212,0.4276,0.6196,0.8675,1.0116,1.147,1.3491,1.4996,1.6161,1.7063,1.939,2.225,2.5321,2.6031,2.6895,0.0,0.0,0.0,0.0,0.0,0.0,0.0,0.0,0.0,0.0,0.0,0.0,0.0,0.0,0.0,0.0,0.0,0.0,4.3365,0.0,3.967,4.256,3.9032,3.8514,4.0973,4.0339,4.0816,4.2257,4.258,4.3396,4.465,4.5096,4.5302,4.5322,4.5513,4.5586,4.5586,4.5586,4.5913,4.649,4.7317,4.8144,4.899,-3.7785,0.0,-3.9677,0.0,-4.0342,-4.0545,-4.0302,-3.9955,-3.9771,-4.0,-3.9046,-3.8074,-3.7218,-3.6344,-3.5793,-3.5809,-3.5355,-3.4981,-3.4786,-3.3918,-3.3425,-3.3499,-3.2602,0.0,-3.3469,-3.1137,-3.0567,-3.1931,-3.0811,0.0,0.0,-2.9191,0.0,0.0,-2.5004,-2.4166,-2.3963,-2.1603,-2.0831,-2.112,-2.0262,-1.9364,-1.8638,-1.9589,-1.9575,-1.8869,-1.7912,-1.7247,-1.6347,-1.3207,-1.1261,-0.9981,-0.9073,-0.7707,-0.6135,-0.402,-0.2404,-0.0661,0.2309,0.4638,0.6729,0.877,1.0045,1.123,1.2938,1.4494,1.6105,1.782,2.0048,2.2292,2.4361,2.5576,2.661,2.7549,0.0,0.0,0.0,0.0,0.0,0.0,0.0,0.0,0.0,0.0,0.0,0.0,0.0,0.0,0.0,0.0,0.0,0.0,0.0,0.0,0.0,3.8527,3.7849,3.9599,4.001,4.0803,4.1969,4.2675,4.3633,4.4757,4.4896,4.5074,4.5282,4.5495,4.5586,4.5586,4.5586,4.6124,4.7009,4.7798,4.8644,4.951,-3.9874,-4.0466,-4.0745,-4.0035,-4.1253,-4.2055,-4.1302,-4.1741,-4.1831,-4.0974,-4.0177,-3.9439,-3.8722,-3.739,-3.6462,-3.6477,-3.6462,-3.6178,-3.5534,-3.5474,-3.4876,0.0,0.0,-3.3484,-3.3499,-3.2601,-3.1873,-3.1224,0.0,0.0,-2.5034,-2.3786,-2.3573,-2.4318,-2.3339,-2.2622,-2.1952,-2.1011,-2.0634,-2.0595,-2.0088,-1.9544,-1.8912,-1.8515,-1.8614,-1.8709,-1.6519,-1.5651,-1.5083,-1.1781,-0.9836,-0.889,-0.889,-0.7191,-0.4927,-0.3894,-0.1786,0.0582,0.2602,0.4676,0.6871,0.8808,1.0045,1.1087,1.207,1.381,1.6262,1.9846,2.1707,2.2919,2.3867,2.521,2.662,2.7981,0.0,0.0,0.0,0.0,0.0,0.0,0.0,3.8998,3.7928,0.0,0.0,0.0,0.0,0.0,0.0,0.0,0.0,4.233,3.8984,0.0,4.2253,3.8577,3.7667,3.9599,3.9814,4.0486,4.1659,4.2926,4.4076,4.5074,4.4751,4.4988,4.5586,4.5586,4.5586,4.5586,4.5586,4.6124,4.7009,4.7798,4.8644,4.951,-4.0793,-4.0861,-4.0883,-4.0665,-4.0481,-4.0766,-4.1636,-4.0954,-4.0649,-4.155,-4.038,-3.9482,-3.9354,-3.7992,-3.712,0.0,-3.712,-3.703,0.0,-3.5983,-3.531,-3.4876,-3.3559,-3.3245,-3.4143,-3.205,-3.0988,-3.1021,0.0,0.0,0.0,-2.702,-2.5917,-2.4725,-2.3004,-2.2174,-2.1952,-2.1011,-2.0566,-2.0557,-2.041,-1.9399,-1.7971,-1.9372,-1.8593,-1.6756,-1.6764,-1.6339,-1.5155,-1.1792,-1.0351,-0.9749,-0.8185,-0.6634,-0.5211,-0.393,-0.1475,0.1298,0.2843,0.5779,0.8645,0.9291,1.0616,1.1922,1.2224,1.426,1.688,1.9966,2.1429,2.239,2.3218,2.4216,2.5354,2.6763,2.7305,0.0,0.0,0.0,0.0,0.0,0.0,3.5031,0.0,3.7044,0.0,0.0,0.0,0.0,0.0,0.0,0.0,0.0,3.8776,0.0,4.1068,3.8544,3.7821,3.9017,4.0173,4.147,4.2908,4.355,4.4016,4.4354,4.4781,4.5074,4.5282,4.5513,4.5586,4.5663,4.624,4.699,4.7817,4.8663,4.9529,5.0317,-4.1537,-4.1357,-4.1245,-4.0896,-4.0651,-4.0858,-4.1869,-4.0774,-4.0255,-4.1346,-4.0255,-3.9459,-3.9604,-3.8726,0.0,-3.7808,-3.7778,-3.7674,-3.7419,-3.6896,-3.6148,-3.516,-3.4397,-3.4017,-3.3997,0.0,0.0,-3.046,-2.9619,-2.871,-2.7819,-2.6818,-2.5684,-2.4337,-2.2339,-2.1669,-2.1952,-2.1011,-2.0566,-2.0566,-2.0566,-1.9265,-1.7423,-1.8868,-1.7811,-1.5703,-1.6041,-1.5343,-1.3975,-1.145,-1.0005,-0.9052,-0.7573,-0.6034,-0.4712,-0.3884,-0.0881,0.2296,0.308,0.585,0.864,0.8964,1.0113,1.1583,1.3032,1.4947,1.7194,2.003,2.1302,2.2137,2.2944,2.3767,2.4687,2.5838,2.6635,2.7695,2.9323,0.0,0.0,0.0,0.0,0.0,0.0,3.6024,0.0,0.0,0.0,0.0,0.0,0.0,0.0,4.0933,3.775,0.0,3.9797,3.8298,3.8046,3.9166,4.0781,4.2249,4.3532,4.3726,4.3955,4.4233,4.4707,4.5052,4.5302,4.5513,4.5586,4.5682,4.6567,4.7394,4.8221,4.9086,4.9952,5.0702,-4.2206,-4.2077,-4.1882,0.0,-4.1421,0.0,-4.2012,-4.1288,-4.0761,-4.083,-4.0056,-3.9559,-3.9559,-3.9514,-3.923,-3.8586,0.0,0.0,0.0,-3.8033,-3.7225,-3.4786,-3.5759,-3.5363,-3.3221,-3.3157,-3.1907,-2.9521,-2.7493,-2.6074,-2.5135,-2.4166,-2.3621,-2.3452,-2.1527,-2.1155,-2.1886,-2.0934,-2.0566,-2.0566,-2.0566,-1.9265,-1.7342,-1.7423,-1.6683,-1.5462,-1.4573,-1.3334,-1.2076,-1.0935,-0.9139,-0.7228,-0.7051,-0.5442,-0.357,-0.357,-0.0178,0.3556,0.3403,0.5109,0.7229,0.8147,0.9072,1.0699,1.4385,1.5817,1.7194,1.9966,2.1239,2.2137,2.2884,2.3708,2.4509,2.5231,2.6014,2.7158,2.9135,0.0,0.0,0.0,0.0,0.0,0.0,3.67,3.636,0.0,0.0,0.0,0.0,0.0,4.0463,3.8456,3.6292,3.6256,3.8548,3.7918,3.8377,3.9992,4.1552,4.2708,4.3497,4.3513,4.3899,4.4553,4.458,4.4966,4.5568,4.5568,4.5586,4.5682,4.6624,4.7451,4.8221,4.9144,4.999,5.0702,0.0,0.0,-4.3074,-4.1511,-4.1379,-4.1801,-4.2396,-4.1786,-4.1453,-4.2129,-4.1453,-4.092,-4.092,-4.0472,-4.0098,-3.9933,-3.9469,-3.911,-3.896,-3.8123,-3.736,-3.6746,-3.5579,-3.4608,-3.3811,-3.2861,-3.1419,-2.9381,-2.7889,-2.7009,-2.6714,-2.572,-2.4611,-2.3452,-2.2188,-2.1364,-2.0934,-2.0712,-2.0566,-2.0566,-2.0566,-1.9265,-1.7423,-1.823,-1.6846,-1.4573,-1.5137,-1.4008,-1.2134,-1.095,-0.9662,-0.8189,-0.6334,-0.4819,-0.357,-0.357,-0.0178,0.3566,0.3549,0.5765,0.8348,0.947,1.0872,1.2616,1.4998,1.6007,1.6999,1.9135,2.0846,2.1951,2.2125,2.3327,2.435,2.4509,2.5673,2.6659,2.7158,2.8633,0.0,0.0,3.2655,3.3321,3.3321,3.3425,3.4012,0.0,0.0,0.0,0.0,3.8115,3.7442,3.5408,3.6376,3.6997,3.716,3.8003,3.9221,4.0836,4.1827,4.2708,4.3532,4.3772,4.3986,4.4146,4.4474,4.4849,4.5222,4.5222,4.5362,4.574,4.724,4.7932,4.8298,4.9817,5.051,5.0702,-4.2965,-4.3091,-4.302,-4.1656,-4.1384,-4.1596,-4.1997,-4.173,-4.1596,-4.2071,-4.173,-4.1384,-4.1384,-4.0786,-4.0397,-4.0397,-3.9514,-3.8945,-3.8945,-3.7973,-3.7285,-3.7,-3.6522,-3.557,-3.4027,-3.3232,-3.1502,-2.8782,-2.7817,-2.7281,-2.7281,-2.6045,-2.4737,-2.3441,-2.2478,-2.1441,-2.0566,-2.0566,-2.0566,-2.0566,-2.0566,-1.9265,-1.7342,-1.7989,-1.6527,-1.4166,-1.4734,-1.3516,-1.1466,-1.0783,-0.9488,-0.7837,-0.6602,-0.4996,-0.3479,-0.2939,0.0267,0.357,0.357,0.5654,0.8201,0.9808,1.1642,1.3613,1.5447,1.6361,1.7274,1.9188,2.0477,2.1428,2.1815,2.2919,2.3884,2.4234,2.5231,2.6122,2.6457,2.7932,2.9231,2.9918,3.0826,3.1506,3.1782,3.1782,3.252,3.4224,0.0,0.0,3.6659,3.6697,3.6327,3.5631,3.6602,3.7166,3.7228,3.8944,4.0432,4.1662,4.2451,4.3075,4.3532,4.3693,4.3849,4.3998,4.4233,4.4535,4.4872,4.4872,4.5194,4.5846,4.7294,4.8102,4.86,5.0144,5.0702,5.0702,-4.3004,-4.2932,-4.2729,-4.1806,-4.1683,-4.1683,-4.1683,-4.1683,-4.1683,-4.1683,-4.1683,-4.1683,-4.1683,-4.1085,-4.0651,-4.0561,-3.932,-3.8542,-3.8542,-3.7913,-3.733,-3.6791,-3.7629,-3.6916,-3.4344,-3.3732,-3.1742,-2.8235,-2.767,-2.7406,-2.7394,-2.5804,-2.4597,-2.3553,-2.251,-2.1441,-2.0566,-2.0566,-2.0566,-2.0566,-2.0566,-1.9265,-1.7342,-1.7342,-1.5959,-1.4088,-1.3913,-1.2431,-1.0611,-1.0438,-0.8877,-0.7051,-0.6694,-0.5174,-0.3299,-0.1691,0.1068,0.3659,0.3838,0.5703,0.8063,0.9785,1.1863,1.3964,1.583,1.671,1.7541,1.9453,2.0232,2.0879,2.1724,2.2492,2.3498,2.4932,2.5189,2.5716,2.7035,0.0,2.8622,2.9323,2.9967,3.0591,3.1295,3.1392,3.1828,3.299,3.308,3.3526,3.4598,3.5302,3.6078,3.6925,3.6898,3.7298,3.8194,4.0127,4.1515,4.2304,4.3112,4.3497,4.3497,4.3497,4.3646,4.3924,4.3924,4.4165,4.4501,4.4501,4.5017,4.59,4.7048,4.8048,4.8953,5.0157,5.0663,5.0702,-4.3391,-4.3899,-4.4127,-4.3172,-4.303,-4.303,-4.303,-4.303,-4.303,-4.303,-4.303,-4.303,-4.303,-4.2447,-4.1833,-4.128,-4.0023,-3.926,-3.926,-3.8616,-3.8197,-3.8108,-3.7255,-3.6443,-3.5682,-3.3069,-3.0734,-2.88,-2.8247,-2.7971,-2.7971,-2.6408,-2.511,-2.4119,-2.2649,-2.1441,-2.0566,-2.0566,-2.0566,-2.0566,-2.0566,-1.9265,-1.7342,-1.7342,-1.5959,-1.3997,-1.2942,-1.1729,-1.0438,-0.9492,-0.8277,-0.6782,-0.4727,-0.3926,-0.2943,0.0268,0.2322,0.3838,0.4821,0.7548,1.0168,1.0484,1.2027,1.4089,1.615,1.6478,1.6897,1.8942,2.0032,2.0872,2.1812,2.2348,2.4005,2.8425,2.6502,2.5891,3.0036,0.0,2.805,2.9335,3.0022,3.0849,3.2072,3.2227,3.2557,3.3287,3.3345,3.3709,3.4508,3.4644,3.507,3.582,3.7069,3.8331,3.9585,4.0602,4.1515,4.2304,4.3112,4.3497,4.3497,4.3497,4.3513,4.3563,4.3563,4.3772,4.4087,4.4087,4.4767,4.5892,4.6747,4.7789,4.8929,4.9835,5.0421,5.0702,-4.3409,-4.3693,-4.3849,-4.3409,-4.3329,-4.3329,-4.3329,-4.3329,-4.3329,-4.3329,-4.3329,-4.3329,-4.3329,-4.2746,-4.2087,-4.1444,-4.0502,-3.9798,-3.9439,-3.8123,-3.7674,-3.8362,-3.7479,-3.6457,-3.5246,-3.3083,-3.1122,-2.939,-2.8825,-2.8549,-2.8536,-2.6904,-2.5657,-2.4635,-2.3067,-2.1818,-2.0908,-2.0664,-2.0566,-2.0566,-2.0566,-1.9265,-1.7342,-1.7342,-1.5959,-1.4004,-1.347,-1.2077,-1.0524,-1.0009,-0.8619,-0.6782,-0.5087,-0.4105,-0.3032,0.0,0.2586,0.4819,0.598,0.8432,1.0611,1.0611,1.2656,1.516,1.6678,1.7181,1.7761,1.9312,2.0565,2.1494,2.1898,2.2956,2.4558,2.7188,2.6254,2.6183,2.9119,2.8598,2.8426,2.9878,3.0261,3.0959,3.2253,3.2377,3.2857,3.3905,3.3981,3.4303,3.5064,3.5098,3.5267,3.5605,3.7251,3.894,4.0543,4.135,4.2158,4.2947,4.3314,4.3497,4.3497,4.3497,4.3497,4.3497,4.3497,4.3597,4.3744,4.4206,4.4953,4.5946,4.6981,4.8097,4.9269,4.9866,5.0358,5.0702,-4.3329,-4.3329,-4.3329,-4.3329,-4.3329,-4.3329,-4.3329,-4.3329,-4.3329,-4.3329,-4.3329,-4.3329,-4.3329,-4.2895,-4.2267,-4.1444,-4.092,-4.0292,-3.9469,-3.7853,-3.7366,-3.8186,-3.7771,-3.6532,-3.4386,-3.3508,-3.1964,-2.9792,-2.9352,-2.9126,-2.9038,-2.7232,-2.5962,-2.506,-2.3228,-2.1908,-2.1201,-2.0752,-2.0566,-2.0566,-2.0566,-1.9265,-1.7342,-1.7342,-1.5959,-1.4088,-1.3822,-1.2339,-1.0524,-1.0265,-0.8794,-0.6874,-0.5445,-0.4374,-0.3032,0.0,0.3206,0.5983,0.6874,0.879,1.0611,1.0611,1.2996,1.5621,1.6683,1.7359,1.8099,1.943,2.0551,2.1517,2.2243,2.3414,2.4913,2.6705,2.6246,2.644,2.8579,2.8422,2.8581,3.0061,3.0409,3.1076,3.251,3.2684,3.3238,3.4665,3.4759,3.5013,3.5588,3.5622,3.5735,3.6021,3.7563,3.9372,4.1354,4.1992,4.269,4.3497,4.3497,4.3497,4.3497,4.3497,4.3497,4.3497,4.3497,4.3497,4.3552,4.4378,4.5168,4.6011,4.7138,4.8319,4.9386,4.9719,5.0068,5.0421,-4.3329,-4.3329,-4.3329,-4.3329,-4.3329,-4.3329,-4.3329,-4.3329,-4.3329,-4.3329,-4.3329,-4.3329,-4.3329,-4.3284,-4.2746,-4.1489,-4.1324,-4.0771,-3.9499,-3.8676,-3.8115,-3.7878,-3.7803,-3.6465,-3.3748,-3.4205,-3.2961,-2.9792,-2.9754,-2.9729,-2.9716,-2.7041,-2.5836,-2.5632,-2.2603,-2.123,-2.1201,-2.0752,-2.0566,-2.0566,-2.0566,-1.9265,-1.7342,-1.7342,-1.5959,-1.3913,-1.2851,-1.1643,-1.0438,-0.941,-0.8189,-0.6691,-0.4461,-0.3659,-0.2674,0.1959,0.5082,0.6962,0.7051,0.879,1.0611,1.0611,1.2425,1.4489,1.5538,1.5846,1.6472,1.8665,1.9122,2.0091,2.2878,2.3116,2.4684,3.0342,2.7699,2.6466,3.0965,2.9115,2.783,2.9232,3.0081,3.1289,3.3323,3.354,3.4072,3.5431,3.5537,3.5554,3.5622,3.5622,3.6134,3.7292,3.8046,3.9623,4.2194,4.2268,4.269,4.3497,4.3497,4.3497,4.3497,4.3497,4.3497,4.3497,4.3497,4.3497,4.3552,4.4378,4.5168,4.5975,4.682,4.7901,4.8963,4.8996,4.9234,4.9608,-4.3329,-4.3329,-4.3329,-4.3329,-4.3329,-4.3329,-4.3329,-4.3329,-4.3329,-4.3329,-4.3329,-4.3329,-4.3329,-4.3329,-4.2806,-4.1489,-4.1384,-4.0816,-3.9514,-3.917,-3.8485,-3.7224,-3.6609,-3.5432,-3.3719,-3.3221,-3.2106,-3.0306,-2.9955,-2.9792,-2.9792,-2.7347,-2.6192,-2.6088,-2.3247,-2.1885,-2.1611,-2.1172,-2.082,-2.0566,-2.0566,-1.9265,-1.7342,-1.7342,-1.5959,-1.3997,-1.3561,-1.2169,-1.0524,-1.0096,-0.8707,-0.6782,-0.5176,-0.4194,-0.2674,0.2227,0.473,0.616,0.6874,0.879,1.0611,1.0611,1.2345,1.4412,1.5455,1.5696,1.6347,1.855,1.9474,2.0604,2.3062,2.3804,2.5183,2.8451,2.7214,2.6764,2.9415,2.8489,2.8083,2.976,3.0206,3.1249,3.3395,3.3582,3.4153,3.5515,3.5622,3.5622,3.5622,3.6079,3.7115,3.8849,3.9147,4.0081,4.1724,4.2608,4.3185,4.3497,4.3497,4.3497,4.3497,4.3497,4.3497,4.3497,4.3497,4.3497,4.3589,4.4911,4.5626,4.603,4.7352,4.8273,4.8897,4.8897,4.9139,4.9504,-4.3329,-4.3329,-4.3329,-4.3329,-4.3329,-4.3329,-4.3329,-4.3329,-4.3329,-4.3329,-4.3329,-4.3329,-4.3329,-4.3329,-4.2806,-4.1489,-4.1126,-4.0486,-3.9499,-3.8767,-3.8015,-3.7166,-3.585,-3.4672,-3.3847,-3.2816,-3.1721,-3.062,-3.0068,-2.9792,-2.9792,-2.7557,-2.6483,-2.6378,-2.3686,-2.2275,-2.1855,-2.1416,-2.0977,-2.0566,-2.0566,-1.9265,-1.7342,-1.7342,-1.5959,-1.4082,-1.3646,-1.2254,-1.0524,-1.0183,-0.8707,-0.6871,-0.5716,-0.3831,-0.1156,0.2494,0.473,0.6071,0.6871,0.879,1.0611,1.0611,1.2083,1.3808,1.4963,1.522,1.5786,1.798,1.8991,2.0275,2.2977,2.4036,2.5111,2.6744,2.6703,2.684,2.7721,2.7773,2.8247,2.969,3.0133,3.1115,3.3061,3.3495,3.4053,3.5207,3.547,3.5723,3.596,3.6924,3.8142,3.952,3.9945,4.0508,4.1248,4.2575,4.3321,4.3497,4.3497,4.3497,4.3497,4.3497,4.3497,4.3497,4.3497,4.3626,4.3975,4.5333,4.6049,4.6416,4.7774,4.8495,4.8709,4.8709,4.8881,4.9139,-4.3329,-4.3329,-4.3329,-4.3329,-4.3329,-4.3329,-4.3329,-4.3329,-4.3329,-4.3329,-4.3329,-4.3329,-4.3329,-4.3329,-4.2806,-4.1489,-4.0373,-3.9678,-3.9427,-3.7405,-3.6682,-3.7753,-3.5775,-3.4386,-3.3779,-3.3225,-3.2215,-3.062,-3.0068,-2.9792,-2.9792,-2.7557,-2.6483,-2.6378,-2.3686,-2.2285,-2.1855,-2.1426,-2.0977,-2.0566,-2.0566,-1.9274,-1.7342,-1.7253,-1.5959,-1.3913,-1.276,-1.1558,-1.0438,-0.9323,-0.8105,-0.6871,-0.5714,-0.2044,0.2044,0.321,0.5262,0.7139,0.7139,0.879,1.0611,1.0611,1.1466,1.2589,1.3822,1.4088,1.4741,1.6854,1.7342,1.8576,2.2744,2.3514,2.4181,2.6164,2.6452,2.6533,2.6533,2.7162,2.8051,2.8876,2.9766,3.0911,3.2477,3.3198,3.3887,3.4528,3.5207,3.596,3.6755,3.8193,3.8988,3.9005,4.0229,4.0903,4.0903,4.208,4.2976,4.3479,4.3497,4.3497,4.3497,4.3497,4.3497,4.3497,4.3497,4.3956,4.4764,4.5571,4.6379,4.7205,4.7994,4.8306,4.8306,4.8306,4.8306,4.8364,-4.3329,-4.3329,-4.3329,-4.3329,-4.3329,-4.3329,-4.3329,-4.3329,-4.3329,-4.3329,-4.3329,-4.3329,-4.3329,-4.3329,-4.2461,-4.049,-3.9967,-3.9089,-3.7246,-3.5908,-3.5292,-3.5615,-3.4275,-3.3467,-3.3301,-3.274,-3.2016,-3.116,-3.0633,-3.0168,-2.9792,-2.7557,-2.6483,-2.6389,-2.4002,-2.2549,-2.1875,-2.1748,-2.126,-2.0557,-1.9766,-1.863,-1.7261,-1.6437,-1.5304,-1.3913,-1.276,-1.1558,-1.0438,-0.9323,-0.8105,-0.6782,-0.473,-0.1423,0.2044,0.321,0.5262,0.7139,0.7139,0.8185,0.9579,1.0438,1.2083,1.3646,1.3997,1.4088,1.4741,1.6854,1.7342,1.8355,2.178,2.2999,2.3963,2.5229,2.6025,2.6533,2.6533,2.6714,2.7417,2.8812,2.9254,3.0211,3.2407,3.3198,3.3887,3.4528,3.5756,3.6992,3.8261,3.8751,3.9225,3.9732,4.0135,4.0546,4.0903,4.208,4.2788,4.2939,4.3339,4.3497,4.3497,4.3497,4.3497,4.3497,4.3497,4.3956,4.4764,4.5571,4.6379,4.7205,4.7994,4.8306,4.8306,4.8306,4.8306,4.8364,-4.3329,-4.3329,-4.3329,-4.3329,-4.3329,-4.3329,-4.3329,-4.3329,-4.3329,-4.3329,-4.3329,-4.3329,-4.3329,-4.3329,-4.2382,-3.9989,-3.8924,-3.7573,-3.5722,-3.5047,-3.4664,-3.4664,-3.3628,-3.3081,-3.3081,-3.229,-3.1725,-3.1386,-3.0645,-2.987,-2.9106,-2.7302,-2.6224,-2.5724,-2.3887,-2.2764,-2.2129,-2.1953,-2.1475,-2.0732,-1.9506,-1.831,-1.7172,-1.6108,-1.5054,-1.3906,-1.2248,-1.1209,-1.0351,-0.8711,-0.7397,-0.608,-0.4234,-0.1081,0.2071,0.325,0.5328,0.7217,0.7156,0.8013,0.9148,1.0351,1.1997,1.347,1.3997,1.4088,1.4741,1.6854,1.7342,1.8275,2.14,2.2478,2.3368,2.4779,2.5523,2.6025,2.6452,2.6533,2.6973,2.8298,2.8812,2.9723,3.1549,3.2594,3.371,3.4939,3.6121,3.7446,3.892,3.9276,3.9631,4.007,4.007,4.0254,4.0577,4.1508,4.2121,4.2342,4.2657,4.281,4.2865,4.3069,4.3178,4.3214,4.341,4.414,4.5223,4.57,4.6562,4.7627,4.8122,4.8306,4.8306,4.8306,4.8306,4.8402,-4.3329,-4.3329,-4.3329,-4.3329,-4.3329,-4.3329,-4.3329,-4.3329,-4.3329,-4.3329,-4.3329,-4.3329,-4.3329,-4.3329,-4.2287,-3.991,-3.7396,-3.5507,-3.4581,-3.4594,-3.4594,-3.4594,-3.3641,-3.3081,-3.3081,-3.2064,-3.143,-3.1297,-3.0311,-2.9199,-2.7995,-2.6951,-2.5852,-2.4787,-2.3637,-2.2814,-2.2301,-2.1894,-2.1457,-2.078,-1.9279,-1.8069,-1.7009,-1.5951,-1.4887,-1.3646,-1.1391,-1.0524,-1.0091,-0.7837,-0.6248,-0.5018,-0.3924,-0.0915,0.238,0.3304,0.5415,0.7319,0.718,0.8013,0.9148,1.0351,1.1466,1.2589,1.3822,1.4088,1.4741,1.6854,1.7342,1.8204,2.1334,2.1952,2.2627,2.4564,2.4933,2.537,2.6383,2.6533,2.685,2.7736,2.8492,2.938,3.0329,3.1781,3.3524,3.5563,3.6386,3.7434,3.8923,3.9648,4.002,4.007,4.007,4.007,4.007,4.0577,4.1133,4.1707,4.175,4.181,4.181,4.2422,4.2711,4.275,4.3323,4.447,4.5902,4.5975,4.6911,4.8306,4.8306,4.8306,4.8306,4.8306,4.8306,4.8439,-4.3329,-4.3329,-4.3329,-4.3329,-4.3329,-4.3329,-4.3329,-4.3329,-4.3329,-4.3329,-4.3329,-4.3329,-4.3329,-4.3329,-4.2033,-3.8819,-3.5645,-3.3713,-3.3484,-3.3484,-3.3484,-3.3484,-3.324,-3.3081,-3.3081,-3.2842,-3.2042,-3.0627,-3.0398,-2.9258,-2.7284,-2.6194,-2.5316,-2.4787,-2.3637,-2.2351,-2.1044,-2.0725,-1.982,-1.8437,-1.6982,-1.6273,-1.5951,-1.4901,-1.3717,-1.2504,-1.1128,-1.0009,-0.9061,-0.7577,-0.5708,-0.3929,-0.368,-0.0448,0.3321,0.3504,0.53,0.7183,0.7149,0.8013,0.9148,1.0351,1.1466,1.2589,1.3822,1.4088,1.4741,1.6854,1.7342,1.806,2.0459,2.1517,2.2403,2.3599,2.4492,2.537,2.6383,2.6533,2.704,2.8556,2.8876,2.9566,3.1087,3.249,3.3944,3.5583,3.6329,3.7367,3.8821,3.9056,3.9437,4.007,4.007,4.007,4.007,4.0204,4.0528,4.1087,4.1578,4.181,4.181,4.2422,4.2711,4.2768,4.3926,4.5002,4.5957,4.6581,4.7425,4.8306,4.8306,4.8306,4.8306,4.8306,4.8306,4.8439,-4.3329,-4.3329,-4.3329,-4.3329,-4.3329,-4.3329,-4.3329,-4.3329,-4.3329,-4.3329,-4.3329,-4.3076,-4.2548,-4.2467,-4.1083,-3.7656,-3.4769,-3.3081,-3.3081,-3.3081,-3.3081,-3.3081,-3.2513,-3.2513,-3.3081,-3.2513,-3.161,-3.0438,-3.0102,-2.8833,-2.6606,-2.5781,-2.5026,-2.4277,-2.3485,-2.228,-2.095,-2.0449,-1.9405,-1.7924,-1.6308,-1.5696,-1.5621,-1.4496,-1.3379,-1.2151,-1.1042,-0.9488,-0.7929,-0.7316,-0.5531,-0.3576,-0.3612,-0.0271,0.3714,0.3624,0.5343,0.7234,0.716,0.8013,0.9148,1.0351,1.1466,1.2589,1.3822,1.4088,1.4741,1.6854,1.7342,1.798,2.0157,2.1001,2.1821,2.3294,2.3963,2.4779,2.6314,2.6533,2.685,2.767,2.8492,2.9628,3.1351,3.2428,3.3644,3.5124,3.5786,3.6965,3.8804,3.8908,3.9262,4.007,4.007,4.007,4.007,4.007,4.0254,4.0528,4.0861,4.0984,4.0984,4.1595,4.1979,4.2338,4.3717,4.4912,4.5957,4.6783,4.759,4.8306,4.8306,4.8306,4.8306,4.8306,4.8421,4.8657,-4.3329,-4.3329,-4.3329,-4.3329,-4.3329,-4.3329,-4.3329,-4.3329,-4.3329,-4.3329,-4.3155,-4.2644,-4.1684,-4.1053,-3.9564,-3.6718,-3.4452,-3.3081,-3.3081,-3.3081,-3.3081,-3.3081,-3.1865,-3.1677,-3.2797,-3.15,-3.0643,-3.022,-2.9785,-2.8316,-2.5958,-2.5575,-2.4794,-2.3769,-2.3142,-2.2195,-2.0971,-2.0015,-1.8922,-1.7668,-1.6049,-1.5462,-1.5296,-1.4412,-1.3209,-1.1895,-1.0956,-0.9052,-0.7139,-0.7139,-0.5531,-0.3582,-0.3643,-0.0183,0.3756,0.3663,0.5403,0.7302,0.7177,0.8013,0.9148,1.0351,1.1466,1.2589,1.3822,1.425,1.4901,1.6935,1.7423,1.8221,2.0235,2.0566,2.1231,2.3147,2.3514,2.4181,2.6233,2.6533,2.6589,2.6905,2.8427,2.9993,3.1499,3.2302,3.3245,3.4596,3.5243,3.6472,3.8603,3.869,3.9156,4.007,4.007,4.007,4.007,4.007,4.007,4.007,4.007,4.007,4.0121,4.0655,4.1223,4.1906,4.3432,4.4776,4.5975,4.6929,4.7719,4.8306,4.8306,4.8306,4.8306,4.8306,4.8513,4.8813,-4.3329,-4.3329,-4.3329,-4.3329,-4.3329,-4.3329,-4.3329,-4.3329,-4.3329,-4.3329,-4.2467,-4.1767,-4.1587,-3.8918,-3.697,-3.6565,-3.4452,-3.3081,-3.3081,-3.3081,-3.3081,-3.3081,-3.1865,-3.1311,-3.1412,-3.0226,-2.9647,-2.9579,-2.9421,-2.7991,-2.5253,-2.5194,-2.4677,-2.3789,-2.2618,-2.1272,-1.962,-1.8009,-1.6595,-1.5431,-1.4658,-1.4328,-1.4334,-1.4166,-1.2778,-1.0783,-1.0697,-0.9052,-0.7139,-0.7139,-0.5531,-0.3571,-0.3582,-0.0268,0.3585,0.3585,0.5285,0.7166,0.7146,0.8013,0.9148,1.0351,1.1466,1.2589,1.3822,1.4817,1.5869,1.7009,1.8069,1.9116,2.0401,2.0566,2.1231,2.3147,2.3514,2.4181,2.6233,2.6533,2.704,2.8492,3.0133,3.15,3.2273,3.2976,3.3696,3.448,3.5157,3.6213,3.7863,3.7921,3.8596,4.007,4.007,4.007,4.007,4.007,4.007,4.007,4.007,4.007,4.0121,4.0655,4.1223,4.1924,4.4007,4.5324,4.6012,4.7517,4.8214,4.8306,4.8306,4.8306,4.8306,4.8306,4.8326,4.8421,-4.3329,-4.3329,-4.3329,-4.3329,-4.3329,-4.3076,-4.2467,-4.29,-4.3076,-4.2452,-4.1932,-4.1337,-4.0746,-3.7605,-3.5467,-3.5467,-3.4045,-3.3081,-3.3081,-3.3081,-3.3081,-3.3081,-3.1235,-3.0496,-3.1223,-2.9315,-2.8412,-2.8412,-2.8412,-2.7379,-2.543,-2.4941,-2.4502,-2.4121,-2.3085,-2.1482,-1.9464,-1.8491,-1.6862,-1.493,-1.4502,-1.4229,-1.4088,-1.4088,-1.2601,-1.0438,-0.9139,-0.8009,-0.6962,-0.634,-0.4999,-0.3481,-0.2769,0.0267,0.357,0.357,0.5262,0.7139,0.7139,0.8448,1.0009,1.0438,1.1992,1.347,1.3997,1.5387,1.6764,1.7172,1.823,1.9362,2.0401,2.0566,2.1231,2.3147,2.3514,2.4181,2.6233,2.6533,2.7095,2.8812,3.0001,3.1163,3.2363,3.344,3.4158,3.4457,3.5115,3.6196,3.7706,3.7822,3.8502,4.007,4.007,4.007,4.007,4.007,4.007,4.007,4.007,4.007,4.0121,4.0336,4.0938,4.1881,4.3804,4.5102,4.6012,4.7645,4.8306,4.8306,4.8306,4.8306,4.8306,4.8306,4.8306,4.8344]},{"header":{"parameterUnit":"m.s-1","parameterCategory":1,"la1":30.6,"la2":28.766,"lo1":-90.7593,"lo2":-88.6598,"dx":0.0162,"dy":0.0183,"nx":116,"ny":114,"refTime":"2023-01-10T06:00:00:Z","depth":0,"parameterNumber":3,"parameterNumberName":"V-component_of_WINDS"},"data":[0.0,0.0,0.0,0.0,0.0,0.0,0.0,0.0,0.0,0.0,0.0,0.0,0.0,0.0,0.0,0.0,0.0,0.0,0.0,0.0,0.0,0.0,0.0,0.0,0.0,0.0,0.0,0.0,0.0,0.0,0.0,0.0,0.0,0.0,0.0,0.0,0.0,0.0,0.0,0.0,0.0,0.0,0.0,0.0,0.0,0.0,0.0,0.0,0.0,0.0,0.0,0.0,0.0,0.0,0.0,0.0,0.0,0.0,0.0,0.0,0.0,0.0,0.0,0.0,0.0,0.0,0.0,0.0,0.0,0.0,0.0,0.0,0.0,0.0,0.0,0.0,0.0,0.0,0.0,0.0,0.0,0.0,0.0,0.0,0.0,0.0,0.0,0.0,0.0,0.0,0.0,0.0,0.0,0.0,0.0,0.0,0.0,0.0,0.0,0.0,0.0,0.0,0.0,0.0,0.0,0.0,0.0,0.0,0.0,0.0,0.0,0.0,0.0,0.0,0.0,0.0,0.0,0.0,0.0,0.0,0.0,0.0,0.0,0.0,0.0,0.0,0.0,0.0,0.0,0.0,0.0,0.0,0.0,0.0,0.0,0.0,0.0,0.0,0.0,0.0,0.0,0.0,0.0,0.0,0.0,0.0,0.0,0.0,0.0,0.0,0.0,0.0,0.0,0.0,0.0,0.0,0.0,0.0,0.0,0.0,0.0,0.0,0.0,0.0,0.0,0.0,0.0,0.0,0.0,0.0,0.0,0.0,0.0,0.0,0.0,0.0,0.0,0.0,0.0,0.0,0.0,0.0,0.0,0.0,0.0,0.0,0.0,0.0,0.0,0.0,0.0,0.0,0.0,0.0,0.0,0.0,0.0,0.0,0.0,0.0,0.0,0.0,0.0,0.0,0.0,0.0,0.0,0.0,0.0,0.0,0.0,0.0,0.0,0.0,0.0,0.0,0.0,0.0,0.0,0.0,0.0,0.0,0.0,0.0,0.0,0.0,0.0,0.0,0.0,0.0,0.0,0.0,0.0,0.0,0.0,0.0,0.0,0.0,0.0,0.0,0.0,0.0,0.0,0.0,0.0,0.0,0.0,0.0,0.0,0.0,0.0,0.0,0.0,0.0,0.0,0.0,0.0,0.0,0.0,0.0,0.0,0.0,0.0,0.0,0.0,0.0,0.0,0.0,0.0,0.0,0.0,0.0,0.0,0.0,0.0,0.0,0.0,0.0,0.0,0.0,0.0,0.0,0.0,0.0,0.0,0.0,0.0,0.0,0.0,0.0,0.0,0.0,0.0,0.0,0.0,0.0,0.0,0.0,0.0,0.0,0.0,0.0,0.0,0.0,0.0,0.0,0.0,0.0,0.0,0.0,0.0,0.0,0.0,0.0,0.0,0.0,0.0,0.0,0.0,0.0,0.0,0.0,0.0,0.0,0.0,0.0,0.0,0.0,0.0,0.0,0.0,0.0,0.0,0.0,0.0,0.0,0.0,0.0,0.0,0.0,0.0,0.0,0.0,0.0,0.0,0.0,0.0,0.0,0.0,0.0,0.0,0.0,0.0,0.0,0.0,0.0,0.0,0.0,0.0,0.0,0.0,0.0,0.0,0.0,0.0,0.0,0.0,0.0,0.0,0.0,0.0,0.0,0.0,0.0,0.0,0.0,0.0,0.0,0.0,0.0,0.0,0.0,0.0,0.0,0.0,0.0,0.0,0.0,0.0,0.0,0.0,0.0,0.0,0.0,0.0,0.0,0.0,0.0,0.0,0.0,0.0,0.0,0.0,0.0,0.0,0.0,0.0,0.0,0.0,0.0,0.0,0.0,0.0,0.0,0.0,0.0,0.0,0.0,0.0,0.0,0.0,0.0,0.0,0.0,0.0,0.0,0.0,0.0,0.0,0.0,0.0,0.0,0.0,0.0,0.0,0.0,0.0,0.0,0.0,0.0,0.0,0.0,0.0,0.0,0.0,0.0,0.0,0.0,0.0,0.0,0.0,0.0,0.0,0.0,0.0,0.0,0.0,0.0,0.0,0.0,0.0,0.0,0.0,0.0,0.0,0.0,0.0,0.0,0.0,0.0,0.0,0.0,0.0,0.0,0.0,0.0,0.0,0.0,0.0,0.0,0.0,0.0,0.0,0.0,0.0,0.0,0.0,0.0,0.0,0.0,0.0,0.0,0.0,0.0,0.0,0.0,0.0,0.0,0.0,0.0,0.0,0.0,0.0,0.0,0.0,0.0,0.0,0.0,0.0,0.0,0.0,0.0,0.0,0.0,0.0,0.0,0.0,0.0,0.0,0.0,0.0,0.0,0.0,0.0,0.0,0.0,0.0,0.0,0.0,0.0,0.0,0.0,0.0,0.0,0.0,0.0,0.0,0.0,0.0,0.0,0.0,0.0,0.0,0.0,0.0,0.0,0.0,0.0,0.0,0.0,0.0,0.0,0.0,0.0,0.0,0.0,0.0,0.0,0.0,0.0,0.0,0.0,0.0,0.0,0.0,0.0,0.0,0.0,0.0,0.0,0.0,0.0,0.0,0.0,0.0,0.0,0.0,0.0,0.0,0.0,0.0,0.0,0.0,0.0,0.0,0.0,0.0,0.0,0.0,0.0,0.0,0.0,0.0,0.0,0.0,0.0,0.0,0.0,0.0,0.0,0.0,0.0,0.0,0.0,0.0,0.0,0.0,0.0,0.0,0.0,0.0,0.0,0.0,0.0,0.0,0.0,0.0,0.0,0.0,0.0,0.0,0.0,0.0,0.0,0.0,0.0,0.0,0.0,0.0,0.0,0.0,0.0,0.0,0.0,0.0,0.0,0.0,0.0,0.0,0.0,0.0,0.0,0.0,0.0,0.0,0.0,0.0,0.0,0.0,0.0,0.0,0.0,0.0,0.0,0.0,0.0,0.0,0.0,0.0,0.0,0.0,0.0,0.0,0.0,0.0,0.0,0.0,0.0,0.0,0.0,0.0,0.0,0.0,0.0,0.0,0.0,0.0,0.0,0.0,0.0,0.0,0.0,0.0,0.0,0.0,0.0,0.0,0.0,0.0,0.0,0.0,0.0,0.0,0.0,0.0,0.0,0.0,0.0,0.0,0.0,0.0,0.0,0.0,0.0,0.0,0.0,0.0,0.0,0.0,0.0,0.0,0.0,0.0,0.0,0.0,0.0,0.0,0.0,0.0,0.0,0.0,0.0,0.0,0.0,0.0,0.0,0.0,0.0,0.0,0.0,0.0,0.0,0.0,0.0,0.0,0.0,0.0,0.0,0.0,0.0,0.0,0.0,0.0,0.0,0.0,0.0,0.0,0.0,0.0,0.0,0.0,0.0,0.0,0.0,0.0,0.0,0.0,0.0,0.0,0.0,0.0,0.0,0.0,0.0,0.0,0.0,0.0,0.0,0.0,0.0,0.0,0.0,0.0,0.0,0.0,0.0,0.0,0.0,0.0,0.0,0.0,0.0,0.0,0.0,0.0,0.0,0.0,0.0,0.0,0.0,0.0,0.0,0.0,0.0,0.0,0.0,0.0,0.0,0.0,0.0,0.0,0.0,0.0,0.0,0.0,0.0,0.0,0.0,0.0,0.0,0.0,0.0,0.0,0.0,0.0,0.0,0.0,0.0,0.0,0.0,0.0,0.0,0.0,0.0,0.0,0.0,0.0,0.0,0.0,0.0,0.0,0.0,0.0,0.0,0.0,0.0,0.0,0.0,0.0,0.0,0.0,0.0,0.0,0.0,0.0,0.0,0.0,0.0,0.0,0.0,0.0,0.0,0.0,0.0,0.0,0.0,0.0,0.0,0.0,0.0,0.0,0.0,0.0,0.0,0.0,0.0,0.0,0.0,0.0,0.0,0.0,0.0,0.0,0.0,0.0,0.0,0.0,0.0,0.0,0.0,0.0,0.0,0.0,0.0,0.0,0.0,0.0,0.0,0.0,0.0,0.0,0.0,0.0,0.0,0.0,0.0,0.0,0.0,0.0,0.0,0.0,0.0,0.0,0.0,0.0,0.0,0.0,0.0,0.0,0.0,0.0,0.0,0.0,0.0,0.0,0.0,0.0,0.0,0.0,0.0,0.0,0.0,0.0,0.0,0.0,0.0,0.0,0.0,0.0,0.0,0.0,0.0,0.0,0.0,0.0,0.0,0.0,0.0,0.0,0.0,0.0,0.0,0.0,0.0,0.0,0.0,0.0,0.0,0.0,0.0,0.0,0.0,0.0,0.0,0.0,0.0,0.0,0.0,0.0,0.0,0.0,0.0,0.0,0.0,0.0,0.0,0.0,0.0,0.0,0.0,0.0,0.0,0.0,0.0,0.0,0.0,0.0,0.0,0.0,0.0,0.0,0.0,0.0,0.0,0.0,0.0,0.0,0.0,0.0,0.0,0.0,0.0,0.0,0.0,0.0,0.0,0.0,0.0,0.0,0.0,0.0,0.0,0.0,0.0,0.0,0.0,0.0,0.0,0.0,0.0,0.0,0.0,0.0,0.0,0.0,0.0,0.0,0.0,0.0,0.0,0.0,0.0,0.0,0.0,0.0,0.0,0.0,0.0,0.0,0.0,0.0,0.0,0.0,0.0,0.0,0.0,0.0,0.0,0.0,0.0,0.0,0.0,0.0,0.0,0.0,0.0,0.0,0.0,0.0,0.0,0.0,0.0,0.0,0.0,0.0,0.0,0.0,0.0,0.0,0.0,0.0,0.0,0.0,0.0,0.0,0.0,0.0,0.0,0.0,0.0,0.0,0.0,0.0,0.0,0.0,0.0,0.0,0.0,0.0,0.0,0.0,0.0,0.0,0.0,0.0,0.0,0.0,0.0,0.0,0.0,0.0,0.0,0.0,0.0,0.0,0.0,0.0,0.0,0.0,0.0,0.0,0.0,0.0,0.0,0.0,0.0,0.0,0.0,0.0,0.0,0.0,0.0,0.0,0.0,0.0,0.0,0.0,0.0,0.0,0.0,0.0,0.0,0.0,0.0,0.0,0.0,0.0,0.0,0.0,0.0,0.0,0.0,0.0,0.0,0.0,0.0,0.0,0.0,0.0,0.0,0.0,0.0,0.0,0.0,0.0,0.0,0.0,0.0,0.0,0.0,0.0,0.0,0.0,0.0,0.0,0.0,0.0,0.0,0.0,0.0,0.0,0.0,0.0,0.0,0.0,0.0,0.0,0.0,0.0,0.0,0.0,0.0,0.0,0.0,0.0,0.0,0.0,0.0,0.0,0.0,0.0,0.0,0.0,0.0,0.0,0.0,0.0,0.0,0.0,0.0,0.0,0.0,0.0,0.0,0.0,0.0,0.0,0.0,0.0,0.0,0.0,0.0,0.0,0.0,0.0,0.0,0.0,0.0,0.0,0.0,0.0,0.0,0.0,0.0,0.0,0.0,0.0,0.0,0.0,0.0,0.0,0.0,0.0,0.0,0.0,0.0,0.0,0.0,0.0,0.0,0.0,0.0,0.0,0.0,0.0,0.0,0.0,0.0,0.0,0.0,0.0,0.0,0.0,0.0,0.0,0.0,0.0,0.0,0.0,0.0,0.0,0.0,0.0,0.0,0.0,0.0,0.0,0.0,0.0,0.0,0.0,0.0,0.0,0.0,0.0,0.0,0.0,0.0,0.0,0.0,0.0,0.0,0.0,0.0,0.0,0.0,0.0,0.0,0.0,0.0,0.0,0.0,0.0,0.0,0.0,0.0,0.0,0.0,0.0,0.0,0.0,0.0,0.0,0.0,0.0,0.0,0.0,0.0,0.0,0.0,0.0,0.0,0.0,0.0,0.0,0.0,0.0,0.0,0.0,0.0,0.0,0.0,0.0,0.0,0.0,0.0,0.0,0.0,0.0,0.0,0.0,0.0,0.0,0.0,0.0,0.0,0.0,0.0,0.0,0.0,0.0,0.0,0.0,0.0,0.0,0.0,0.0,0.0,0.0,0.0,0.0,0.0,0.0,0.0,0.0,0.0,0.0,0.0,0.0,0.0,0.0,0.0,0.0,0.0,0.0,0.0,0.0,0.0,0.0,0.0,0.0,0.0,0.0,0.0,0.0,0.0,0.0,0.0,0.0,0.0,0.0,0.0,0.0,0.0,0.0,0.0,0.0,0.0,0.0,0.0,0.5418,0.0,0.0,0.0,0.0,0.0,0.0,0.0,0.0,0.0,0.0,0.0,0.0,0.0,0.0,0.0,0.0,0.0,0.0,0.0,0.0,0.0,0.0,0.0,0.0,-0.1942,-0.222,-0.2586,-0.2842,0.0,0.0,0.0,0.0,0.0,0.0,0.0,0.0,0.0,-0.5084,-0.566,-0.5462,-0.5225,-0.4942,-0.5077,-0.45,-0.3419,0.0,0.0,0.0,0.0,0.0,0.0,0.0,0.0,0.0,0.0,0.0,0.0,0.0,0.0,0.0,0.0,0.0,0.0,0.0,0.0,0.0,0.0,0.0,0.0,0.0,0.0,0.0,0.0,0.0,0.0,0.0,0.0,0.0,0.0,0.0,0.0,0.0,0.0,0.0,0.0,0.0,0.0,0.0,0.0,0.0,0.0,0.0,0.0,0.0,0.0,0.0,0.0,0.0,0.0,0.0,0.0,0.0,0.0,0.0,0.0,0.0,0.0,0.0,0.0,0.0,0.0,0.0,0.0,0.0,0.0,0.0,0.3986,0.0,0.0,0.0,0.0,0.0,0.0,0.0,0.0,0.0,0.0,0.0,0.0,0.0,0.0,0.0,0.0,0.0,0.0,0.0,0.0,0.0,-0.22,-0.2304,-0.2727,-0.3131,-0.3402,-0.3778,-0.4217,-0.4759,0.0,0.0,0.0,0.0,0.0,0.0,-0.5672,-0.5943,-0.6518,-0.5972,-0.5707,-0.5628,-0.482,-0.3749,0.0,0.0,0.0,0.0,0.0,0.0,0.0,0.0,0.0,0.0,0.0,0.0,0.0,0.0,0.0,0.0,0.0,0.0,0.0,0.0,0.0,0.0,0.0,0.0,0.0,0.0,0.0,0.0,0.0,0.0,0.0,0.0,0.0,0.0,0.0,0.0,0.0,0.0,0.0,0.0,0.0,0.0,0.0,0.0,0.0,0.0,0.0,0.0,0.0,0.0,0.0,0.0,0.0,0.0,0.0,0.0,0.0,0.0,0.0,0.0,0.0,0.0,0.0,0.0,0.0,0.9338,1.091,1.093,1.093,1.1013,1.0925,0.638,0.4951,0.5536,0.0,0.0,0.0,0.0,0.0,0.0,0.0,0.0,0.0,0.0,0.0,0.0,0.0,0.0,0.0,0.0,0.0,0.0,0.0,0.0,-0.2779,-0.28,-0.3181,-0.3553,-0.3885,-0.3965,-0.4217,-0.4759,-0.4807,0.0,0.0,0.0,-0.543,-0.5678,-0.548,-0.5663,-0.6269,0.0,-0.4487,-0.4257,-0.31,-0.2363,-0.2133,-0.2622,0.0,0.0,0.0,0.0,0.0,0.0,0.0,0.0,0.0,0.0,0.0,0.0,0.0,0.0,0.0,0.0,0.0,0.0,0.0,0.0,0.0,0.0,0.0,0.0,0.0,0.0,0.0,0.0,0.0,0.0,0.0,0.0,0.0,0.0,0.0,0.0,0.0,0.0,0.0,0.0,0.0,0.0,0.0,-0.1853,-0.1726,0.0,0.0,0.0,0.0,0.0,0.0,0.0,0.0,0.0,0.0,0.0,0.0,0.0,0.0754,0.0968,0.292,0.4258,0.4839,0.7495,0.8871,0.8969,0.8969,0.8979,0.8985,0.8208,0.0,0.6289,0.5717,0.0,0.0,0.0,0.0,0.0,0.0,0.0,0.0,0.0,0.0,0.0,0.0,0.0,0.0,0.0,0.0,0.0,0.0,0.0,0.0,0.0,-0.3565,-0.4009,-0.3994,-0.4327,-0.4764,-0.5425,-0.5607,0.0,0.0,-0.6673,-0.6827,-0.6912,-0.653,-0.6176,-0.5868,-0.5381,-0.477,-0.3878,-0.2923,-0.2178,-0.158,-0.0785,-0.0334,-0.02,-0.0642,0.0,0.0,0.0,0.0,0.0,0.0,0.0,0.0,0.0,0.0,0.0,0.0,0.0,0.0,0.0,0.0,0.0,0.0,0.0,0.0,0.0,0.0,0.0,0.0,0.0,0.0,0.0,0.0,0.0,0.0,0.0,0.0,0.0,0.0,0.0,0.0,0.0,0.0,0.0,-0.0539,0.1168,-0.1513,-0.2709,-0.369,0.0,0.0,0.0,0.0,0.0,0.0,0.0,0.0,0.0,0.1928,0.2301,0.2931,0.3935,0.5078,0.6006,0.6616,0.7783,0.8649,0.9203,0.9203,0.9203,0.9203,0.9203,0.8565,0.7294,0.587,0.354,0.0803,0.0,0.0,0.0,0.0,-0.1004,-0.0504,0.0,0.0,0.0,0.0,0.0,0.0,0.0,0.0,0.0,0.0,0.0,0.0,-0.3159,-0.3966,-0.4538,-0.4619,-0.5029,-0.5634,-0.6449,-0.675,0.0,0.0,-0.7923,-0.8076,-0.8156,-0.7465,-0.6559,-0.5448,-0.5597,-0.5192,-0.4215,-0.3181,-0.2344,-0.1539,0.0394,0.1033,0.0644,0.0595,0.0578,0.0,0.0,0.0,0.0,0.0,0.0,0.0,0.0,0.0,0.0,0.0,0.0,0.0,0.0,0.0,0.0,0.0,0.0,0.0,0.0,0.0,0.0,0.0,0.0,0.0,0.0,0.0,0.0,0.0,0.0,0.0,0.0,0.0,0.0,0.0,0.0,0.0,0.0,0.0685,0.2673,-0.1133,-0.1258,-0.1689,0.0,0.0,0.0,0.0,0.0,0.0,-0.0196,-0.0,0.1323,0.4019,0.4247,0.4983,0.6383,0.6491,0.7001,0.7851,0.7851,0.8279,0.8973,0.8973,0.8973,0.8973,0.8973,0.8535,0.7714,0.6083,0.4553,0.3065,0.178,0.0961,0.0589,0.1223,0.1426,0.1717,0.0,0.0,0.0,0.0,0.0,0.0,0.0,0.0,0.0,0.0,0.0,-0.3746,-0.3766,-0.4445,-0.5271,-0.6214,-0.6288,-0.6728,-0.7721,-0.8114,-0.8323,-0.838,-0.8343,-0.8484,-0.8758,-0.7659,-0.6378,-0.4908,-0.526,-0.5408,-0.5282,-0.3544,-0.2678,-0.2544,0.0134,0.1707,0.2407,0.2513,0.2615,0.2697,0.0,0.0,0.0,0.0,0.0,0.0,0.0,0.0,0.0,0.0,0.0,0.0,0.0,0.0,0.0,0.0,0.0,0.0,0.0,0.0,0.0,0.0,0.0,0.0,0.0,0.0,0.0,0.0,0.0,0.0,0.0,0.0,0.0,0.0,0.0,0.0,0.0,0.0,0.0,0.03,0.1044,0.0,0.0,0.0,0.0,-0.236,-0.0398,0.0829,0.0818,0.0822,0.2476,0.6001,0.6188,0.637,0.6642,0.6652,0.6736,0.6902,0.6902,0.6965,0.7001,0.7001,0.7001,0.7001,0.7001,0.6919,0.6861,0.7636,0.6276,0.3544,0.3628,0.2393,0.0874,0.2803,0.3478,0.3712,0.0,0.0,0.0,-0.1212,-0.1567,-0.1954,-0.2276,-0.25,-0.2651,-0.2706,-0.334,-0.3711,-0.3501,-0.483,-0.5834,-0.6003,-0.6514,-0.71,-0.7717,-0.8232,-0.8549,-0.8671,-0.9192,-0.901,-0.7982,-0.7073,-0.6205,-0.5352,-0.5549,-0.5361,-0.4795,-0.3457,-0.2542,-0.1837,0.1058,0.2458,0.2776,0.3344,0.3564,0.3605,0.3865,0.3085,0.0,0.0,0.0,0.0,0.0,0.0,0.0,0.0,0.0,0.0,0.0,0.0,0.0,0.0,0.0,0.0,0.0,0.0,0.0,0.0,0.0,0.0,0.0,0.0,0.0,0.0,0.0,0.0,0.0,0.0,0.0,0.0,0.0,0.0,0.0,0.0,0.0,0.0686,0.1889,0.0,0.0272,0.0563,-0.0072,-0.2361,0.0457,0.228,0.2338,0.2341,0.2941,0.4191,0.4253,0.4287,0.4372,0.4606,0.4722,0.472,0.6312,0.6967,0.7011,0.7011,0.7004,0.6997,0.6997,0.696,0.6983,0.7325,0.677,0.559,0.5629,0.5191,0.4606,0.5314,0.563,0.5711,0.0,0.0,0.0,-0.1279,-0.1696,-0.211,-0.2438,-0.2613,-0.2717,-0.2815,-0.3357,-0.3829,-0.4017,-0.5281,-0.6312,-0.6832,-0.7328,-0.7824,-0.8331,-0.8769,-0.9036,0.0,-0.9635,-0.9023,-0.7171,-0.6788,-0.6302,-0.5661,-0.5755,-0.5294,-0.4349,-0.3338,-0.2397,-0.1381,0.1596,0.2904,0.2971,0.4122,0.4558,0.4611,0.5377,0.4752,0.3424,0.0,0.0,0.0,0.0,0.0,0.0,0.0,0.0,0.0,0.0,0.0,0.0,0.0,0.0,0.0,0.0,0.0,0.0,0.0,0.0,0.0,0.0,0.0,0.0,0.0,0.0,0.0,0.0,0.0,0.0,0.0,0.0,0.0,0.0,0.0,0.1693,0.0979,0.2915,0.3543,0.1589,0.2574,0.2198,-0.0559,0.0987,0.2017,0.2034,0.2035,0.2042,0.2058,0.2088,0.2016,0.2016,0.231,0.2412,0.241,0.3935,0.5104,0.5916,0.5916,0.6091,0.6355,0.69,0.7071,0.7139,0.7139,0.7027,0.6848,0.6848,0.6848,0.6848,0.6848,0.6848,0.6841,0.0,0.0,-0.1133,-0.1265,-0.1682,-0.2116,-0.2445,-0.2616,-0.2788,-0.3083,-0.3392,-0.4072,-0.5362,-0.5826,-0.6856,-0.8816,-0.8765,-0.8974,-0.9679,-0.9706,-0.9733,0.0,0.0,0.0,-0.6482,-0.6831,-0.6591,-0.5734,-0.5741,-0.5234,-0.4147,-0.3276,-0.233,-0.1166,0.16,0.2911,0.3056,0.4939,0.5728,0.5645,0.6169,0.5972,0.5284,0.0,0.0,0.0,0.0,0.0,0.0,0.0,0.0,0.0,0.0,0.0,0.0,0.0,0.0,0.0,0.0,0.0,0.0,0.0,0.0,0.0,0.0,0.0,0.0,0.0,0.0,0.0,0.0,0.0,0.0,0.0,0.0,0.0,-0.2086,-0.0195,0.1174,0.1312,0.4321,0.6359,0.6613,0.5389,0.4185,0.327,0.1258,0.0,0.0,0.0,0.0,0.0,0.0,0.0,0.0,0.0,0.0,0.0,0.0,0.1251,0.3481,0.3481,0.3926,0.4727,0.6358,0.7074,0.7143,0.7143,0.7143,0.7143,0.7139,0.7139,0.7139,0.7139,0.7136,0.7112,-0.0176,-0.041,-0.0743,-0.121,-0.1606,-0.2044,-0.2571,-0.2688,-0.2788,-0.3083,-0.348,-0.4193,-0.5375,-0.6521,-0.7602,-0.8598,-0.931,-0.9662,-0.9699,-1.0281,-1.049,0.0,0.0,0.0,-0.6925,-0.5775,-0.5061,-0.4842,-0.4933,-0.4439,-0.337,-0.3139,-0.2529,-0.1383,0.0921,0.2377,0.3135,0.4355,0.527,0.5954,0.6531,0.6218,0.5389,0.0,0.0,0.0,0.0,0.0,0.0,0.0,0.0,0.0,0.0,0.0,0.0,0.0,0.0,0.0,0.0,0.0,0.0,0.0,0.0,0.0,0.0,0.0,0.0,0.0,0.0,0.0,0.0,0.0,0.0,0.0,0.0,-0.5967,-0.1726,0.2286,0.4841,0.4914,0.5883,0.6593,0.6702,0.6363,0.6043,0.5984,0.2274,0.0,0.0,0.0,0.0,0.0,0.0,0.0,0.0,0.0,0.0,0.0,0.0,0.0359,0.0986,0.0986,0.1075,0.1519,0.5387,0.7108,0.7088,0.7081,0.7078,0.7074,0.7058,0.7139,0.7139,0.7139,0.7075,0.6983,0.0,-0.0207,-0.0585,-0.12,-0.1566,-0.2014,-0.2613,-0.2712,-0.2832,-0.3256,-0.3592,-0.4315,-0.566,-0.6958,-0.7855,-0.8321,-0.9574,-1.0104,-0.957,-1.0053,0.0,0.0,0.0,-0.6936,-0.6619,-0.5735,-0.5047,-0.4586,-0.4655,-0.4139,-0.3124,-0.2657,-0.2192,-0.1489,0.0627,0.2192,0.3198,0.4153,0.5202,0.618,0.6436,0.6329,0.6022,0.593,0.529,0.4336,0.3423,0.2894,0.2599,0.2014,0.0,0.0,0.0,0.0,0.0,0.0,0.0,0.0,0.0,0.0,0.0,0.0,0.0,0.0,0.0,0.0,0.0,0.0,0.0,0.0,0.0,0.0,0.0,0.0,-0.9066,-0.6621,-0.0218,0.3986,0.6458,0.6452,0.6624,0.6783,0.6672,0.6767,0.69,0.7115,0.4561,0.2066,0.009,0.0,0.0,0.0,0.0,0.0,0.0,0.0,0.0,0.0,0.0,0.0,0.0,0.0,0.0,0.0,0.3961,0.5624,0.5608,0.5603,0.625,0.0,0.0,0.0,0.0,0.0,0.7197,0.7017,0.0,-0.0195,-0.0546,-0.1141,-0.1507,-0.1941,-0.2524,-0.2679,-0.2932,-0.35,-0.3721,-0.4444,-0.6003,-0.7021,-0.7666,-0.7906,-0.95,-1.0123,-0.9379,0.0,0.0,-0.6626,-0.694,-0.6838,-0.6054,-0.611,-0.5631,-0.4688,-0.4608,-0.3984,-0.289,-0.2035,-0.1568,-0.1333,0.0549,0.1957,0.2968,0.4062,0.5157,0.6089,0.6033,0.6313,0.6773,0.6635,0.6059,0.5213,0.4041,0.3281,0.2809,0.246,0.0,0.0,0.0,0.0,0.0,0.0,0.0,0.0,0.0,0.0,0.0,0.0,0.0,0.0,0.0,0.0,0.0,0.0,0.0,0.0,0.0,0.0,0.0,0.0,-1.0051,-0.541,0.1418,0.443,0.6134,0.6634,0.6605,0.655,0.6729,0.6947,0.692,0.6314,0.6314,0.4497,0.027,0.0,0.0,0.0,0.0,0.0,0.0,0.0,0.0,0.0,0.0,0.0,0.0,0.0,0.0,0.0095,0.2286,0.3235,0.3228,0.3799,0.5138,0.6844,0.7034,0.7275,0.7414,0.755,0.7417,0.7163,0.0,-0.0055,-0.0225,-0.0718,-0.1126,-0.1565,-0.2062,-0.2447,-0.2932,-0.35,-0.3812,-0.4521,-0.602,-0.6585,-0.7067,-0.7578,-0.8822,-0.9556,0.0,0.0,-0.7398,-0.7322,-0.6636,-0.6235,-0.6213,-0.5458,-0.4921,-0.4688,-0.3826,-0.2891,-0.188,-0.1724,-0.1176,-0.0314,0.0157,0.0863,0.1957,0.2969,0.4059,0.5076,0.5915,0.618,0.6127,0.5923,0.5726,0.5396,0.431,0.3824,0.352,0.2044,0.1681,0.1731,0.1059,0.0,0.0,0.0,0.0,0.0,0.0,0.0,0.0,0.0,0.0,0.0,0.0,0.0,0.0,0.0,0.0,0.0,0.0,0.0,0.0,-1.3745,-0.6612,-0.1188,0.033,0.0998,0.2665,0.6284,0.5212,0.4973,0.6854,0.7094,0.5489,0.1707,0.1348,0.0988,0.009,0.0,0.0,0.0,0.0,0.0,0.0,0.0,0.0,0.0,0.0,0.0,0.0,0.0,0.0,0.0,0.0477,0.0667,0.0952,0.4869,0.6008,0.5591,0.6876,0.7443,0.756,0.759,0.7485,0.7309,0.0,0.0,-0.0149,-0.0613,-0.104,-0.1457,-0.1937,-0.2414,-0.2842,-0.3293,-0.3612,-0.4115,-0.5004,-0.5843,-0.6301,-0.6186,-0.7431,0.0,0.0,-0.7873,-0.7044,-0.663,-0.6357,-0.6179,-0.6335,-0.5786,-0.4999,-0.3904,-0.3357,-0.2579,-0.1568,-0.1019,-0.0784,-0.0784,-0.0236,0.0628,0.1646,0.2657,0.3748,0.4766,0.5867,0.5902,0.5342,0.5591,0.5367,0.4792,0.4125,0.3668,0.3197,0.2223,0.2237,0.2614,0.2404,0.0961,-0.1079,0.0,0.0,0.0,0.0,0.0,0.0,0.0,0.0,0.0,0.0,0.0,0.0,0.0,0.0,-1.6609,0.0,0.0,-1.2634,-0.7311,-0.2804,0.0,0.0,0.0,0.0818,0.3103,0.3456,0.3612,0.3537,0.573,0.5133,0.0359,0.0,0.0,0.0,0.0,0.0,0.0,0.0,0.0,0.0,-0.2698,-0.4045,-0.3951,-0.1244,0.0,0.0,0.0,0.0,0.0,0.0,0.0,0.0196,0.2553,0.3919,0.4781,0.6857,0.7694,0.7712,0.779,0.7723,0.758,0.0,0.0,-0.0125,-0.0501,-0.0911,-0.134,-0.1811,-0.2245,-0.2684,-0.3045,-0.3364,-0.367,-0.4026,-0.505,-0.5587,-0.5243,-0.6191,0.0,0.0,-0.7513,-0.6795,-0.5806,-0.594,-0.6103,-0.6261,-0.5867,-0.4924,-0.3435,-0.2968,-0.2425,-0.1568,-0.0471,-0.0471,-0.1254,-0.0392,0.0471,0.1333,0.2345,0.3281,0.4219,0.5237,0.5157,0.4431,0.5055,0.4673,0.3913,0.3451,0.2956,0.2378,0.2095,0.2524,0.3299,0.3628,0.2947,0.1459,-0.1617,-0.4365,0.0,0.0,0.0,0.0,0.0,0.0,0.0,0.0,0.0,-2.0015,-1.8621,-1.7549,-1.6118,-1.3597,-1.0835,-0.7317,-0.2498,-0.0787,0.0,0.0,0.0,0.0,0.0,0.1731,0.2113,0.0175,0.3471,0.4137,0.027,0.0,0.0,0.0,0.0,0.0,0.0,0.0,0.0,0.0,-0.5334,-0.8023,-0.7928,-0.3613,-0.0983,0.0,0.0,0.0,0.0,0.0,0.0,0.0,0.0,0.1611,0.4218,0.6962,0.7895,0.7872,0.7994,0.7963,0.7851,0.0,0.0,0.0,-0.0067,-0.0468,-0.0906,-0.1306,-0.1776,-0.2336,-0.3007,-0.3269,-0.3636,-0.411,-0.4487,-0.5109,-0.6125,0.0,0.0,-0.6828,-0.6348,-0.596,-0.5803,-0.5176,-0.5315,-0.6261,-0.4453,-0.3826,-0.453,-0.266,-0.1724,-0.1568,-0.0471,-0.0079,-0.0157,-0.0079,0.0079,0.0235,0.1333,0.1802,0.2036,0.3047,0.3357,0.327,0.3262,0.318,0.2952,0.1958,0.1547,0.1362,0.053,0.0329,0.0451,0.0513,0.0383,-0.0501,-0.4632,0.0,-0.7013,-1.2088,-1.5762,0.0,-2.1416,-2.3749,-2.4805,0.0,0.0,-2.2797,-1.9808,-1.8901,-1.8711,-1.8986,-1.8395,-1.5659,-0.9089,-0.3503,0.0,0.0,0.0,0.0,0.0,0.0254,0.0258,0.0,0.0449,0.0539,0.0,0.0,0.0,0.0,0.0,0.0,0.0,0.0,0.0,0.0,-0.534,-0.7976,-0.7979,-0.7415,-0.4626,0.0,0.0,0.0,0.0,0.0,0.0,0.0,0.0,0.1611,0.4218,0.6962,0.7959,0.8018,0.8031,0.8028,0.7997,0.0,0.0,0.0,0.0,-0.0403,-0.0773,-0.094,-0.1544,-0.2115,-0.2425,-0.285,-0.3191,-0.34,-0.391,-0.4761,-0.6079,-0.5198,-0.4885,-0.5713,-0.4736,-0.4138,-0.413,-0.3907,-0.4006,-0.445,-0.3591,-0.3046,-0.2893,-0.2036,-0.1254,-0.0628,-0.0236,0.0,0.0,0.0,0.0,0.0079,0.1176,0.1568,0.1724,0.2657,0.2735,0.2184,0.2133,0.1411,0.0435,0.043,0.0138,0.0,0.0,-0.1646,-0.1542,-0.1542,-0.1924,-0.2854,-0.5495,-0.6944,0.0,-1.3818,0.0,0.0,0.0,-2.4644,-2.6002,-2.5773,-2.5997,-2.5697,-2.3769,-2.3114,-2.2648,-2.1711,-2.1652,-2.0576,0.0,-1.3499,-1.0027,-0.6483,-0.257,0.0,0.0,0.0,0.0,0.0,-0.4938,-0.593,-0.0449,0.0,0.0,0.0,-0.295,-0.4663,-0.4624,-0.1629,-0.0774,-0.232,-0.4536,-0.6484,-0.8004,-0.7972,-0.6052,-0.231,-0.0706,0.0,0.0,0.0,0.0,0.0202,0.3334,0.4437,0.4218,0.6956,0.7962,0.8038,0.8038,0.8038,0.8035,0.0,0.0,0.0,0.0,-0.0269,-0.0538,-0.0672,-0.1243,-0.1711,-0.1981,-0.2364,-0.275,-0.2978,-0.3697,-0.4516,-0.5433,-0.4623,-0.4239,0.0,-0.3711,-0.3049,-0.294,-0.28,-0.2795,-0.3093,-0.2554,-0.2021,-0.1568,-0.1333,-0.0784,0.0,0.0,0.0,0.0,0.0,0.0,0.0079,0.1176,0.1411,0.1254,0.2251,0.2092,0.1161,0.0905,-0.0074,-0.1222,-0.0718,-0.1045,0.0,0.0,-0.2792,-0.2725,-0.3045,-0.3653,-0.4684,-0.6493,-0.8842,-1.1647,-1.5339,0.0,0.0,-2.3067,-2.5309,-2.7108,-2.7531,-2.8054,-2.8017,-2.6518,-2.6351,-2.6164,-2.4942,-2.5084,-2.5015,-2.3638,-2.1933,-1.8917,-1.3608,-0.8696,-0.4981,-0.3076,-0.2808,-0.2608,-0.1949,-0.6989,-0.7934,-0.2335,-0.2152,-0.1897,-0.1107,-0.4773,-0.7237,-0.7934,-0.4204,-0.2757,-0.3941,-0.4692,-0.6037,-0.7972,-0.7982,-0.655,-0.3915,-0.1209,0.0,0.0,0.0,0.0808,0.2524,0.6382,0.6877,0.5327,0.7256,0.7959,0.8038,0.8038,0.8038,0.8041,0.0,0.0,0.0,0.0,0.0,-0.0168,-0.0639,-0.0706,-0.1041,-0.188,-0.2017,-0.2357,-0.3205,-0.4002,-0.4399,-0.4273,-0.4609,-0.4491,-0.3689,-0.3728,-0.3495,-0.2927,-0.2081,-0.2135,-0.3095,-0.1135,-0.0613,-0.1568,-0.0549,0.0,0.0,0.0,0.0,0.0,0.0,0.0,0.0079,0.1176,0.102,0.0157,0.1222,0.0984,-0.0076,-0.0882,-0.1217,-0.1329,-0.1259,0.0,0.0,0.0,-0.2805,-0.2872,-0.3857,-0.4595,0.0,-0.8232,-1.1992,-1.5481,0.0,0.0,-2.1077,-2.2193,-2.5542,-2.8117,-2.6532,-2.8329,-2.9507,-2.6608,-2.7232,-2.8704,-2.9959,-3.0056,-2.9532,-2.802,-2.5847,-2.3201,-1.9879,-1.9745,-1.746,-1.08,-0.998,-0.9105,0.0,-0.2915,-0.2246,-0.6585,-0.7461,-0.6593,-0.4055,-0.4016,-0.5285,-0.7879,-0.7809,-0.6548,-0.4012,-0.6542,-0.7872,-0.7972,-0.7972,-0.6545,-0.3915,-0.1209,0.0,0.0,0.0,0.2929,0.7818,0.7922,0.7902,0.7869,0.7972,0.7959,0.8038,0.8038,0.8038,0.8045,0.0,0.0,0.0,0.0,0.0,-0.0067,-0.0202,-0.0504,-0.0807,-0.1108,-0.1644,0.0,0.0,0.0,0.0,0.0,-0.3652,-0.3379,-0.3123,-0.2337,-0.1778,-0.1585,-0.0901,-0.0719,-0.1031,-0.0369,-0.0149,-0.0536,-0.0153,0.0,0.0,0.0,0.0,0.0,0.0,0.0,0.0,0.0383,0.0304,0.0,0.037,0.0295,-0.0074,-0.1095,-0.1879,-0.2436,0.0,0.0,0.0,0.0,0.0,0.0,-0.6022,-0.7101,-0.8783,-1.1898,-1.379,-1.5083,0.0,0.0,-1.8704,-2.0095,-2.2378,-2.4687,-2.609,-2.8147,-2.9446,-2.8455,-2.9743,-3.0852,-3.0186,-3.1373,-3.21,-3.1112,-2.8911,-2.6892,-2.5819,-2.3494,-2.0673,-1.7505,-1.7139,0.0,0.0,0.0,0.0,-0.7782,-0.8591,-0.8455,-0.6771,-0.6696,-0.7101,-0.8007,-0.7955,-0.7559,-0.6628,-0.7556,-0.7965,-0.7952,-0.7972,-0.5644,-0.131,-0.0404,0.0,0.0,0.0,0.303,0.8022,0.8009,0.7992,0.7972,0.7955,0.8045,0.8038,0.8038,0.8106,0.8184,0.0,0.0,0.0,0.0,0.0,0.0,0.0,0.0,0.0,0.0,0.0,0.0,0.0,0.0,0.0,0.0,0.0,-0.2942,-0.2748,-0.1981,-0.1465,-0.1225,-0.091,-0.0815,-0.0767,-0.0569,-0.0436,-0.0448,-0.0149,0.0,0.0,0.0,0.0,0.0,0.0,0.0,0.0,0.0373,0.037,0.0,0.0072,-0.0143,-0.0566,-0.1887,-0.2697,0.0,0.0,0.0,0.0,0.0,0.0,-0.6547,-0.7362,-0.8622,-1.0448,-1.3601,-1.4535,-1.4797,0.0,-1.716,-1.825,-1.9487,-2.14,-2.3498,-2.5399,-2.7679,-2.9282,-2.8975,-3.099,-3.2539,-3.1761,-3.3656,-3.4886,-3.3437,-3.2446,-3.0975,-2.8569,-2.6211,-2.3821,-2.1363,-2.1115,-2.0235,0.0,0.0,0.0,-0.9826,-0.9754,-0.9578,-0.8733,-0.8261,-0.7963,-0.7959,-0.7962,-0.7955,-0.8038,-0.7955,-0.7955,-0.7939,-0.7048,-0.4732,-0.141,-0.0404,0.0,0.0,0.0,0.2522,0.6673,0.7585,0.7979,0.7959,0.8045,0.8038,0.8038,0.8038,0.8136,0.8262,0.0,0.0,0.0,0.0,0.0,0.0,0.0,0.0,0.0,0.0,0.0,0.0,0.0,0.0,0.0,0.0,0.0,0.0,-0.2574,0.0,0.0,-0.1882,-0.2069,-0.2169,-0.217,-0.1616,-0.1262,-0.1298,-0.0434,0.0,0.0,0.0,0.0,0.0,0.0,0.0,0.0072,0.1083,0.0938,-0.0072,0.007,-0.0409,-0.1334,-0.3107,0.0,0.0,0.0,0.0,0.0,0.0,0.0,-0.608,-0.8055,-0.9319,-1.0648,-1.3294,-1.428,-1.4722,-1.569,-1.7496,-1.93,-2.0155,-2.2353,-2.4297,-2.4208,-2.6734,-2.8841,-2.8132,-3.0806,-3.355,0.0,0.0,-3.7556,-3.5253,-3.6303,-3.5136,-2.856,-2.8268,-2.7163,0.0,0.0,0.0,0.0,0.0,0.0,-1.2856,0.0,-1.0139,-0.991,-0.8735,-0.8038,-0.8038,-0.8038,-0.8038,-0.8038,-0.8038,-0.8038,-0.7942,-0.5422,-0.4016,-0.3715,-0.1209,0.0,0.0,0.0,0.1511,0.4218,0.6859,0.7969,0.8038,0.8038,0.8038,0.8041,0.8048,0.815,0.8289,0.0,0.0,0.0,0.0,0.0,0.0,0.0,0.0,0.0,0.0,0.0,0.0,0.0,0.0,0.0,0.0,0.0,0.0,-0.2951,0.0,0.0,0.0,0.0,0.0,0.0,0.0,0.0,0.0,0.0,0.0,0.0,0.0,0.0,0.0,0.0,0.0,0.0,0.0261,-0.0064,-0.0835,0.0,-0.124,-0.2078,0.0,0.0,0.0,0.0,0.0,0.0,0.0,0.0,-0.7749,-0.9052,-1.0152,-1.1388,-1.3119,-1.3699,-1.4003,-1.5251,-1.5986,-1.6602,-1.7379,-1.8867,-2.0369,-2.1336,-2.3731,-2.5768,-2.604,-2.8388,-3.0771,0.0,0.0,0.0,-3.7012,-3.6756,0.0,-3.256,-3.0769,0.0,-2.4646,0.0,-2.2296,-2.0217,-1.8346,0.0,0.0,-1.3537,-1.2019,-1.1361,-1.0164,-0.9019,-0.8038,-0.8038,-0.8038,-0.8038,-0.8038,-0.8048,-0.7965,-0.7263,-0.4931,-0.1005,-0.0303,0.0,0.0,0.0,0.1511,0.4218,0.6859,0.7969,0.8038,0.8038,0.8038,0.8055,0.817,0.821,0.8361,0.0,0.0,0.0,0.0,0.0,0.0,0.0,0.0,0.0,0.0,0.0,0.0,0.0,0.0,0.0,0.0,0.0,0.0,0.0,0.0,0.0,0.0,0.0,0.0,0.0,0.0,0.0,0.0,0.0,0.0,0.0,0.0,0.0,0.0,0.0,0.0,0.0,-0.0373,0.0,0.0,0.0,0.0,0.0,0.0,0.0,0.0,0.0,0.0,0.0,0.0,0.0,-0.8403,-0.9051,-0.9982,-1.1011,-1.2072,0.0,-1.3364,-1.455,-1.5346,-1.6146,-1.7533,-1.8749,-1.9978,-2.1572,-2.3288,-2.4895,-2.6055,-2.8,0.0,-3.0615,0.0,0.0,0.0,0.0,0.0,-3.4489,-3.3359,-3.1208,0.0,-2.5346,0.0,-2.1359,-1.8815,-1.7309,0.0,-1.4065,-1.2122,-1.1925,-1.0096,-0.8825,-0.8038,-0.8038,-0.8038,-0.8038,-0.8038,-0.7952,-0.7972,-0.7985,-0.6461,-0.3426,-0.111,0.0,0.0,0.0,0.1511,0.4218,0.6859,0.7969,0.8038,0.8038,0.8038,0.8058,0.8214,0.8367,0.8418,0.0,0.0,0.0,0.0,0.0,0.0,0.0,0.0,0.0,-0.0212,-0.0447,-0.0639,0.0,0.0,0.0,0.0,0.0,0.0,0.0,0.0,0.0,0.0,0.0,0.0,0.0,0.0,0.0,0.0,0.0,0.0,0.0,0.0,0.0,0.0,0.0,0.0,0.0,0.0,0.0,0.0,0.0,0.0,0.0,0.0,0.0,0.0,0.0,0.0,0.0,0.0,-0.7089,-0.8415,-0.8615,-0.9397,-1.0343,-1.0817,-1.1772,-1.2899,-1.3718,-1.5158,-1.6892,-1.9004,-2.0118,-2.112,-2.3121,-2.4078,-2.5077,-2.678,0.0,-2.9284,-2.9745,-3.1676,-3.3237,-3.3378,0.0,-3.7559,-3.5223,-3.5579,-3.431,-2.9442,-2.7082,-2.4831,-2.2435,-1.9376,-1.7722,-1.8194,-1.404,-1.1646,-1.192,-0.9702,-0.8333,-0.8038,-0.8038,-0.8038,-0.8038,-0.8038,-0.8048,-0.7969,-0.7672,-0.7485,-0.7299,-0.2322,0.0,0.0,0.0,0.0,0.4218,0.6859,0.7969,0.8038,0.8038,0.8052,0.8089,0.8241,0.8391,0.854,0.0,0.0,0.0,0.0,0.0,0.0,0.0,0.0,0.0,0.0,-0.0613,-0.0269,0.0,0.0,0.0,0.0,0.0,0.0,0.0,0.0,0.0,0.0,0.0,0.0,0.0,0.0,0.0,0.0,0.0,0.0,0.0,0.0,0.0,0.0,0.0,0.0,0.0,0.0,0.0,0.0,0.0,0.0,0.0,0.0,0.0,0.0,0.0,0.0,0.0,0.0,-0.65,-0.8343,-0.8989,-0.9945,-1.0811,-1.0722,-1.1725,-1.298,-1.3147,-1.4817,-1.6839,-1.8362,-1.9258,-2.0304,-2.231,-2.3713,0.0,0.0,-2.6181,-2.6932,-2.6442,-2.7987,-3.0002,-3.1972,-3.4735,-3.646,0.0,0.0,-3.4565,0.0,0.0,0.0,0.0,0.0,0.0,0.0,0.0,-1.3383,-1.2017,-1.1458,-1.019,-0.8038,-0.8038,-0.8038,-0.8038,-0.8038,-0.8041,-0.7945,-0.5727,-0.4724,-0.4626,-0.1411,0.0,0.0,0.0,0.0,0.4218,0.6859,0.7969,0.8038,0.8038,0.8116,0.8248,0.8391,0.8554,0.8612,0.0,0.0,0.0,0.0,0.0,0.0,0.0,-0.0301,-0.0593,-0.0767,-0.0816,-0.1058,-0.1561,-0.1083,-0.0981,0.0,0.0,0.0,0.0,0.0,0.0,0.0,0.0,0.0,0.0,0.0,0.0,0.0,0.0,0.0,0.0,0.0,0.0,0.0,0.0,0.0,0.0,0.0,0.0,0.0,0.0,0.0,0.0,0.0,0.0,0.0,0.0,0.0,0.0,0.0,-0.6883,-0.8231,-0.863,-0.9658,-1.0742,-1.0665,-1.1725,-1.3009,-1.3009,-1.5214,-1.7696,-1.8339,-1.9869,-2.1319,-2.2014,0.0,0.0,0.0,-2.4416,-2.5017,-2.4898,-2.5873,0.0,-2.9859,-3.2913,-3.5181,0.0,0.0,0.0,0.0,0.0,0.0,0.0,0.0,0.0,0.0,0.0,-1.4578,-1.2017,-1.0583,-0.9312,-0.8038,-0.8038,-0.8038,-0.8038,-0.8038,-0.8048,-0.7965,-0.6648,-0.463,-0.1913,-0.0605,0.0,0.0,0.0,0.0,0.4218,0.6859,0.7969,0.8038,0.8038,0.8133,0.8289,0.8428,0.8594,0.8655,0.0,0.0,0.0,0.0,0.0,0.0,0.0,-0.0146,-0.0259,-0.0349,-0.0991,-0.1732,-0.2442,-0.1594,-0.1319,0.0,0.0,0.0,0.0,0.0,0.0,0.0,0.0,0.0,0.0,0.0,0.0,0.0,0.0,0.0,0.0,0.0,0.0,0.0,0.0,0.0,0.0,0.0,0.0,0.0,0.0,0.0,0.0,0.0,0.0,0.0,0.0,0.0,0.0,0.0,-0.7012,-0.797,-0.8208,-0.9409,-1.0735,-1.0675,-1.1881,-1.3293,-1.347,-1.6019,-1.869,-1.9022,-2.0822,-2.2419,-2.2043,-2.2846,0.0,0.0,-2.3038,-2.348,-2.3615,0.0,-2.5496,0.0,-3.0974,-3.3669,-3.522,0.0,0.0,0.0,0.0,0.0,0.0,0.0,0.0,0.0,0.0,0.0,-1.2022,-0.941,-0.8038,-0.8038,-0.8038,-0.8038,-0.8038,-0.8038,-0.7955,-0.7985,-0.7372,-0.5244,-0.1716,-0.0505,0.0,0.0101,0.1212,0.0,0.0,0.6856,0.7969,0.8038,0.8038,0.8153,0.833,0.8442,0.8611,0.8593,0.0,0.0,0.0,0.0,0.0,0.0,0.0,-0.0571,-0.1109,-0.1416,-0.1248,-0.1505,-0.2416,-0.222,-0.1967,0.0,0.0,0.0,0.0,0.0,0.0,0.0,0.0,0.0,0.0,0.0,0.0,0.0,0.0,0.0,0.0,0.0,0.0,0.0,0.0,0.0,0.0,0.0,0.0,0.0,0.0,0.0,0.0,0.0,0.0,0.0,0.0,0.0,0.0,0.0,0.0,-0.7333,-0.8151,-0.973,-1.1296,-1.1029,0.0,0.0,-1.4941,-1.7042,-1.9335,-2.0641,-2.17,-2.2419,-2.2336,0.0,-2.3187,-2.2043,-2.2353,-2.2531,-2.1738,0.0,0.0,0.0,0.0,-3.177,-3.5025,-3.5856,-3.5192,0.0,0.0,0.0,0.0,0.0,0.0,0.0,0.0,0.0,-1.1945,-0.941,-0.8038,-0.8038,-0.8038,-0.8038,-0.8038,-0.8038,-0.7952,-0.7975,-0.5532,-0.534,-0.7098,-0.2221,0.0,0.0303,0.5159,0.0,0.0,0.6851,0.7962,0.8038,0.8038,0.8214,0.8465,0.8476,0.8682,0.8504,0.0,0.0,0.0,0.0,0.0,0.0,0.0398,-0.0053,-0.0468,-0.0631,-0.111,-0.1407,-0.1498,-0.1908,-0.2155,-0.198,0.0,0.0,0.0,0.0,0.0,0.0,0.0,0.0,0.0,0.0,0.0,-0.1315,0.0,0.0,0.0,0.0,0.0,0.0,0.0,0.0,0.0,0.0,0.0,0.0,0.0,0.0,0.0,0.0,0.0,0.0,0.0,0.0,0.0,0.0,0.0,0.0,-0.8465,-0.9953,0.0,0.0,-1.2428,-1.4646,-1.5006,-1.7053,-1.9335,-2.044,-2.1385,-2.181,-2.1019,0.0,-2.1455,-1.9768,-2.0027,-2.0426,-1.9939,-2.0951,0.0,0.0,0.0,0.0,-3.3387,-3.5205,-3.5151,0.0,0.0,0.0,0.0,0.0,0.0,0.0,0.0,0.0,-1.0769,-0.9019,-0.8038,-0.8038,-0.8038,-0.8038,-0.8038,-0.8038,-0.7955,-0.7982,-0.5329,-0.3721,-0.3131,-0.101,0.0,0.0303,0.5667,0.0,0.0,0.7566,0.7959,0.8048,0.8143,0.8303,0.8492,0.8584,0.8777,0.8428,0.0,0.0,0.0,0.0,0.0,0.0168,0.0604,0.0321,0.0,0.0,-0.0692,-0.1017,-0.0666,-0.1155,-0.1584,-0.1739,-0.1761,0.0,0.0,0.0,0.0,0.0,0.0,0.0,0.0,0.0,-0.1798,-0.1824,-0.2178,-0.2143,0.0,0.0,0.0,0.0,0.0,0.0,0.0,0.0,0.0,0.0,0.0,0.0,0.0,0.0,0.0,0.0,0.0,0.0,0.0,0.0,0.0,0.0,0.0,0.0,0.0,0.0,-1.248,-1.4914,-1.5425,-1.7102,-1.9052,-2.0134,-2.092,-2.1059,0.0,0.0,-2.0045,-1.8335,-1.8477,-1.8889,-1.8887,-2.0047,-2.1438,0.0,0.0,-3.0311,-3.1755,-3.4292,-3.4946,0.0,0.0,0.0,0.0,0.0,0.0,0.0,0.0,0.0,-1.0087,-0.8726,-0.8038,-0.8038,-0.8038,-0.8038,-0.8038,-0.8038,-0.7955,-0.7989,-0.5331,-0.2614,0.0,0.0,0.0,0.0202,0.0,0.0,0.0,0.7979,0.7959,0.8055,0.8211,0.8357,0.8503,0.8659,0.8732,0.8552,0.0,0.0,0.0,0.0,0.0,0.0,0.0608,0.0324,0.0,0.0,0.0,0.0,0.0,0.0,-0.0207,-0.0669,-0.1097,0.0,0.0,0.0,0.0,0.0,0.0,0.0,0.0,0.0,-0.2938,-0.3078,-0.3078,-0.3078,-0.3078,-0.3078,-0.3005,0.0,0.0,0.0,0.0,0.0,0.0,0.0,0.0,0.0,0.0,0.0,0.0,0.0,0.0,0.0,0.0,0.0,0.0,0.0,0.0,-1.0153,-1.0992,0.0,-1.2777,-1.5029,-1.6544,-1.7483,-1.8412,-2.0006,-2.0486,-2.0165,0.0,0.0,-1.9421,-1.8422,-1.8207,-1.836,-1.8821,-2.0047,-2.1281,-2.2163,0.0,0.0,-3.0496,-3.2968,0.0,0.0,0.0,0.0,0.0,0.0,0.0,0.0,0.0,0.0,-1.0087,-0.8726,-0.8038,-0.8038,-0.8038,-0.8038,-0.8038,-0.8038,-0.7955,-0.7989,-0.5331,-0.2614,0.0,0.0,0.0,0.0,0.0,0.0,0.0,0.7979,0.7959,0.8055,0.8211,0.8357,0.8503,0.8572,0.8746,0.8897,0.0,0.0,0.0,0.0,0.0,0.0,0.0,0.0563,0.0155,0.0578,0.023,0.0,0.0,0.0,-0.0052,-0.0199,-0.0613,0.0,0.0,0.0,0.0,0.0,0.0,0.0,0.0,-0.3005,-0.3088,-0.3236,-0.3236,-0.3289,-0.3432,-0.3327,-0.3293,-0.3245,-0.31,0.0,0.0,0.0,0.0,0.0,0.0,0.0,0.0,0.0,0.0,0.0,0.0,0.0,0.0,0.0,0.0,0.0,0.0,0.0,0.0,-1.1065,-1.2878,-1.4869,-1.5419,-1.6385,-1.7434,-1.8531,-1.8509,-1.8214,-1.8173,0.0,-1.7458,-1.7226,-1.7202,-1.7293,-1.7444,-1.9015,-2.0654,-2.1669,-2.5788,0.0,0.0,0.0,0.0,0.0,0.0,0.0,0.0,0.0,0.0,0.0,0.0,0.0,-0.8718,-0.8233,-0.8038,-0.8038,-0.8038,-0.8038,-0.8038,-0.8038,-0.7955,-0.7989,-0.5331,-0.2614,0.0,0.0,0.0,0.0,0.0,0.0,0.0,0.7244,0.8045,0.8065,0.8316,0.8442,0.8516,0.8689,0.7584,0.6163,0.0,0.0,0.0,0.0,0.0,0.0,0.0,0.1034,0.0747,0.1196,0.0725,0.0322,0.0363,0.0109,0.0,0.0,-0.0265,0.0,0.0,0.0,0.0,0.0,0.0,0.0,-0.2766,-0.3014,-0.3296,-0.3557,-0.3557,-0.3634,-0.3829,-0.3734,-0.3629,-0.3554,-0.3361,-0.3181,0.0,0.0,0.0,0.0,0.0,0.0,-0.2712,0.0,0.0,0.0,0.0,0.0,0.0,0.0,0.0,0.0,0.0,0.0,0.0,0.0,-1.2358,-1.4063,-1.4883,-1.5626,-1.6428,-1.7455,-1.7597,-1.7371,-1.725,0.0,0.0,0.0,-1.658,-1.6739,-1.7125,-1.8967,-2.0892,-2.2298,-2.6583,0.0,0.0,0.0,0.0,0.0,0.0,0.0,0.0,0.0,0.0,0.0,0.0,0.0,-0.8131,-0.8038,-0.8038,-0.8038,-0.8038,-0.8038,-0.8038,-0.8048,-0.7965,-0.7989,-0.6356,-0.3527,0.0,0.0,0.0,0.0,0.0,0.0,0.0,0.7347,0.8048,0.8069,0.8367,0.8486,0.8428,0.8752,0.7741,0.6054,0.0,0.0,0.0,0.0,0.0,0.0,0.0,0.1593,0.1658,0.1817,0.1314,0.0931,0.0869,0.0389,0.0045,0.0,0.0,0.0,0.0,0.0,0.0,0.0,0.0,0.0,-0.251,-0.3035,-0.3526,-0.4066,-0.4016,-0.4049,-0.4257,-0.4257,-0.4097,-0.3849,-0.3707,-0.3456,0.0,0.0,0.0,0.0,0.0,0.0,0.0,0.0,0.0,0.0,0.0,0.0,0.0,0.0,0.0,0.0,0.0,0.0,0.0,0.0,0.0,0.0,0.0,-1.5159,-1.5386,-1.6688,-1.7293,-1.7346,-1.6295,0.0,0.0,0.0,0.0,0.0,0.0,-1.9757,-2.189,-2.3887,-2.7897,0.0,0.0,-3.0473,0.0,0.0,0.0,0.0,0.0,0.0,0.0,0.0,0.0,0.0,-0.8031,-0.8038,-0.8038,-0.8041,-0.8041,-0.8041,-0.8041,-0.7962,-0.7979,-0.7995,-0.8016,-0.5159,0.0,0.0,0.0,0.0,0.0,0.0,0.0,0.7979,0.7959,0.8069,0.8367,0.8387,0.8338,0.8549,0.8673,0.7997,0.0,0.0,0.0,0.0,0.0,0.0,0.0,0.0,0.0,0.0,0.16,0.1096,0.0763,0.0635,0.0407,0.0,0.0,0.0,0.0,0.0,0.0,0.0,0.0,0.0,-0.2803,-0.2931,-0.3521,-0.4535,-0.3964,-0.4082,-0.486,-0.486,-0.4765,-0.4473,-0.4324,-0.3897,0.0,0.0,0.0,0.0,0.0,0.0,0.0,0.0,0.0,0.0,-0.38,-0.4485,0.0,0.0,0.0,0.0,0.0,0.0,0.0,0.0,-1.1217,-1.2414,-1.3054,0.0,-1.5033,-1.577,-1.5944,-1.6196,0.0,0.0,0.0,0.0,0.0,0.0,0.0,0.0,0.0,-2.5021,0.0,-3.1007,-3.06,0.0,0.0,0.0,0.0,0.0,0.0,0.0,0.0,0.0,0.0,-0.9371,-0.8035,-0.8038,-0.8048,-0.7965,-0.7965,-0.7965,-0.7965,-0.7969,-0.7989,-0.8016,-0.8022,-0.5159,0.0,0.0,0.0,0.0,0.0,0.0,0.7989,0.7979,0.7959,0.8069,0.8367,0.8387,0.812,0.6191,0.6961,0.7997,0.0,0.0,0.0,0.0,0.0,0.0,0.0,0.0,0.0,0.0,0.0,0.1617,0.1415,0.0973,0.0,0.0,0.0,0.0,0.0,0.0,0.0,0.0,0.0,-0.1907,-0.1957,-0.2561,-0.3311,-0.4192,-0.4133,-0.4511,-0.5237,-0.5165,-0.5009,-0.4772,-0.4277,-0.3792,0.0,0.0,0.0,0.0,0.0,0.0,0.0,0.0,0.0,0.0,-0.3509,-0.4261,0.0,-0.5584,-0.6412,-0.7271,0.0,0.0,0.0,0.0,-1.0334,-1.1419,-1.1724,-1.2921,-1.4139,-1.4475,-1.4877,-1.5439,-1.6596,0.0,0.0,0.0,0.0,0.0,0.0,0.0,0.0,0.0,-2.9646,0.0,0.0,0.0,0.0,0.0,0.0,0.0,0.0,0.0,0.0,0.0,0.0,-0.8726,-0.8038,-0.8038,-0.8048,-0.7972,-0.7972,-0.7975,-0.7982,-0.7992,-0.8006,-0.7922,-0.5464,-0.2827,0.0,0.0,0.0,0.0,0.0,0.0,0.6245,0.7466,0.7959,0.8069,0.8367,0.8503,0.8027,0.5412,0.459,0.4375,0.0,0.0,0.0,0.0,0.0,0.0,0.0,0.0,0.0,0.0,0.0,0.0,0.0,0.0,0.0,0.0,0.0,0.0,0.0,0.0,0.0,0.0,-0.0611,-0.0953,-0.0937,-0.208,-0.2987,-0.3673,-0.4224,-0.4803,-0.5426,-0.5342,-0.5176,-0.4914,-0.4039,-0.3551,0.0,0.0,0.0,0.0,-0.2712,0.0,0.0,0.0,0.0,0.0,0.0,0.0,0.0,-0.5449,-0.6366,-0.724,-0.7247,0.0,0.0,0.0,0.0,0.0,-1.071,-1.164,-1.2623,-1.3229,-1.3988,-1.4713,-1.5439,0.0,0.0,0.0,0.0,0.0,0.0,-2.2555,0.0,0.0,0.0,0.0,-2.7002,-2.3795,0.0,0.0,0.0,0.0,0.0,0.0,0.0,0.0,0.0,-0.8041,-0.8038,-0.8038,-0.7952,-0.7975,-0.7566,-0.7572,-0.7999,-0.8016,-0.7613,-0.669,-0.2222,0.0404,0.1212,0.0404,0.0,0.0,0.0,0.0,0.4216,0.6851,0.7975,0.8102,0.8377,0.8523,0.8181,0.5531,0.2573,0.0,0.0,0.0,0.0,0.0,0.0,0.0,0.0,0.0,0.0,0.0,0.0,0.0,0.0,0.0,0.0,0.0,0.0,0.0,0.0,0.0,0.0,0.0,-0.0666,-0.1108,-0.1254,-0.1317,-0.2225,-0.3964,-0.3721,-0.4318,-0.5739,-0.5976,-0.5732,-0.5064,-0.4294,-0.3799,-0.3514,-0.3066,-0.2798,-0.2712,-0.2712,0.0,0.0,0.0,0.0,0.0,0.0,0.0,0.0,-0.4368,-0.5224,-0.6106,-0.6031,0.0,0.0,0.0,0.0,0.0,-1.0072,-0.9658,-0.99,-1.2692,-1.3395,-1.3739,0.0,0.0,0.0,0.0,0.0,0.0,0.0,-2.4342,-2.6314,0.0,0.0,0.0,0.0,0.0,0.0,0.0,0.0,0.0,0.0,0.0,0.0,0.0,0.0,0.0,-0.8041,-0.8038,-0.7955,-0.7985,-0.5837,-0.5749,-0.7945,-0.8032,-0.5768,-0.1212,-0.0404,0.2424,0.6586,0.212,0.0,0.0,0.0,0.5751,0.4216,0.6851,0.814,0.8252,0.8418,0.8481,0.8208,0.5445,0.2573,0.0,0.0,0.0,0.0,0.0,0.0,0.0,0.0,0.0,0.0,0.0,0.0,0.0,0.0,0.0,0.0,0.0,0.0,0.0,0.0,0.0,0.0507,0.0,-0.0306,-0.056,-0.0615,-0.0939,-0.1908,-0.3643,-0.3876,-0.4726,-0.6159,-0.5983,-0.5583,-0.4992,-0.4348,-0.3934,-0.3554,-0.3181,-0.289,-0.2712,0.0,0.0,0.0,0.0,0.0,0.0,0.0,0.0,0.0,0.0,-0.5281,-0.6239,-0.6739,0.0,0.0,0.0,0.0,0.0,-0.8543,-0.8757,-0.9278,-0.9359,-0.9299,0.0,0.0,0.0,0.0,0.0,0.0,0.0,0.0,0.0,-1.6456,-2.9816,0.0,0.0,0.0,0.0,0.0,0.0,0.0,0.0,0.0,0.0,0.0,0.0,0.0,0.0,-0.7959,-0.8045,-0.7955,-0.7989,-0.5432,-0.3925,-0.3644,-0.3639,-0.2424,0.0,0.0,0.1313,0.3737,0.4149,0.4349,0.4438,0.0,0.7287,0.6239,0.7463,0.815,0.8286,0.8334,0.8398,0.8016,0.3671,0.1232,0.0,0.0,0.0,0.0,0.0,0.0,0.0,0.0,0.0,0.0,0.0,0.0,0.0,0.0,0.0,0.0,0.0,0.0,0.0,0.0,0.0909,0.0636,0.0187,0.0053,0.0,0.0,-0.0522,-0.1525,-0.2863,-0.3732,-0.4966,-0.6356,-0.5833,-0.5348,-0.4904,-0.4465,-0.4083,-0.3609,-0.3303,-0.3005,-0.273,0.0,0.0,0.0,0.0,0.0,0.0,0.0,0.0,0.0,0.0,0.0,0.0,0.0,0.0,0.0,-0.7699,-0.819,-0.8456,-0.7398,-0.8012,-0.8399,-0.6177,0.0,0.0,0.0,0.0,0.0,0.0,0.0,0.0,0.0,-0.4361,0.0,-3.4691,0.0,0.0,0.0,0.0,0.0,0.0,0.0,0.0,0.0,0.0,0.0,0.0,0.0,0.0,-0.7975,-0.7962,-0.7965,-0.7999,-0.605,-0.3321,-0.0,0.0,0.0,0.0,0.0,0.0303,0.1109,0.5881,0.7727,0.7394,0.7808,0.7999,0.7972,0.7969,0.8167,0.8333,0.8357,0.8428,0.7844,0.2119,0.0,0.0,0.0,0.0,0.0,0.0,0.0,0.0,0.0,0.0,0.0,0.0,0.0,0.0,0.0,0.0,0.0,0.0,0.0,0.0,0.0,0.1493,0.1069,0.0674,0.0215,0.0,0.0,-0.007,-0.0513,-0.1435,-0.2761,-0.4258,-0.6054,-0.5739,-0.5348,-0.4911,-0.4735,-0.4331,-0.3754,-0.3502,-0.3203,-0.2879,-0.274,0.0,0.0,0.0,0.0,0.0,0.0,0.0,0.0,0.0,0.0,0.0,0.0,0.0,-0.5791,-0.7043,-0.6902,-0.6563,-0.755,-0.6947,-0.5783,-0.477,0.0,0.0,0.0,0.0,0.0,0.0,0.0,0.0,0.0,1.1156,1.4932,0.0,0.0,0.0,0.0,0.0,0.0,0.0,0.0,0.0,0.0,0.0,0.0,0.0,0.0,0.0,-0.7782,-0.7985,0.0,-0.8022,-0.7815,-0.5258,-0.0,0.0,0.0,0.0,0.0,0.131,0.3817,0.6679,0.7083,0.5727,0.726,0.7975,0.7972,0.7952,0.8208,0.8469,0.8394,0.8497,0.8097,0.2241,0.0,0.0,0.0,0.0,0.0,0.0,0.0,0.0,0.0,0.0,0.0,0.0,0.0,0.0,0.0,0.0,0.0,0.0,0.0,0.0,0.0,0.158,0.1102,0.0696,0.0267,0.0,0.0,0.0,-0.0603,-0.1775,-0.2871,-0.4038,-0.5158,-0.4902,-0.4812,-0.4918,-0.486,-0.4446,-0.3778,-0.3622,-0.3269,-0.2896,-0.2744,-0.2712,0.0,0.0,0.0,0.0,0.0,0.0,0.0,0.0,-0.3581,-0.4176,-0.5103,-0.5583,-0.5826,-0.5883,-0.6305,-0.6458,-0.507,-0.4437,0.0,-0.2541,0.0,0.0,0.0,0.0,0.0,0.0,0.0,0.0,0.0,0.0,0.0,0.0,0.0,0.0,0.0,0.0,0.0,0.0,0.0,0.0,0.0,0.0,0.0,0.0,0.0,0.0,0.0,0.0,0.0,-0.7922,-0.8026,-0.5464,-0.0101,0.0,0.0,0.0,0.3334,0.5459,0.657,0.7491,0.7682,0.7051,0.7666,0.7965,0.7952,0.8041,0.8119,0.8418,0.8635,0.6548,0.3139,0.0785,0.0,0.0,0.0,0.0,0.0,0.0,0.0,0.0,0.0,0.0,0.0,0.0,0.0,0.0,0.0,0.0,0.0,0.0,0.0,0.0,0.2304,0.1905,0.146,0.0995,0.0583,0.0236,0.0,0.0,-0.0448,-0.1396,-0.2364,-0.3484,-0.4523,-0.4219,-0.4219,-0.4544,-0.4766,0.0,-0.3529,-0.3635,-0.3388,-0.2968,-0.2862,-0.2764,0.0,0.0,0.0,0.0,0.0,0.0,0.0,0.0,-0.3377,-0.3833,-0.4822,-0.5187,-0.5193,-0.5111,-0.4946,-0.4412,-0.2627,-0.1703,0.0,0.0,0.0,0.0,0.0,0.0,0.0,0.0,0.0,0.0,0.0,0.0,0.0,0.0,0.0,0.0,0.0,0.0,0.0,0.0,0.0,0.0,0.0,0.0,0.0,0.0,0.0,0.0,0.0,0.0,0.0,0.0,-0.5464,-0.3739,-0.0,0.0,0.0,0.0101,0.4543,0.719,0.8012,0.7999,0.7979,0.7962,0.7962,0.7952,0.8038,0.8038,0.7604,0.704,0.8332,0.5276,0.0,0.0,0.0,0.0,0.0,0.0,0.0,0.0,0.0,0.0,0.0,0.0,0.2712,0.2712,0.2712,0.0,0.0,0.0,0.0,0.0,0.0,0.0,0.29,0.2664,0.2232,0.1657,0.1269,0.075,0.0062,0.0,0.0,0.0,-0.0842,-0.2278,-0.4181,-0.3886,-0.3781,0.0,0.0,0.0,-0.2954,-0.3526,-0.3534,-0.3082,-0.3082,-0.2944,-0.27,0.0,0.0,0.0,0.0,0.0,0.0,0.0,-0.2907,-0.3137,-0.4523,-0.422,-0.358,-0.4876,-0.2602,0.0208,-0.0693,0.1089,0.0,0.0,0.0,0.0,0.0,0.0,0.0,0.0,0.0,0.0,0.0,0.0,0.0,0.0,0.0,0.0,0.0,0.0,0.0,0.0,0.0,0.0,0.0,0.0,0.0,0.0,0.0,0.0,0.0,0.0,0.0,0.0,0.0,0.0,0.0,0.0,0.0,0.0,0.2715,0.5432,0.7989,0.7989,0.7972,0.8038,0.8038,0.8038,0.8038,0.8041,0.6468,0.4367,0.7546,0.5164,0.0,0.0,0.0,0.0,0.0,0.0,0.0,0.0,0.0,0.0,0.0,0.0,0.2712,0.2712,0.2712,0.0,0.0,0.0,0.0,0.0,0.0,0.0,0.2907,0.2243,0.1999,0.2364,0.1084,0.0724,0.1545,0.1033,0.0492,0.0,-0.0228,-0.1031,-0.2162,-0.2085,0.0,-0.2923,0.0,0.0,-0.2293,-0.2374,-0.2248,-0.2088,-0.2334,-0.2366,-0.2267,0.0,0.0,0.0,0.0,0.0,0.0,0.0,0.0,0.0,-0.3263,-0.3353,-0.3293,-0.3135,-0.2533,-0.1785,-0.111,0.1856,0.0,0.553,0.0,0.0,0.0,0.0,0.0,0.0,0.0,0.0,0.0,0.0,0.0,0.0,0.0,0.0,0.0,0.0,0.0,0.0,0.0,0.0,0.0,0.0,0.0,0.0,0.0,0.0,0.0,0.0,0.0,0.0,0.0,0.0,0.0,0.0,0.0,0.0,0.2726,0.4437,0.5229,0.7144,0.8048,0.8038,0.8038,0.8038,0.7959,0.7984,0.6471,0.3898,0.2999,0.1569,0.0,0.0,0.0,0.0,0.0,0.0,0.0,0.0,0.0,0.0,0.2712,0.2712,0.2712,0.2712,0.2712,0.2712,0.0,0.0,0.0,0.2771,0.2856,0.2957,0.3076,0.2581,0.241,0.2694,0.1711,0.1343,0.1666,0.131,0.0733,0.0,0.0,-0.0429,-0.1286,-0.1278,0.0,-0.2003,0.0,-0.2093,-0.157,-0.1788,-0.1765,-0.1634,-0.2253,-0.2326,-0.2152,0.0,0.0,0.0,0.0,0.0,0.0,0.0,0.0,0.0,-0.2849,-0.2851,-0.2667,-0.1612,0.0,0.1698,0.2813,0.6648,0.0,1.0566,1.2445,1.5965,2.2337,0.0,0.0,0.0,0.0,0.0,0.0,0.0,0.0,0.0,0.0,0.0,0.0,0.0,0.0,0.0,0.0,0.0,0.0,0.0,0.0,0.0,0.0,0.0,0.0,0.0,0.0,0.0,0.0,0.0,0.0,0.212,0.212,0.0,0.3838,0.5044,0.4116,0.6739,0.7952,0.8038,0.8038,0.7979,0.7961,0.8118,0.722,0.5253,0.1447,0.0,0.0,0.0,0.0,0.0,0.0,0.0,0.0,0.0,0.0,0.0,0.2712,0.2712,0.2712,0.2712,0.2712,0.2719,0.0,0.0,0.0,0.2927,0.294,0.3059,0.3355,0.3313,0.3098,0.282,0.2898,0.2383,0.0995,0.1123,0.0855,0.0184,0.0067,-0.0407,-0.1156,0.0,-0.1056,-0.1217,0.0,-0.1537,-0.0886,-0.1549,-0.1679,-0.1521,-0.237,-0.2471,-0.2162,-0.287,0.0,0.0,0.0,0.0,0.0,0.0,0.0,0.0,-0.2958,-0.2713,-0.2009,-0.0554,0.3482,0.7728,0.8722,0.0,0.0,1.7752,1.8968,0.0,2.5114,2.9381,3.3176,3.5597,0.0,0.0,0.0,0.0,0.0,0.0,0.0,0.0,0.0,0.0,0.0,0.0,0.0,0.0,0.0,0.0,0.0,0.0,0.0,0.0,0.0,0.0,0.0,0.0,0.0,0.0202,0.0707,0.5564,0.5564,0.0,0.5448,0.645,0.442,0.6859,0.7969,0.8038,0.8038,0.8042,0.8017,0.8056,0.8113,0.7503,0.2118,0.0,0.0,0.0,0.0,0.0,0.0,0.0,0.0,0.0,0.0,0.0,0.2712,0.2712,0.2712,0.2712,0.2712,0.2727,0.2849,0.289,0.0,0.3066,0.3145,0.3189,0.3174,0.2965,0.3017,0.3395,0.3637,0.3087,0.1647,0.1763,0.171,0.1597,0.0503,-0.0065,0.0,0.0,0.0,-0.0311,0.0,-0.0344,0.0,-0.0349,-0.0376,-0.0404,-0.1085,-0.1205,-0.111,-0.1707,-0.2057,0.0,0.0,0.0,0.0,0.0,0.0,0.0,-0.2652,-0.2825,-0.267,-0.1385,0.1275,0.4237,0.0,1.0294,0.0,0.0,2.2372,2.7269,2.7524,3.1385,3.5079,0.0,0.0,0.0,0.0,0.0,0.0,0.0,0.0,0.0,0.0,0.0,0.0,0.0,0.0,0.0,0.0,0.0,0.0,0.0,0.0,0.0,0.0,0.0,0.0,0.0,0.0,0.2019,0.6279,0.7406,0.74,0.0,0.5334,0.5632,0.7153,0.7769,0.7962,0.8038,0.8038,0.8099,0.8046,0.5833,0.6403,0.8075,0.2239,0.0,0.0,0.0,0.0,0.0,0.0,0.0,0.0,0.0,0.0,0.0,0.0,0.0,0.2791,0.2791,0.2849,0.2896,0.2907,0.2998,0.0,0.0,0.3155,0.3196,0.3189,0.3017,0.3119,0.3571,0.3792,0.3371,0.2248,0.2376,0.2283,0.1912,0.1257,0.1011,0.0,0.0,0.0,0.053,0.0,0.034,0.0,0.0,0.0,-0.0048,-0.0729,-0.0915,-0.0876,-0.1468,-0.1753,-0.1778,-0.1427,0.0,0.0,0.0,0.0,0.0,0.0,0.0,-0.2287,-0.0418,0.1869,0.4547,0.0,0.0,0.0,1.8939,0.0,2.9298,2.8821,3.2287,3.5901,0.0,0.0,0.0,0.0,0.0,0.0,0.0,0.0,0.0,0.0,0.0,0.0,0.0,0.0,0.0,0.0,0.0,0.0,0.0,0.0,0.0,0.0,0.384,0.3229,0.1913,0.1913,0.3831,0.7922,0.8009,0.8002,0.8006,0.6492,0.6457,0.7865,0.7928,0.7952,0.8038,0.7952,0.8028,0.7995,0.65,0.5439,0.4375,0.1233,0.0,0.0,0.0,0.0,0.0,0.0,0.0,0.0,0.0,0.0,0.0,0.0,0.0,0.0,0.291,0.3032,0.3086,0.2995,0.3142,0.3229,0.0,0.0,0.0,0.3226,0.3115,0.3208,0.3487,0.3639,0.3422,0.2801,0.281,0.2627,0.212,0.2164,0.2282,0.0,0.0,0.0,0.122,0.0,0.0,0.0,0.0,0.0241,0.0099,-0.0507,-0.0668,-0.0661,-0.1274,-0.139,-0.1287,-0.114,-0.1144,-0.1204,-0.1193,0.0,0.0,0.0,0.0,-0.1633,0.0616,0.2884,0.0,0.0,0.0,1.8242,2.1669,2.6082,0.0,2.973,3.2784,0.0,0.0,0.0,0.0,0.0,0.0,0.0,0.0,0.0,0.0,0.0,0.0,0.0,0.0,0.0,0.0,0.0,0.0,0.0,0.0,0.0,0.0,0.7089,0.7685,0.6948,0.4804,0.4702,0.571,0.7942,0.7962,0.7962,0.7932,0.7801,0.7754,0.7781,0.7892,0.8038,0.8041,0.7992,0.7753,0.7361,0.784,0.4805,0.0,0.0,0.0,0.0,0.0,0.0,0.0,0.0,0.0,0.0,0.0,0.0,0.0,0.0,0.0,0.0,0.0,0.3032,0.3125,0.3239,0.3165,0.3155,0.3266,0.3159,0.3076,0.2974,0.0,0.0,0.3174,0.3286,0.3261,0.3053,0.2842,0.2913,0.3366,0.2983,0.0,0.0,0.0,0.0,0.0,0.0,0.0,0.0,0.0,0.0,0.0,0.0674,0.0656,0.0592,0.0,-0.0163,-0.0039,-0.0155,-0.0425,-0.0762,-0.0768,-0.0829,0.0,0.0,0.0,0.0,-0.0637,0.0,0.0,0.0,0.0,2.1623,0.0,2.6811,3.0338,0.0,0.0,0.0,0.0,0.0,0.0,0.0,0.0,0.0,0.0,0.0,0.0,0.0,0.0,0.0,0.0,0.0,0.0,0.0,0.0,0.0,0.0,0.0,0.0,0.4524,0.6564,0.7615,0.7423,0.7511,0.7547,0.762,0.7855,0.7841,0.7672,0.7767,0.7885,0.7915,0.8031,0.8038,0.8048,0.7998,0.6679,0.4676,0.7061,0.4858,0.0,0.0,0.0,0.0,0.0,0.0,0.0,0.0,0.0,0.0,0.0,0.0,0.0,0.0,0.0,0.0,0.0,0.0,0.3371,0.3309,0.3249,0.3202,0.3182,0.3048,0.2974,0.2913,0.291,0.2971,0.3075,0.3145,0.3149,0.3085,0.3101,0.3206,0.3449,0.3416,0.0,0.0,0.3818,0.3281,0.0,0.0,0.0,0.0,0.0,0.0,0.0,0.0,0.0,0.0,0.0,0.0,0.0,0.1268,0.0639,0.0195,0.0191,-0.0189,-0.068,-0.0591,0.0,0.0,0.0,0.0,0.0,0.9089,1.5308,2.0733,0.0,2.741,3.0134,3.1775,0.0,0.0,0.0,0.0,0.0,0.0,0.0,0.0,0.0,0.0,0.0,0.0,0.0,0.0,0.0,0.0,0.0,0.0,0.0,0.0,0.0,0.0,0.6049,0.6041,0.7091,0.7721,0.7736,0.7804,0.7777,0.7634,0.775,0.7695,0.7475,0.7702,0.7804,0.7794,0.7875,0.7967,0.7969,0.8031,0.7342,0.6085,0.4239,0.2089,0.0,0.0,0.1991,0.4531,0.1194,0.0,0.0,0.0,0.0,0.0,0.0,0.0,0.0,0.0,0.0,0.0,0.0,0.0,0.3534,0.3376,0.0,0.0,0.0,0.2991,0.2893,0.2852,0.2852,0.29,0.3005,0.3046,0.3087,0.3154,0.3274,0.3412,0.3611,0.0,0.0,0.4368,0.5026,0.4816,0.0,0.3686,0.0,0.0,0.0,0.0,0.0,0.0,0.0,0.0,0.0,0.0,0.0,0.335,0.2449,0.1861,0.1543,0.0761,-0.004,0.0157,-0.0323,0.0,0.0,0.0,0.0,0.0,0.0,1.8302,2.331,2.6717,2.9523,0.0,0.0,0.0,0.0,0.0,0.0,0.0,0.0,0.0,0.0,0.0,0.0,0.0,0.0,0.0,0.0,0.0,0.0,0.0,0.0,0.0,0.0,0.0,0.7604,0.7684,0.7647,0.7672,0.765,0.7648,0.7638,0.7509,0.7492,0.7465,0.7434,0.7651,0.7702,0.7604,0.7746,0.7791,0.7832,0.7295,0.7357,0.7727,0.3823,0.2313,0.2201,0.1314,0.3718,0.7225,0.3522,0.1705,0.0968,0.0,0.0,0.0,0.0,0.0,0.0,0.0,0.0,0.0,0.0,0.0,0.3578,0.3568,0.3393,0.3246,0.3095,0.2991,0.2849,0.2737,0.2726,0.273,0.2737,0.2842,0.0,0.329,0.3165,0.359,0.0,0.0,0.0,0.5911,0.5921,0.6037,0.6161,0.5218,0.462,0.4272,0.0,0.0,0.0,0.0,0.0,0.0,0.0,0.0,0.0,0.0,0.0,0.4443,0.3366,0.2402,0.1572,0.103,0.0808,0.0671,0.0,0.0,0.0,0.0,0.9573,0.0,1.8772,2.3856,0.0,0.0,0.0,0.0,0.0,0.0,0.0,0.0,0.0,0.0,0.0,0.0,0.0,0.0,0.0,0.0,0.0,0.0,0.0,0.0,0.0,0.0,0.0,0.0,0.7614,0.7611,0.7475,0.7495,0.77,0.7495,0.7333,0.7111,0.7088,0.7305,0.7587,0.7604,0.7607,0.7604,0.7746,0.7741,0.7504,0.5203,0.5661,0.8062,0.8332,0.8444,0.8088,0.505,0.403,0.4559,0.716,0.6228,0.383,0.0,0.0,0.0,0.0,0.0,0.0,0.0,0.0,0.0,0.0,0.0,0.0,0.0,0.3442,0.3492,0.3794,0.3825,0.3638,0.3109,0.3368,0.3401,0.3101,0.3432,0.3637,0.3761,0.3787,0.0,0.0,0.0,0.4706,0.542,0.5916,0.604,0.5831,0.5668,0.5447,0.5236,0.5057,0.0,0.0,0.0,0.0,0.0,0.0,0.0,0.0,0.0,0.0,0.0,0.625,0.4783,0.3146,0.2314,0.1506,0.0787,0.0,0.0,0.0,0.0,0.0,0.0,1.7747,2.1847,2.5478,0.0,0.0,0.0,0.0,0.0,0.0,0.0,0.0,0.0,0.0,0.0,0.0,0.0,0.0,0.0,0.0,0.0,0.0,0.0,0.0,0.0,0.0,0.0,0.0,0.754,0.74,0.7333,0.7331,0.7416,0.7299,0.7064,0.7143,0.7193,0.7305,0.7407,0.7455,0.7455,0.7506,0.761,0.7422,0.4855,0.3415,0.2885,0.3063,0.5164,0.8173,0.7048,0.6661,0.6835,0.7827,0.7601,0.6722,0.0,0.0,0.0,0.0,0.0,0.0,0.0,0.0,0.0,0.0,0.0,0.0,0.0,0.0,0.3658,0.4177,0.4224,0.4085,0.3702,0.3966,0.3965,0.356,0.3826,0.4058,0.4183,0.4049,0.0,0.0,0.0,0.0,0.0,0.6091,0.6275,0.6191,0.6274,0.6173,0.0,0.0,0.0,0.6273,0.0,0.0,1.0409,0.0,0.0,0.0,0.0,0.0,0.0,0.0,0.0,0.0,0.0,0.0,0.0,0.0,0.0,0.0,0.5527,0.0,0.0,0.0,0.0,2.3045,0.0,0.0,0.0,0.0,0.0,0.0,0.0,0.0,0.0,0.0,0.0,0.0,0.0,0.0,0.0,0.0,0.0,0.0,0.0,0.0,0.0,0.0,0.0,0.0,0.731,0.7268,0.7248,0.7143,0.7241,0.7244,0.7143,0.7139,0.7139,0.7143,0.7295,0.7346,0.7295,0.735,0.7392,0.7251,0.4676,0.2257,0.0,0.0,0.2606,0.677,0.7773,0.8206,0.8265,0.8026,0.813,0.8204,0.0,0.0,0.0,0.0,0.0,0.0,0.0,0.0,0.0,0.0,0.0,0.0,0.0,0.0,0.0,0.4152,0.4082,0.415,0.4378,0.4428,0.4295,0.4041,0.4026,0.4215,0.4602,0.0,0.0,0.0,0.0,0.0,0.0,0.0,0.6908,0.0,0.7177,0.6713,0.6252,0.0,0.6731,0.7826,0.0,1.2333,1.155,0.0,0.0,0.0,1.5054,1.4854,0.0,1.4057,0.0,0.0,0.0,0.0,0.0,0.0,0.0,0.0,0.0,0.0,0.0,0.0,0.0,0.0,0.0,0.0,0.0,0.0,0.0,0.0,0.0,0.0,0.0,0.0,0.0,0.0,0.0,0.0,0.0,0.0,0.0,0.0,0.0,0.0,0.0,0.0,0.0,0.8277,0.6936,0.7061,0.7139,0.7139,0.7139,0.7139,0.7139,0.7139,0.7139,0.7143,0.7292,0.7285,0.7146,0.7302,0.7287,0.6985,0.4663,0.2248,0.0,0.0,0.1523,0.4226,0.7128,0.8275,0.8245,0.8096,0.8038,0.8038,0.0,0.0,0.0,0.0,0.0,0.5096,0.5164,0.5185,0.4854,0.0,0.0,0.0,0.0,0.0,0.0,0.4211,0.4482,0.4636,0.4565,0.4684,0.4773,0.478,0.4897,0.4992,0.5119,0.4909,0.0,0.0,0.0,0.0,0.0,0.0,0.0,0.0,0.7344,0.7371,0.7519,0.7751,0.0,0.0,1.1423,1.2813,0.0,0.0,0.0,0.0,0.0,1.8529,1.7253,0.0,1.5247,1.3214,0.0,0.0,0.0,0.0,0.0,0.0,0.4735,0.0,0.0,0.0,0.0,0.0,0.0,0.0,0.0,0.0,0.0,0.0,0.0,0.0,0.0,0.0,0.0,0.0,0.0,0.0,0.0,0.0,0.0,0.0,0.0,0.0,0.0,0.0,0.8008,0.7887,0.6919,0.7061,0.7139,0.7139,0.7139,0.7139,0.7139,0.7139,0.7139,0.7139,0.7183,0.718,0.7146,0.7131,0.7166,0.703,0.6369,0.3806,0.0,0.0,0.042,0.1569,0.6251,0.8036,0.8119,0.8062,0.8038,0.8038,0.0,0.0,0.6647,0.6937,0.6481,0.601,0.5957,0.6065,0.5868,0.0,0.0,0.0,0.0,0.0,0.0,0.0,0.5252,0.5282,0.5568,0.5625,0.5528,0.5346,0.5418,0.5404,0.5316,0.5335,0.0,0.0,0.0,0.0,0.0,0.0,0.0,0.0,0.0,0.0,0.0,0.0,0.0,0.0,1.2789,0.0,0.0,1.773,1.9304,0.0,0.0,0.0,2.0563,2.0709,1.892,0.0,0.0,0.0,0.0,0.0,0.0,0.0,0.0,0.0,0.0,0.0,0.0,0.0,0.0,0.0,0.0,0.0,0.0,0.0,0.0,0.0,0.0,0.0,0.0,0.0,0.0,0.0,0.0,0.0,0.0,0.0,0.0,0.0,0.0,0.7414,0.7877,0.7808,0.6915,0.7007,0.7078,0.7139,0.7139,0.7139,0.7139,0.7139,0.7139,0.7139,0.7139,0.7139,0.7146,0.7218,0.6861,0.6203,0.5836,0.4154,0.1766,0.2884,0.2675,0.2062,0.6295,0.7972,0.7959,0.8045,0.8038,0.8038,0.0,0.0,0.7034,0.7068,0.7127,0.7086,0.6765,0.6918,0.6903,0.0,0.0,0.0,0.0,0.0,0.0,0.0,0.6139,0.5989,0.6875,0.6719,0.6316,0.5832,0.5752,0.5591,0.5337,0.5383,0.5561,0.0,0.0,0.0,0.0,0.0,0.0,0.0,0.7692,0.811,0.0,0.0,0.0,1.1474,1.5018,1.5999,0.0,0.0,2.0795,0.0,2.1538,2.262,2.3716,2.4924,2.3226,0.0,0.0,0.0,0.0,0.0,1.042,0.0,0.0,0.0,0.0,0.0,0.0,0.0,0.0,0.0,0.0,0.0,0.0,0.0,0.0,0.0,0.0,0.0,0.0,0.0,0.0,0.0,0.0,0.0,0.0,0.0,0.0,0.7655,0.774,0.6718,0.7635,0.7793,0.6868,0.6909,0.6987,0.7112,0.7132,0.7139,0.7139,0.7139,0.7139,0.7139,0.7139,0.7139,0.7146,0.7319,0.6623,0.5313,0.4467,0.4058,0.4218,0.6879,0.6633,0.473,0.7098,0.7962,0.8041,0.8041,0.8038,0.8038,0.6979,0.6979,0.7094,0.7335,0.759,0.7675,0.7493,0.7998,0.8124,0.0,0.0,0.0,0.0,0.0,0.0,0.0,0.0,0.6233,0.6636,0.6416,0.6338,0.6433,0.5965,0.5685,0.5631,0.5433,0.5522,0.5913,0.0,0.0,0.0,0.0,0.0,0.0,0.0,0.0,0.0,0.0,0.0,1.6126,1.6157,0.0,1.6838,2.0292,2.2061,2.2858,2.4175,2.4491,2.4321,0.0,2.3768,2.2291,0.0,0.0,0.0,0.0,0.0,0.0,0.0,0.0,0.0,0.0,0.0,0.0,0.0,0.0,0.0,0.0,0.0,0.0,0.0,0.0,0.0,0.0,0.0,0.0,0.0,0.0,0.0,0.0,0.0,0.0,0.0,0.7311,0.7137,0.7656,0.7209,0.6767,0.6559,0.6797,0.6943,0.697,0.7082,0.7139,0.7139,0.7139,0.7139,0.7139,0.7139,0.7139,0.7149,0.7342,0.7299,0.7149,0.7119,0.5922,0.4218,0.6856,0.7695,0.7305,0.7782,0.7969,0.7965,0.8045,0.8038,0.8038,0.6979,0.6979,0.7114,0.7459,0.7963,0.8311,0.8277,0.8951,0.9272,0.0,0.0,0.0,0.0,0.0,0.0,0.0,0.0,0.0,0.8165,0.7607,0.7405,0.7744,0.7243,0.6783,0.6409,0.6472,0.649,0.6488,0.0,0.0,0.0,0.0,0.0,0.0,0.0,0.0,0.0,0.0,1.4509,1.6942,1.7402,0.0,2.089,2.3525,2.5105,2.609,2.7457,2.8201,2.8394,2.7627,2.6714,0.0,0.0,2.2508,2.0814,0.0,1.7913,1.7279,0.0,0.0,0.0,1.647,0.0,0.0,0.0,0.0,0.0,0.0,0.0,0.0,0.0,0.0,0.0,0.0,0.0,0.0,0.0,0.0,0.0,0.0,0.0,0.0,0.0,0.7001,0.6792,0.7187,0.6788,0.6471,0.6471,0.6692,0.6851,0.6926,0.7065,0.7139,0.7139,0.7139,0.7139,0.7139,0.7139,0.718,0.7261,0.7406,0.755,0.7729,0.7977,0.7256,0.6124,0.7456,0.7969,0.7965,0.7959,0.7955,0.7955,0.8041,0.8038,0.8038,0.7147,0.7063,0.7134,0.7495,0.8203,0.8758,0.8871,0.9539,1.0074,0.0,0.0,0.0,0.0,0.0,0.0,0.0,0.0,0.0,0.0,0.9684,0.9318,0.958,0.8846,0.8203,0.7694,0.7717,0.7499,0.7106,0.0,0.0,0.0,0.0,0.0,0.0,0.0,0.0,0.0,0.0,0.0,1.7535,0.0,2.1709,2.4927,2.6974,2.8263,2.9199,3.0332,3.1486,3.2342,3.1165,0.0,2.9247,2.7679,2.5992,0.0,0.0,0.0,0.0,0.0,0.0,0.0,0.0,0.0,1.8985,0.0,0.0,0.0,0.0,0.0,0.0,0.0,0.0,0.0,0.0,0.0,0.0,0.0,0.0,0.0,0.0,0.0,0.0,0.0,0.6726,0.6629,0.6529,0.6465,0.6455,0.6474,0.659,0.6725,0.6878,0.7024,0.7112,0.7139,0.7139,0.7139,0.7139,0.7139,0.7221,0.7377,0.7529,0.7678,0.7821,0.7895,0.7955,0.8041,0.7959,0.7955,0.8038,0.8038,0.8038,0.8038,0.8038,0.8038,0.8038,0.7704,0.7363,0.7158,0.7729,0.8183,0.8597,0.9057,0.9499,0.992,0.0,0.0,0.0,0.0,0.0,0.0,0.0,0.0,0.0,1.3195,0.0,1.2334,1.2111,1.0334,0.9495,0.983,0.8432,0.751,0.7112,0.0,0.0,0.0,0.0,0.0,0.0,1.16,0.0,0.0,0.0,1.8288,0.0,2.1605,2.3379,0.0,2.8054,2.9752,3.1086,3.1394,3.1913,3.2552,0.0,3.2925,3.2553,0.0,3.0731,3.0229,0.0,0.0,0.0,0.0,0.0,0.0,0.0,1.9124,0.0,0.0,0.0,0.0,0.0,0.0,0.0,0.0,0.0,0.0,0.0,0.0,0.0,0.0,0.0,0.0,0.0,0.0,0.0,0.0,0.0,0.6641,0.6695,0.6473,0.635,0.6488,0.6488,0.6569,0.6722,0.6875,0.7014,0.7139,0.7139,0.7139,0.7139,0.7139,0.7221,0.7377,0.7529,0.7678,0.7821,0.7977,0.8041,0.8038,0.8041,0.8041,0.8038,0.8038,0.8038,0.8038,0.8038,0.8038,0.8038,0.7321,0.7447,0.7609,0.7876,0.8414,0.9022,0.9435,1.0327,1.0982,0.0,0.0,0.0,0.0,0.0,0.0,0.0,0.0,1.413,0.0,0.0,0.0,1.3097,1.1797,1.0944,1.0668,0.9758,0.9204,0.9062,0.8898,0.0,0.0,0.0,0.0,0.0,1.3678,0.0,1.6797,0.0,2.0962,0.0,0.0,0.0,0.0,3.0458,3.1892,3.3859,3.3884,3.3822,3.3722,0.0,3.449,0.0,0.0,0.0,0.0,0.0,0.0,0.0,0.0,0.0,0.0,0.0,0.0,0.0,1.9057,0.0,1.6702,0.0,0.0,0.0,0.0,0.0,0.0,0.0,0.0,0.0,0.0,0.0,0.0,0.0,0.0,0.0,0.0,0.0,0.0,0.0,0.0,0.6647,0.6498,0.6556,0.6634,0.6698,0.6851,0.6997,0.7139,0.7139,0.7139,0.7139,0.7139,0.7268,0.7506,0.757,0.7726,0.7946,0.8011,0.8038,0.8038,0.8038,0.8038,0.8038,0.8038,0.8038,0.8038,0.8038,0.8038,0.8038,0.751,0.0,0.7695,0.7869,0.8505,0.9144,0.9711,1.0909,0.0,0.0,0.0,0.0,1.2402,1.4039,0.0,0.0,1.5155,1.5779,0.0,0.0,1.5183,1.5315,1.3669,0.0,1.2447,1.1297,1.0656,1.0475,1.0159,0.0,0.0,0.0,0.0,0.0,0.0,1.6524,1.8856,0.0,0.0,2.5383,2.5421,2.8507,3.3021,3.2568,3.3578,3.5284,3.5196,3.4857,3.4499,3.5186,3.5436,0.0,3.5224,0.0,0.0,0.0,0.0,0.0,2.7349,0.0,0.0,0.0,0.0,0.0,0.0,0.0,0.0,0.0,0.0,0.0,0.0,0.0,0.0,0.0,0.0,0.0,0.0,0.0,0.0,0.0,0.0,0.0,0.0,0.0,0.0,0.0,0.0,0.0,0.6627,0.6624,0.6658,0.6698,0.6807,0.6936,0.7082,0.7122,0.7139,0.7139,0.7139,0.7302,0.76,0.76,0.776,0.8038,0.8038,0.8038,0.8038,0.8038,0.8038,0.8038,0.8038,0.8038,0.8038,0.8038,0.8038,0.8038,0.8807,0.7765,0.7214,0.7775,0.8176,0.8817,0.9927,1.0862,0.0,0.0,0.0,0.0,0.0,0.0,0.0,0.0,0.0,1.9545,1.9228,0.0,1.8904,1.9881,1.6153,1.472,0.0,1.3128,1.1169,1.0386,1.0768,0.0,0.0,0.0,0.0,0.0,0.0,1.5587,1.7772,1.9994,2.2421,2.493,2.6073,2.9009,3.2748,0.0,3.4399,3.4507,3.4215,0.0,0.0,3.5463,3.5895,0.0,0.0,0.0,0.0,0.0,0.0,0.0,0.0,0.0,0.0,2.6149,0.0,0.0,0.0,0.0,1.6366,0.0,0.0,0.0,0.0,0.0,0.0,0.0,0.0,0.0,0.0,0.0,0.0,0.0,0.0,0.0,0.0,0.0,0.0,0.0,0.0,0.0,0.6853,0.6637,0.6549,0.6695,0.6705,0.678,0.6932,0.7071,0.7139,0.7139,0.7139,0.7302,0.76,0.76,0.776,0.8038,0.8038,0.8038,0.8038,0.8038,0.8038,0.8038,0.8038,0.8038,0.8038,0.8038,0.8038,0.8038,0.8857,0.8668,0.8555,0.8724,0.9569,1.0309,1.064,1.2044,0.0,0.0,0.0,0.0,0.0,1.8948,2.0319,0.0,0.0,2.1528,2.1689,2.0634,0.0,0.0,0.0,1.6392,0.0,0.0,0.0,0.0,0.0,0.0,0.0,0.0,0.0,0.0,0.0,1.7787,0.0,0.0,0.0,0.0,0.0,3.1919,3.3938,0.0,0.0,3.443,3.3853,3.3539,0.0,3.5018,3.595,3.659,3.711,3.7991,3.849,3.6589,3.5262,0.0,0.0,0.0,3.1127,2.928,0.0,0.0,0.0,0.0,0.0,0.0,0.0,0.0,0.0,0.0,0.0,0.0,0.0,0.0,0.0,0.0,0.0,0.0,0.0,0.0,0.0,0.0,0.0,0.0,0.0,0.0,0.0,0.6678,0.6647,0.6698,0.6702,0.6773,0.6926,0.7068,0.7139,0.7139,0.7139,0.7302,0.76,0.76,0.776,0.8038,0.8038,0.8038,0.8038,0.8038,0.8038,0.8038,0.8038,0.8038,0.8038,0.8038,0.8038,0.8038,1.0136,1.0473,1.0603,0.9935,1.0921,1.1892,0.0,0.0,0.0,0.0,1.7436,0.0,1.7302,0.0,2.0894,0.0,2.1364,2.2458,2.2589,2.1969,0.0,2.1834,1.9717,0.0,0.0,0.0,0.0,0.0,0.0,1.3082,0.0,0.0,0.0,0.0,0.0,1.8357,2.2066,0.0,2.6688,0.0,0.0,3.341,0.0,0.0,3.3521,3.4397,0.0,3.3055,3.3069,3.4588,3.5812,3.6767,3.7636,3.8659,3.934,3.834,3.7158,3.6084,3.566,3.4866,0.0,3.2465,3.1418,0.0,2.6989,0.0,0.0,0.0,0.0,0.0,0.0,0.0,0.0,0.0,0.0,0.0,0.0,0.0,0.0,0.0,0.0,0.0,0.0,0.0,0.0,0.0,0.0,0.0,0.0,0.0,0.6756,0.6702,0.6702,0.6749,0.6848,0.6993,0.7092,0.7139,0.7139,0.7302,0.76,0.76,0.776,0.8038,0.8038,0.8038,0.8038,0.8038,0.8038,0.8038,0.8038,0.8038,0.8038,0.8038,0.8038,0.8045,1.2444,1.2988,1.3119,1.1575,1.2272,0.0,0.0,0.0,1.5682,0.0,1.6766,1.7167,1.6178,1.8304,1.9723,1.9508,2.1503,2.2661,2.2221,2.2728,0.0,0.0,2.1924,2.1451,2.2469,0.0,0.0,0.0,0.0,0.0,0.0,0.0,0.0,0.0,1.4425,0.0,2.1475,2.2597,2.6015,3.0747,3.2079,3.3421,3.451,3.3801,3.3889,3.4338,3.3326,3.2738,3.2747,3.4234,3.5411,3.6428,3.75,3.8596,3.9373,3.8501,3.8812,3.9237,3.8494,3.7055,3.5697,3.5566,0.0,0.0,0.0,0.0,2.4728,0.0,0.0,0.0,0.0,0.0,0.0,0.0,0.0,0.0,0.0,0.0,0.0,0.0,0.0,0.0,0.0,0.0,0.0,0.0,0.0,0.0,0.0,0.0,0.6868,0.6705,0.6702,0.6702,0.6702,0.6851,0.7,0.7139,0.7139,0.7302,0.76,0.76,0.776,0.8038,0.8038,0.8038,0.8038,0.8038,0.8038,0.8038,0.8038,0.8038,0.8038,0.8038,0.8038,0.8062,1.3719,1.442,1.508,0.0,1.5003,1.4287,0.0,0.0,0.0,0.0,1.999,2.0725,2.0462,2.167,2.2516,2.2459,2.3606,0.0,0.0,0.0,0.0,2.5709,2.3788,2.297,2.3592,2.066,0.0,1.7567,0.0,0.0,1.3871,0.0,0.0,0.0,0.0,0.0,2.2797,2.3924,2.7345,3.2127,3.3008,3.3875,0.0,0.0,3.3589,3.3558,3.2757,3.2501,3.2659,3.3667,3.4564,3.5485,3.6424,3.7634,3.8546,3.7656,3.8428,3.938,3.8537,3.7997,3.7591,3.7269,3.5377,3.3302,0.0,0.0,0.0,0.0,0.0,0.0,0.0,0.0,0.0,0.0,0.0,0.0,0.0,0.0,0.0,0.0,0.0,0.0,0.0,0.0,0.0,0.0,0.0,0.0,0.0,0.0,0.0,0.6709,0.6702,0.6702,0.6702,0.6851,0.7,0.7139,0.7139,0.7302,0.76,0.76,0.776,0.8038,0.8038,0.8038,0.8038,0.8038,0.8038,0.8038,0.8038,0.8038,0.8038,0.8038,0.8038,0.8062,1.4796,0.0,0.0,1.6721,0.0,0.0,1.6399,1.7633,0.0,2.0332,2.1198,0.0,2.2265,2.297,2.357,2.3847,2.4706,0.0,2.5709,0.0,0.0,2.5721,2.5066,2.4816,2.5084,2.2811,0.0,1.9635,0.0,0.0,1.5155,0.0,0.0,0.0,0.0,1.9273,2.3748,2.7196,3.0513,3.3486,3.4186,0.0,0.0,3.4555,3.4181,3.3905,3.4062,3.3445,3.2623,3.3436,3.4276,3.5137,3.6028,3.7005,3.7753,3.7244,3.8016,3.8914,3.8396,3.83,3.8261,3.7862,3.6616,3.5243,3.4152,3.1399,2.8733,0.0,0.0,0.0,0.0,0.0,0.0,0.0,0.0,0.0,0.0,0.0,0.0,0.0,0.0,0.0,0.0,0.0,0.0,0.0,0.0,0.0,0.0,0.0,0.0,0.6709,0.6824,0.6831,0.6702,0.6912,0.7061,0.7139,0.7139,0.7302,0.76,0.76,0.776,0.8038,0.8038,0.8038,0.8038,0.8038,0.8038,0.8038,0.8038,0.8038,0.8038,0.8038,0.8038,0.8069,0.0,0.0,0.0,0.0,0.0,0.0,0.0,1.9752,0.0,2.1233,0.0,2.1531,2.2428,2.2907,2.3397,2.4095,0.0,2.5345,2.5028,2.6005,2.6156,2.5063,2.6017,2.6596,2.6533,2.4921,0.0,0.0,0.0,0.0,0.0,0.0,0.0,0.0,0.0,0.0,0.0,3.0989,3.3889,3.4609,3.5316,3.5504,3.5334,3.5436,3.4945,3.4372,3.5704,3.4754,3.2924,3.3805,3.4519,3.5119,3.5899,3.6503,3.6923,3.6812,3.7512,3.8254,3.8096,3.8174,3.8186,3.7751,3.7375,3.6771,3.5508,3.3663,3.2175,3.2224,2.8248,2.5443,0.0,0.0,0.0,0.0,0.0,0.0,0.0,0.0,0.0,0.0,0.0,0.0,0.0,0.0,0.0,0.0,0.0,0.0,0.0,0.0,0.0,0.6625,0.6949,0.0,0.6759,0.0,0.7122,0.72,0.716,0.7302,0.76,0.76,0.776,0.8038,0.8038,0.8038,0.8038,0.8038,0.8038,0.8038,0.8038,0.8038,0.8038,0.8038,0.8052,0.8109,0.0,0.0,0.0,0.0,0.0,2.1144,2.214,2.2153,2.2159,2.2397,2.168,2.123,2.1461,2.1948,2.2584,2.3537,2.4566,0.0,0.0,0.0,0.0,2.6258,2.6822,2.6929,2.6533,2.5285,2.4305,0.0,0.0,0.0,0.0,0.0,0.0,0.0,0.0,0.0,2.8837,3.219,0.0,3.464,3.5316,3.4895,3.3863,3.4455,3.3846,3.2829,3.415,3.4489,3.4587,3.5836,3.5696,3.5027,3.5174,3.5647,3.5983,3.5381,3.6659,3.815,3.7411,3.7744,3.8149,3.7533,3.7223,3.6827,3.569,3.4847,3.3846,3.231,3.0584,2.8616,2.6198,0.0,0.0,0.0,0.0,0.0,0.0,0.0,0.0,0.0,0.0,0.0,0.0,0.0,0.0,0.0,0.0,0.0,0.0,0.0,0.0,0.0,0.0,0.0,0.0,0.0,0.7027,0.7516,0.7261,0.7302,0.76,0.76,0.776,0.8038,0.8038,0.8038,0.8038,0.8038,0.8038,0.8038,0.8038,0.8038,0.8038,0.8038,0.8123,0.8255,0.0,0.0,0.0,0.0,0.0,0.0,0.0,2.4067,0.0,2.4658,2.3322,2.2977,2.4486,2.4037,2.42,2.5716,2.6081,2.6251,2.6477,2.6703,2.6741,2.6533,2.6716,0.0,2.6892,2.6534,2.5818,2.4833,0.0,0.0,0.0,0.0,0.0,0.0,0.0,2.6619,0.0,0.0,0.0,3.4071,3.4743,3.4607,3.4049,3.4793,3.4641,3.433,3.6708,3.6914,3.6078,3.6152,3.6035,3.5814,3.538,3.566,3.5969,3.5219,3.5933,3.6857,3.6406,3.6933,3.7453,3.6743,3.6837,3.6649,3.4948,3.4691,3.4305,3.2483,3.151,2.9626,2.4995,2.0869,0.0,0.0,0.0,0.0,0.0,0.0,0.0,0.0,0.0,0.0,0.0,0.0,0.0,0.0,0.0,0.0,0.0,0.0,0.0,0.0,0.0,0.0,0.0,0.0,0.0,0.736,0.783,0.784,0.7597,0.8243,0.8324,0.8038,0.8038,0.8038,0.8038,0.8038,0.8038,0.8038,0.8038,0.8038,0.8048,0.813,0.8252,0.8391,0.0,1.9404,0.0,0.0,2.2101,0.0,2.4915,2.5485,2.6013,2.6744,2.5216,2.4916,2.7359,2.6221,2.6007,2.7631,2.7551,2.7218,2.6747,2.6753,2.6753,2.664,2.6753,2.6954,2.7268,2.7686,2.7167,0.0,0.0,0.0,0.0,0.0,0.0,0.0,0.0,0.0,0.0,0.0,3.4398,3.3788,3.4297,3.4489,3.4556,3.5165,3.5385,3.5783,3.8848,3.877,3.709,3.653,3.6619,3.6851,3.6211,3.6144,3.6203,3.5647,3.5582,3.5685,3.563,3.6125,3.6483,3.5818,3.6217,3.6254,3.4285,3.4321,3.4357,3.2792,3.1836,2.9766,2.4848,2.2576,0.0,0.0,0.0,0.0,0.0,0.0,0.0,0.0,0.0,0.0,0.0,0.0,0.0,0.0,0.0,0.0,0.0,0.0,0.0,0.0,0.0,0.6957,0.6681,0.0,0.7281,0.0,0.8572,0.8816,0.8059,0.8885,0.9172,0.8825,0.8237,0.8038,0.8038,0.8038,0.8038,0.8038,0.8038,0.8038,0.8058,0.8214,0.836,0.8486,0.0,0.0,0.0,0.0,0.0,0.0,2.5507,2.5987,2.6651,2.7763,2.6554,2.5867,2.6651,2.6523,2.6526,2.6752,2.7508,2.7795,2.7243,2.767,2.772,2.7231,2.7682,2.7745,2.7293,2.8062,2.7751,0.0,0.0,0.0,0.0,0.0,0.0,0.0,0.0,0.0,0.0,3.487,3.5103,3.4526,3.4494,3.4489,3.4506,3.4573,3.459,3.4865,3.6825,3.7405,3.7361,3.8424,3.8346,3.7783,3.7709,3.7027,3.6315,3.6446,3.6095,3.5695,3.5693,3.5585,3.535,3.4908,3.5237,3.541,3.4449,3.4543,3.4446,3.3179,3.1665,2.9695,2.6944,2.5154,2.3573,0.0,0.0,0.0,0.0,0.0,0.0,0.0,0.0,0.0,0.0,0.0,0.0,0.0,0.0,0.0,0.0,0.0,0.0,0.6687,0.0,0.6834,0.6652,0.774,0.0,0.7553,0.9487,1.0046,0.9338,0.9343,1.0112,1.1361,0.9019,0.8038,0.8038,0.8038,0.8038,0.8038,0.8038,0.8038,0.8058,0.8214,0.836,0.8503,0.0,0.0,0.0,0.0,0.0,0.0,0.0,2.7813,2.8642,2.9379,2.76,2.6943,2.879,2.7891,2.7529,2.843,2.8562,2.8511,2.8285,2.7858,2.7657,2.777,2.7356,2.7318,2.777,2.8422,2.8612,0.0,0.0,0.0,0.0,0.0,0.0,0.0,0.0,3.2362,3.3108,3.4873,3.4975,3.3964,3.437,3.4687,3.5015,3.5111,3.5368,3.5872,3.7875,3.7969,3.7487,3.922,3.9418,3.8874,3.8527,3.8613,3.8574,3.723,3.6988,3.6937,3.5953,3.5466,3.5141,3.4794,3.4708,3.4531,3.3814,3.388,3.3882,3.313,3.1641,2.9797,2.7633,2.6145,2.497,0.0,0.0,0.0,0.0,0.0,0.0,0.0,0.0,0.0,0.0,0.0,0.0,0.0,0.0,0.0,0.0,0.0,0.0,0.7354,0.0,0.7801,0.808,0.8922,0.9335,0.9459,1.1092,1.1415,1.0634,1.1409,1.1831,1.1755,0.9998,0.9217,0.9118,0.8333,0.8038,0.8038,0.8038,0.8096,0.8197,0.8343,0.8489,0.8638,2.2591,0.0,2.3841,0.0,2.4964,2.5706,2.7184,2.8237,2.9161,2.9869,2.863,2.8302,3.0138,2.9169,2.8856,2.9914,2.9666,2.9352,2.9189,2.8461,2.8047,2.8109,2.7356,0.0,2.8084,2.8783,2.9134,2.9131,2.9754,0.0,0.0,2.8561,0.0,0.0,3.2734,3.3261,3.3287,3.4911,3.5014,3.413,3.4398,3.4933,3.5613,3.5523,3.5865,3.6637,3.8412,3.8287,3.7596,3.947,3.9927,3.9662,3.9298,3.9648,3.9863,3.8246,3.7951,3.7846,3.645,3.5834,3.5441,3.4851,3.4464,3.4056,3.3486,3.3333,3.302,3.2149,3.1019,2.9717,2.8148,2.6834,2.5809,2.5355,0.0,0.0,0.0,0.0,0.0,0.0,0.0,0.0,0.0,0.0,0.0,0.0,0.0,0.0,0.0,0.0,0.0,0.0,0.0,0.0,0.0,1.0233,1.0496,1.0611,1.2423,1.2767,1.1935,1.3455,1.3132,1.1263,1.0779,1.0096,0.9316,0.8432,0.8038,0.8038,0.8038,0.8133,0.8289,0.8428,0.8577,0.873,2.5525,2.5904,2.6587,2.7644,2.5903,2.4772,2.5934,2.6592,2.7425,2.869,2.9729,3.0126,2.9713,3.0143,3.0595,3.0608,3.0595,3.0357,2.9817,2.9767,2.9264,0.0,0.0,2.8097,2.8109,2.897,2.9078,2.8486,0.0,0.0,2.5811,2.7973,3.1,3.4569,3.5261,3.5169,3.4624,3.5316,3.556,3.5493,3.4793,3.5258,3.6329,3.5567,3.5758,3.6522,3.7542,3.7785,3.7805,3.9144,3.9819,4.0101,4.0101,3.9765,3.942,3.9535,3.8963,3.8101,3.7214,3.6754,3.6189,3.5002,3.4464,3.4123,3.385,3.3136,3.1916,2.9843,2.947,2.9335,2.8696,2.7391,2.6274,2.5752,0.0,0.0,0.0,0.0,0.0,0.0,0.0,1.4873,1.5613,0.0,0.0,0.0,0.0,0.0,0.0,0.0,0.0,0.9481,0.963,0.0,1.1718,1.1702,1.1336,1.0611,1.3225,1.4039,1.3235,1.4991,1.3686,1.0096,1.1365,1.0386,0.8038,0.8038,0.8038,0.8038,0.8038,0.8133,0.8289,0.8428,0.8577,0.873,2.5863,2.6157,2.6804,2.821,2.8609,2.8544,2.8349,2.9892,3.0631,2.9364,3.0985,3.1687,3.0334,3.0765,3.1148,0.0,3.1148,3.1072,0.0,3.0193,2.9628,2.9264,2.816,2.7896,2.8649,2.8355,2.8771,2.9957,0.0,0.0,0.0,3.122,3.2292,3.3262,3.4428,3.4806,3.4624,3.5316,3.5622,3.5605,3.5351,3.5916,3.6847,3.5864,3.6296,3.7415,3.7433,3.7578,3.7987,3.9182,3.9668,3.984,4.023,4.0733,4.0959,3.9904,3.9758,3.9647,3.8254,3.7012,3.6008,3.5605,3.4722,3.3902,3.3815,3.2796,3.1416,2.974,2.9092,2.8658,2.8041,2.7132,2.637,2.6072,2.513,0.0,0.0,0.0,0.0,0.0,0.0,1.6242,0.0,1.4405,0.0,0.0,0.0,0.0,0.0,0.0,0.0,0.0,1.0662,0.0,1.2165,1.271,1.3023,1.296,1.4226,1.4889,1.4984,1.4677,1.3878,1.2614,1.1165,1.0096,0.9316,0.8333,0.8038,0.8052,0.8153,0.8286,0.8431,0.8581,0.8733,0.8872,2.7233,2.7504,2.7951,2.9441,2.9943,2.9958,2.9454,3.1146,3.1877,3.0316,3.1877,3.2673,3.1503,3.1782,0.0,3.1725,3.17,3.1612,3.1399,3.0959,3.0331,2.9503,2.8863,2.8798,2.9423,0.0,0.0,3.1132,3.1075,3.1469,3.2285,3.297,3.3172,3.3039,3.4399,3.4847,3.4624,3.5316,3.5622,3.5622,3.5622,3.6232,3.7152,3.644,3.6925,3.7911,3.7791,3.7975,3.8395,3.9283,3.9757,4.0004,4.037,4.0984,4.1353,4.0341,4.0381,4.0443,3.9137,3.8009,3.7053,3.6634,3.5562,3.437,3.3512,3.2423,3.1179,2.9696,2.8919,2.8334,2.771,2.6982,2.6358,2.5951,2.5275,2.4288,2.2807,0.0,0.0,0.0,0.0,0.0,0.0,1.6039,0.0,0.0,0.0,0.0,0.0,0.0,0.0,1.1931,1.1993,0.0,1.3027,1.3374,1.3848,1.4255,1.4843,1.5378,1.5737,1.4949,1.407,1.3102,1.1458,1.0194,0.9217,0.8333,0.8038,0.8055,0.8211,0.8357,0.8503,0.8655,0.8808,0.894,2.9416,2.96,2.9874,0.0,3.051,0.0,2.9691,3.0691,3.1419,3.133,3.2437,3.3194,3.3194,3.3156,3.2918,3.2378,0.0,0.0,0.0,3.1913,3.1235,2.9189,3.0005,3.0471,3.0441,3.025,3.0812,3.2076,3.1767,3.1913,3.2609,3.3261,3.3578,3.3649,3.4958,3.5207,3.4688,3.5362,3.5622,3.5622,3.5622,3.6232,3.719,3.7152,3.747,3.8032,3.8465,3.8726,3.8891,3.943,3.9984,4.0473,4.0504,4.0653,4.0801,4.0801,4.08,4.0645,3.9894,3.9475,3.9004,3.7924,3.6728,3.5268,3.3082,3.2074,3.1179,2.974,2.8966,2.8334,2.776,2.7034,2.6283,2.5563,2.4794,2.3922,2.2763,0.0,0.0,0.0,0.0,0.0,0.0,1.7603,1.6858,0.0,0.0,0.0,0.0,0.0,1.3441,1.4092,1.3299,1.3286,1.4126,1.3801,1.3968,1.4556,1.5124,1.5545,1.5832,1.573,1.437,1.2042,1.1945,1.0485,0.8137,0.8137,0.8038,0.8055,0.8221,0.8367,0.8503,0.8665,0.8815,0.894,0.0,0.0,3.1295,3.3465,3.3658,3.3101,3.2239,3.3089,3.3568,3.262,3.3568,3.4336,3.4336,3.396,3.3646,3.3508,3.3119,3.2817,3.2692,3.1989,3.1348,3.0834,2.9854,2.982,3.0982,3.0111,3.0473,3.2205,3.2224,3.2332,3.2551,3.3218,3.3565,3.3649,3.4496,3.5035,3.5362,3.5515,3.5622,3.5622,3.5622,3.6232,3.7152,3.6764,3.7396,3.8465,3.8183,3.8487,3.9077,3.9486,3.9861,4.025,4.0563,4.0712,4.0801,4.0801,4.08,4.0762,4.0568,3.976,3.8859,3.834,3.6705,3.4899,3.3687,3.2459,3.1308,3.0327,2.9225,2.8479,2.8319,2.7312,2.6457,2.6283,2.5119,2.4216,2.3922,2.2071,0.0,0.0,1.9524,1.8566,1.8566,1.8338,1.7989,0.0,0.0,0.0,0.0,1.6179,1.5509,1.4396,1.3691,1.3925,1.5013,1.4303,1.4275,1.4863,1.5224,1.5545,1.5737,1.4752,1.3974,1.3392,1.2334,1.0974,0.9509,0.9509,0.892,0.8065,0.833,0.8452,0.8516,0.8784,0.8906,0.894,3.2524,3.2324,3.2418,3.4338,3.4726,3.4441,3.3857,3.4247,3.4441,3.3766,3.4247,3.4726,3.4726,3.4223,3.3897,3.3897,3.3156,3.2679,3.2679,3.1863,3.1286,3.1047,3.0645,3.0649,3.118,3.1261,3.1778,3.2819,3.257,3.2512,3.2512,3.289,3.3278,3.3633,3.4284,3.4988,3.5622,3.5622,3.5622,3.5622,3.5622,3.6232,3.719,3.6882,3.756,3.8658,3.8382,3.8704,3.9339,3.9552,3.9903,4.0319,4.054,4.069,4.0789,4.0753,4.078,4.0801,4.0801,4.023,3.9429,3.8618,3.7205,3.5695,3.4492,3.3177,3.1981,3.1008,2.9794,2.8826,2.8559,2.768,2.6878,2.6563,2.5563,2.4681,2.435,2.2518,2.114,2.0949,1.9733,1.8744,1.835,1.835,1.8119,1.7626,0.0,0.0,1.7095,1.7015,1.6651,1.5771,1.4881,1.4734,1.5516,1.4852,1.4716,1.5164,1.5451,1.5678,1.5737,1.5045,1.4459,1.3872,1.3102,1.2037,1.0877,1.0877,1.0538,0.9954,0.9515,0.9459,0.9557,0.9067,0.894,0.894,3.3148,3.3241,3.3534,3.4769,3.4977,3.4977,3.4977,3.4977,3.4977,3.4977,3.4977,3.4977,3.4977,3.4474,3.411,3.4035,3.2993,3.234,3.234,3.1813,3.1323,3.0871,3.1574,3.1809,3.147,3.2717,3.3449,3.3649,3.2976,3.2662,3.2647,3.2732,3.309,3.3793,3.4333,3.4988,3.5622,3.5622,3.5622,3.5622,3.5622,3.6232,3.719,3.719,3.7826,3.8707,3.875,3.9127,3.9599,3.9645,4.0043,4.0504,4.0545,4.0668,4.0785,4.0766,4.0767,4.0793,4.0796,4.0578,4.0076,3.8885,3.7914,3.6857,3.5348,3.4072,3.299,3.19,3.0712,2.9681,2.9092,2.8403,2.7757,2.7328,2.6313,2.5382,2.4991,0.0,2.1765,2.1012,2.0118,1.9302,1.8526,1.8399,1.8191,1.7541,1.7496,1.736,1.6968,1.7218,1.7499,1.7811,1.6236,1.5449,1.5529,1.5203,1.511,1.5398,1.5691,1.5832,1.5832,1.5832,1.5242,1.4166,1.4166,1.3397,1.2237,1.2237,1.2273,1.2299,1.1187,1.0762,1.0741,0.9636,0.9047,0.894,3.561,3.4919,3.4631,3.5906,3.6107,3.6107,3.6107,3.6107,3.6107,3.6107,3.6107,3.6107,3.6107,3.5617,3.5102,3.4638,3.3583,3.2943,3.2943,3.2403,3.2051,3.1976,3.126,3.1401,3.2554,3.3359,3.3984,3.4322,3.3664,3.3335,3.3335,3.3349,3.3779,3.4446,3.4546,3.4988,3.5622,3.5622,3.5622,3.5622,3.5622,3.6232,3.719,3.719,3.7826,3.8719,3.8961,3.9282,3.9645,3.9922,4.0232,4.053,4.0703,4.0768,4.0812,4.0917,4.0891,4.0796,4.0731,4.0236,3.9675,3.9471,3.8436,3.7186,3.6061,3.5137,3.4263,3.3311,3.253,3.1834,3.115,3.0064,2.9644,3.0616,2.8296,2.6694,2.7643,0.0,2.2714,2.2408,2.1613,2.0906,2.0432,2.0334,1.9951,1.9025,1.8962,1.9072,1.9325,1.9402,1.964,2.006,1.7187,1.5293,1.4702,1.4878,1.511,1.5398,1.5691,1.5832,1.5832,1.5832,1.573,1.5534,1.5534,1.4752,1.3584,1.3584,1.3155,1.2404,1.2307,1.1694,1.0847,1.082,0.9915,0.894,3.6263,3.5858,3.5667,3.6263,3.6358,3.6358,3.6358,3.6358,3.6358,3.6358,3.6358,3.6358,3.6358,3.5868,3.5316,3.4776,3.3985,3.3395,3.3093,3.1989,3.1612,3.219,3.1449,3.1832,3.3594,3.3373,3.3815,3.5026,3.4352,3.4023,3.4008,3.4127,3.4516,3.5182,3.5183,3.5604,3.6214,3.5791,3.5622,3.5622,3.5622,3.6232,3.719,3.719,3.7826,3.8738,3.8844,3.9197,3.9622,3.9775,4.012,4.053,4.0699,4.077,4.0805,4.0879,4.0817,4.0712,4.0617,4.01,3.9599,3.9599,3.8665,3.7522,3.6808,3.5819,3.4857,3.4134,3.2911,3.1866,3.1566,3.0464,2.9924,3.0866,2.903,2.7712,2.8243,2.6205,2.4278,2.3239,2.2803,2.2083,2.0945,2.0825,2.0432,1.9674,1.9619,1.9805,2.0244,2.0264,2.0361,2.0557,1.8168,1.6129,1.4756,1.505,1.5344,1.5631,1.5765,1.5832,1.5832,1.5832,1.5832,1.5832,1.5832,1.5439,1.4956,1.5114,1.5041,1.4707,1.414,1.3226,1.2056,1.1398,1.0131,0.894,3.6358,3.6358,3.6358,3.6358,3.6358,3.6358,3.6358,3.6358,3.6358,3.6358,3.6358,3.6358,3.6358,3.5994,3.5466,3.4776,3.4336,3.3809,3.3119,3.1763,3.1493,3.2759,3.2403,3.275,3.4087,3.3363,3.3831,3.5504,3.4981,3.4711,3.476,3.5012,3.5408,3.5957,3.594,3.6281,3.6721,3.5943,3.5622,3.5622,3.5622,3.6232,3.719,3.719,3.7826,3.8707,3.8762,3.9136,3.9622,3.969,4.0082,4.0534,4.0672,4.0762,4.0805,4.0801,4.0733,4.0636,4.0534,4.0063,3.9599,3.9599,3.884,3.7946,3.747,3.66,3.5715,3.5053,3.3701,3.2508,3.2063,3.1072,3.0492,3.113,2.9796,2.8728,2.8955,2.7447,2.5847,2.4452,2.408,2.3311,2.162,2.1428,2.1073,2.0115,2.0068,2.0215,2.0547,2.0566,2.0528,2.038,1.8728,1.6915,1.5154,1.5284,1.5538,1.5832,1.5832,1.5832,1.5832,1.5832,1.5832,1.5832,1.5832,1.5832,1.5852,1.6152,1.644,1.6633,1.5772,1.4773,1.3696,1.2512,1.1214,0.9915,3.6358,3.6358,3.6358,3.6358,3.6358,3.6358,3.6358,3.6358,3.6358,3.6358,3.6358,3.6358,3.6358,3.632,3.5868,3.4813,3.4675,3.4211,3.3144,3.2453,3.2842,3.4406,3.4489,3.4153,3.3454,3.3908,3.4582,3.5504,3.5459,3.5429,3.5415,3.6213,3.6557,3.6606,3.6704,3.6772,3.6721,3.5943,3.5622,3.5622,3.5622,3.6232,3.719,3.719,3.7826,3.875,3.8971,3.9308,3.9645,3.9962,4.025,4.0526,4.0733,4.0793,4.0791,4.0793,4.066,4.0519,4.0504,4.0063,3.9599,3.9599,3.9109,3.8496,3.798,3.7789,3.7435,3.6435,3.6153,3.5511,3.3759,3.286,3.2609,3.3258,3.117,2.9914,3.11,2.8862,2.6992,2.667,2.5919,2.4888,2.3441,2.3267,2.2552,2.0663,2.0518,2.0527,2.0566,2.0566,2.0339,1.9724,1.8454,1.7023,1.5357,1.5384,1.5538,1.5832,1.5832,1.5832,1.5832,1.5832,1.5832,1.5832,1.5832,1.5832,1.5852,1.6152,1.644,1.6734,1.6925,1.626,1.5204,1.5097,1.4234,1.2945,3.6358,3.6358,3.6358,3.6358,3.6358,3.6358,3.6358,3.6358,3.6358,3.6358,3.6358,3.6358,3.6358,3.6358,3.5918,3.4813,3.4726,3.4248,3.3156,3.2867,3.3161,3.4109,3.474,3.5278,3.5532,3.5008,3.5192,3.6118,3.5699,3.5504,3.5504,3.6789,3.7406,3.7431,3.7936,3.7905,3.7432,3.6671,3.6062,3.5622,3.5622,3.6232,3.719,3.719,3.7826,3.8719,3.8833,3.9189,3.9622,3.9754,4.0101,4.053,4.0688,4.0761,4.0791,4.0799,4.0722,4.061,4.0534,4.0063,3.9599,3.9599,3.9154,3.8546,3.8013,3.7893,3.7596,3.6603,3.6053,3.5329,3.3871,3.3065,3.2671,3.2874,3.1723,3.0925,3.1269,3.0021,2.8703,2.751,2.7078,2.599,2.3711,2.3514,2.2713,2.0712,2.0566,2.0566,2.0566,2.083,2.0785,2.0331,1.9839,1.8584,1.6541,1.593,1.5718,1.5832,1.5832,1.5832,1.5832,1.5832,1.5832,1.5832,1.5832,1.5832,1.5865,1.6346,1.6607,1.6754,1.7235,1.6622,1.5417,1.5417,1.4556,1.3264,3.6358,3.6358,3.6358,3.6358,3.6358,3.6358,3.6358,3.6358,3.6358,3.6358,3.6358,3.6358,3.6358,3.6358,3.5918,3.4813,3.497,3.4578,3.3144,3.37,3.4079,3.4057,3.5384,3.6377,3.6776,3.5813,3.5696,3.6492,3.5833,3.5504,3.5504,3.7071,3.7822,3.7847,3.8652,3.8582,3.7855,3.7094,3.6332,3.5622,3.5622,3.6232,3.719,3.719,3.7826,3.8689,3.8803,3.9163,3.9622,3.9731,4.0101,4.0515,4.0674,4.0719,4.0765,4.0783,4.0722,4.0623,4.0515,4.0063,3.9599,3.9599,3.9216,3.8725,3.8231,3.815,3.7877,3.6865,3.6288,3.5474,3.3905,3.3235,3.2726,3.2299,3.1824,3.1426,3.1333,3.071,2.9766,2.8298,2.7855,2.6693,2.4241,2.3672,2.2861,2.1155,2.0789,2.0625,2.0762,2.1318,2.147,2.1235,2.1016,2.0086,1.8473,1.7094,1.6197,1.5832,1.5832,1.5832,1.5832,1.5832,1.5832,1.5832,1.5832,1.5879,1.6005,1.65,1.676,1.6894,1.7388,1.6935,1.6062,1.6062,1.553,1.4556,3.6358,3.6358,3.6358,3.6358,3.6358,3.6358,3.6358,3.6358,3.6358,3.6358,3.6358,3.6358,3.6358,3.6358,3.5918,3.4813,3.5719,3.5414,3.323,3.5034,3.5734,3.4746,3.6724,3.7526,3.6864,3.6259,3.6093,3.6492,3.5833,3.5504,3.5504,3.7071,3.7822,3.7847,3.8652,3.8599,3.7855,3.711,3.6332,3.5622,3.5622,3.6249,3.719,3.721,3.7826,3.875,3.898,3.9333,3.9645,3.9982,4.0286,4.0515,4.0655,4.071,4.071,4.0792,4.0657,4.0489,4.0489,4.0063,3.9599,3.9599,3.9339,3.9036,3.8762,3.8707,3.8401,3.7414,3.719,3.6458,3.4038,3.3582,3.313,3.1739,3.1524,3.1482,3.1482,3.0837,2.995,2.9129,2.8247,2.6989,2.5146,2.412,2.3073,2.2103,2.1155,2.0762,2.1221,2.2051,2.251,2.2519,2.1729,2.1293,2.1293,1.8956,1.7037,1.5825,1.5832,1.5832,1.5832,1.5832,1.5832,1.5832,1.5832,1.5999,1.6293,1.6587,1.6881,1.7181,1.7468,1.7582,1.7582,1.7582,1.7582,1.7364,3.6358,3.6358,3.6358,3.6358,3.6358,3.6358,3.6358,3.6358,3.6358,3.6358,3.6358,3.6358,3.6358,3.6358,3.6265,3.5823,3.6144,3.5976,3.5345,3.654,3.719,3.688,3.8234,3.884,3.8648,3.7997,3.7486,3.7135,3.6507,3.5953,3.5504,3.7071,3.7822,3.7863,3.9168,3.9056,3.7889,3.7669,3.6823,3.5605,3.6028,3.6563,3.7228,3.7578,3.8117,3.875,3.898,3.9333,3.9645,3.9982,4.0286,4.053,4.0722,4.0737,4.071,4.0792,4.0657,4.0489,4.0489,4.023,3.9901,3.9645,3.9216,3.8803,3.8719,3.8707,3.8401,3.7414,3.719,3.6614,3.4686,3.3937,3.3287,3.2437,3.1853,3.1482,3.1482,3.1278,3.0584,2.9192,2.8748,2.7683,2.5205,2.412,2.3073,2.2103,2.1379,2.1357,2.209,2.2373,2.2646,2.2939,2.2707,2.2129,2.1293,1.8956,1.7505,1.7131,1.6204,1.5832,1.5832,1.5832,1.5832,1.5832,1.5832,1.5999,1.6293,1.6587,1.6881,1.7181,1.7468,1.7582,1.7582,1.7582,1.7582,1.7364,3.6358,3.6358,3.6358,3.6358,3.6358,3.6358,3.6358,3.6358,3.6358,3.6358,3.6358,3.6358,3.6358,3.6358,3.6358,3.6323,3.6298,3.6443,3.683,3.742,3.7829,3.7829,3.8855,3.9424,3.9424,3.8482,3.7808,3.7404,3.6522,3.6075,3.5943,3.7235,3.7978,3.8318,3.9558,3.9428,3.8328,3.8024,3.7195,3.609,3.6302,3.6724,3.7248,3.772,3.8216,3.8732,3.9144,3.9414,3.9668,4.012,4.0403,4.0681,4.115,4.1275,4.1237,4.1298,4.116,4.0931,4.0585,4.0285,4.0022,3.9668,3.9242,3.8844,3.8719,3.8707,3.8401,3.7414,3.719,3.6654,3.4922,3.4284,3.3684,3.2734,3.2231,3.1853,3.1524,3.1482,3.1029,2.969,2.9192,2.8206,2.6239,2.4898,2.3604,2.2366,2.2135,2.2168,2.2471,2.2676,2.2881,2.3135,2.3135,2.2775,2.2031,2.0133,1.8864,1.8411,1.7669,1.7296,1.721,1.6749,1.6574,1.648,1.6015,1.6066,1.646,1.6633,1.6947,1.7335,1.7515,1.7582,1.7582,1.7582,1.7582,1.7259,3.6358,3.6358,3.6358,3.6358,3.6358,3.6358,3.6358,3.6358,3.6358,3.6358,3.6358,3.6358,3.6358,3.6358,3.6437,3.6411,3.6429,3.693,3.7904,3.7919,3.7919,3.7919,3.887,3.9424,3.9424,3.8212,3.7623,3.7631,3.6445,3.6219,3.6815,3.761,3.8327,3.8908,3.9731,3.9714,3.9018,3.8306,3.7543,3.6916,3.6644,3.6843,3.7323,3.7808,3.8281,3.8803,3.9402,3.9622,3.9735,4.0319,4.0596,4.0865,4.171,4.1943,4.1905,4.1979,4.1838,4.1508,4.0719,4.0285,4.0022,3.9668,3.9339,3.9036,3.8762,3.8707,3.8401,3.7414,3.719,3.6711,3.4985,3.4624,3.4186,3.2895,3.2641,3.2327,3.1582,3.1482,3.1161,3.0269,2.9504,2.862,2.767,2.6082,2.4469,2.2984,2.3292,2.3278,2.2699,2.3006,2.3222,2.3135,2.3135,2.3135,2.3135,2.2031,2.0845,1.967,1.9579,1.9497,1.9497,1.8226,1.7692,1.7598,1.6414,1.6186,1.6707,1.6734,1.7074,1.7582,1.7582,1.7582,1.7582,1.7582,1.7582,1.7153,3.6358,3.6358,3.6358,3.6358,3.6358,3.6358,3.6358,3.6358,3.6358,3.6358,3.6358,3.6358,3.6358,3.6358,3.67,3.7487,3.8225,3.8782,3.9031,3.9031,3.9031,3.9031,3.9265,3.9424,3.9424,3.914,3.9043,3.92,3.8908,3.8651,3.8428,3.9202,3.9358,3.8908,3.9731,3.991,3.9577,3.8773,3.8278,3.8011,3.7699,3.7649,3.7808,3.8318,3.8737,3.9063,3.9457,3.9775,4.0042,4.0389,4.0616,4.0807,4.1027,4.1072,4.1057,4.1081,4.0947,4.0739,4.0546,4.0285,4.0022,3.9668,3.9339,3.9036,3.8762,3.8707,3.8401,3.7414,3.719,3.6825,3.5616,3.4941,3.4333,3.3547,3.2949,3.2327,3.1582,3.1482,3.097,2.9442,2.9129,2.8427,2.6905,2.6076,2.5347,2.457,2.4968,2.4968,2.4376,2.4405,2.4049,2.3135,2.3135,2.3135,2.3135,2.2862,2.212,2.0935,1.9943,1.9497,1.9497,1.8226,1.7692,1.7606,1.6642,1.638,1.6727,1.6954,1.7261,1.7582,1.7582,1.7582,1.7582,1.7582,1.7582,1.7153,3.6358,3.6358,3.6358,3.6358,3.6358,3.6358,3.6358,3.6358,3.6358,3.6358,3.6358,3.6628,3.715,3.7243,3.7646,3.8655,3.9127,3.9424,3.9424,3.9424,3.9424,3.9424,3.9793,3.9793,3.9424,3.9793,3.9918,3.9668,3.9408,3.9503,4.0008,4.0081,4.005,4.0007,4.007,4.0195,4.0245,3.9074,3.8709,3.888,3.8187,3.7893,3.7946,3.8515,3.8855,3.9133,3.9481,3.9903,4.0321,4.0457,4.0641,4.0879,4.1288,4.1425,4.1416,4.1424,4.1277,4.1027,4.0604,4.0285,4.0022,3.9668,3.9339,3.9036,3.8762,3.8707,3.8401,3.7414,3.719,3.6865,3.581,3.5299,3.4752,3.3735,3.3287,3.2734,3.164,3.1482,3.1161,3.0329,2.9504,2.8363,2.6658,2.6494,2.6286,2.5754,2.6239,2.6004,2.484,2.4787,2.4296,2.3135,2.3135,2.3135,2.3135,2.3135,2.2775,2.212,2.1498,2.1221,2.1221,1.9951,1.9131,1.8519,1.7552,1.7016,1.6727,1.7027,1.7321,1.7582,1.7582,1.7582,1.7582,1.7582,1.7147,1.628,3.6358,3.6358,3.6358,3.6358,3.6358,3.6358,3.6358,3.6358,3.6358,3.6358,3.6534,3.707,3.803,3.8282,3.871,3.9547,3.9459,3.9424,3.9424,3.9424,3.9424,3.9424,4.0239,4.0363,3.961,4.05,4.0665,4.0103,3.9526,4.0066,4.1541,4.0928,4.0859,4.117,4.0696,4.0666,4.0937,3.9495,3.923,3.9682,3.8508,3.8032,3.8099,3.8546,3.8913,3.9212,3.9505,4.0004,4.0489,4.0489,4.0641,4.0937,4.1638,4.1875,4.1883,4.1871,4.1742,4.1412,4.07,4.0285,4.0022,3.9668,3.9339,3.9036,3.8762,3.8627,3.8318,3.7377,3.7152,3.6746,3.5766,3.5622,3.5161,3.3836,3.3582,3.313,3.1682,3.1482,3.1409,3.1087,2.9566,2.8091,2.6784,2.7105,2.7284,2.6908,2.7411,2.6988,2.5189,2.5126,2.4467,2.3135,2.3135,2.3135,2.3135,2.3135,2.3135,2.3135,2.3135,2.3135,2.3047,2.1845,2.0666,1.943,1.8548,1.7638,1.6734,1.7081,1.7368,1.7582,1.7582,1.7582,1.7582,1.7582,1.6823,1.5743,3.6358,3.6358,3.6358,3.6358,3.6358,3.6358,3.6358,3.6358,3.6358,3.6358,3.7243,3.7939,3.8107,3.8918,3.9472,3.9556,3.9459,3.9424,3.9424,3.9424,3.9424,3.9424,4.0239,4.0622,4.0569,4.1412,4.1756,4.1661,4.1629,4.2089,4.3086,4.2985,4.2314,4.1204,4.1658,4.1748,4.1601,4.0449,4.0312,4.0729,3.9205,3.8578,3.8596,3.8658,3.9036,3.9552,3.9576,4.0004,4.0489,4.0489,4.0641,4.0821,4.0937,4.0976,4.0976,4.0976,4.0831,4.0642,4.0527,4.0285,4.0022,3.9668,3.9339,3.9036,3.8762,3.835,3.7843,3.7323,3.6843,3.6333,3.5694,3.5622,3.5161,3.3836,3.3582,3.313,3.1682,3.1482,3.097,2.9504,2.7855,2.6904,2.7201,2.767,2.8149,2.855,2.911,2.8548,2.6389,2.6307,2.5305,2.3135,2.3135,2.3135,2.3135,2.3135,2.3135,2.3135,2.3135,2.3135,2.3047,2.1845,2.0666,1.9438,1.8793,1.7739,1.6747,1.7295,1.7549,1.7582,1.7582,1.7582,1.7582,1.7582,1.747,1.7147,3.6358,3.6358,3.6358,3.6358,3.6358,3.6628,3.7243,3.6803,3.6628,3.723,3.7756,3.8379,3.9006,3.9975,4.0621,4.0621,3.9862,3.9424,3.9424,3.9424,3.9424,3.9424,4.0706,4.1213,4.069,4.2062,4.2724,4.2724,4.2724,4.3185,4.4045,4.32,4.2439,4.1779,4.1222,4.1267,4.174,4.0811,4.0708,4.102,3.9845,3.9093,3.8707,3.8707,3.9073,3.9645,3.9984,4.0266,4.0519,4.0602,4.071,4.0809,4.0883,4.0858,4.0801,4.0801,4.0657,4.0489,4.0489,4.0176,3.9775,3.9645,3.9223,3.8844,3.8719,3.8083,3.7433,3.7248,3.6764,3.6224,3.5694,3.5622,3.5161,3.3836,3.3582,3.313,3.1682,3.1482,3.0896,2.9192,2.8595,2.8059,2.7397,2.8059,2.8662,2.8913,2.9465,2.8791,2.6648,2.6483,2.5484,2.3135,2.3135,2.3135,2.3135,2.3135,2.3135,2.3135,2.3135,2.3135,2.3047,2.2589,2.1311,1.953,1.9503,1.8452,1.6747,1.7341,1.7582,1.7582,1.7582,1.7582,1.7582,1.7582,1.7582,1.7477]}]]